<?xml version="1.0" encoding="UTF-8" standalone="no" ?>
<gpx xmlns="http://www.topografix.com/GPX/1/1" xmlns:xsi="http://www.w3.org/2001/XMLSchema-instance" xsi:schemaLocation="http://www.topografix.com/GPX/1/1 http://www.topografix.com/GPX/1/1/gpx.xsd" version="1.1" creator="VisuGPX - https://www.visugpx.com">
  <metadata>
    <name>Sortie du côté d\'Etupes</name>
    <desc><![CDATA[Sortie du côté d\'Etupes, trace incomplète]]></desc>
  </metadata>
  <trk>
    <name><![CDATA[Path Segment 1]]></name>
    <trkseg>
      <trkpt lat="47.45636" lon="6.91371">
        <ele>600</ele>
        <time>2014-04-20T08:06:59.521Z</time>
      </trkpt>
      <trkpt lat="47.4564" lon="6.91374">
        <ele>592</ele>
        <time>2014-04-20T08:07:04.553Z</time>
      </trkpt>
      <trkpt lat="47.45641" lon="6.91373">
        <ele>590</ele>
        <time>2014-04-20T08:07:09.518Z</time>
      </trkpt>
      <trkpt lat="47.45641" lon="6.91375">
        <ele>591</ele>
        <time>2014-04-20T08:07:14.569Z</time>
      </trkpt>
      <trkpt lat="47.45638" lon="6.91376">
        <ele>590</ele>
        <time>2014-04-20T08:07:19.531Z</time>
      </trkpt>
      <trkpt lat="47.45639" lon="6.91375">
        <ele>590</ele>
        <time>2014-04-20T08:07:24.587Z</time>
      </trkpt>
      <trkpt lat="47.45639" lon="6.91374">
        <ele>590</ele>
        <time>2014-04-20T08:07:29.524Z</time>
      </trkpt>
      <trkpt lat="47.45639" lon="6.91374">
        <ele>591</ele>
        <time>2014-04-20T08:07:34.568Z</time>
      </trkpt>
      <trkpt lat="47.45639" lon="6.91374">
        <ele>591</ele>
        <time>2014-04-20T08:07:39.523Z</time>
      </trkpt>
      <trkpt lat="47.45639" lon="6.91378">
        <ele>590</ele>
        <time>2014-04-20T08:07:44.597Z</time>
      </trkpt>
      <trkpt lat="47.45636" lon="6.91386">
        <ele>592</ele>
        <time>2014-04-20T08:07:49.523Z</time>
      </trkpt>
      <trkpt lat="47.45636" lon="6.91391">
        <ele>592</ele>
        <time>2014-04-20T08:07:54.597Z</time>
      </trkpt>
      <trkpt lat="47.45635" lon="6.91394">
        <ele>592</ele>
        <time>2014-04-20T08:07:59.525Z</time>
      </trkpt>
      <trkpt lat="47.45635" lon="6.91397">
        <ele>593</ele>
        <time>2014-04-20T08:08:04.596Z</time>
      </trkpt>
      <trkpt lat="47.45634" lon="6.91413">
        <ele>595</ele>
        <time>2014-04-20T08:08:09.524Z</time>
      </trkpt>
      <trkpt lat="47.45634" lon="6.91439">
        <ele>594</ele>
        <time>2014-04-20T08:08:14.549Z</time>
      </trkpt>
      <trkpt lat="47.45633" lon="6.91462">
        <ele>593</ele>
        <time>2014-04-20T08:08:19.523Z</time>
      </trkpt>
      <trkpt lat="47.45632" lon="6.91484">
        <ele>594</ele>
        <time>2014-04-20T08:08:24.536Z</time>
      </trkpt>
      <trkpt lat="47.4563" lon="6.91501">
        <ele>596</ele>
        <time>2014-04-20T08:08:29.576Z</time>
      </trkpt>
      <trkpt lat="47.45628" lon="6.91519">
        <ele>595</ele>
        <time>2014-04-20T08:08:34.529Z</time>
      </trkpt>
      <trkpt lat="47.45622" lon="6.91533">
        <ele>597</ele>
        <time>2014-04-20T08:08:39.603Z</time>
      </trkpt>
      <trkpt lat="47.4562" lon="6.91545">
        <ele>596</ele>
        <time>2014-04-20T08:08:44.529Z</time>
      </trkpt>
      <trkpt lat="47.45614" lon="6.91559">
        <ele>597</ele>
        <time>2014-04-20T08:08:49.596Z</time>
      </trkpt>
      <trkpt lat="47.45615" lon="6.9157">
        <ele>597</ele>
        <time>2014-04-20T08:08:54.529Z</time>
      </trkpt>
      <trkpt lat="47.45609" lon="6.91571">
        <ele>596</ele>
        <time>2014-04-20T08:08:59.592Z</time>
      </trkpt>
      <trkpt lat="47.456" lon="6.91559">
        <ele>598</ele>
        <time>2014-04-20T08:09:04.528Z</time>
      </trkpt>
      <trkpt lat="47.45592" lon="6.91549">
        <ele>598</ele>
        <time>2014-04-20T08:09:09.586Z</time>
      </trkpt>
      <trkpt lat="47.45586" lon="6.91543">
        <ele>601</ele>
        <time>2014-04-20T08:09:15.059Z</time>
      </trkpt>
      <trkpt lat="47.45581" lon="6.91533">
        <ele>601</ele>
        <time>2014-04-20T08:09:19.524Z</time>
      </trkpt>
      <trkpt lat="47.45574" lon="6.91526">
        <ele>602</ele>
        <time>2014-04-20T08:09:24.555Z</time>
      </trkpt>
      <trkpt lat="47.45569" lon="6.91517">
        <ele>603</ele>
        <time>2014-04-20T08:09:29.528Z</time>
      </trkpt>
      <trkpt lat="47.45561" lon="6.91507">
        <ele>605</ele>
        <time>2014-04-20T08:09:34.573Z</time>
      </trkpt>
      <trkpt lat="47.45555" lon="6.91498">
        <ele>605</ele>
        <time>2014-04-20T08:09:39.525Z</time>
      </trkpt>
      <trkpt lat="47.45549" lon="6.91491">
        <ele>604</ele>
        <time>2014-04-20T08:09:44.523Z</time>
      </trkpt>
      <trkpt lat="47.45541" lon="6.91481">
        <ele>606</ele>
        <time>2014-04-20T08:09:49.597Z</time>
      </trkpt>
      <trkpt lat="47.45532" lon="6.91471">
        <ele>608</ele>
        <time>2014-04-20T08:09:54.535Z</time>
      </trkpt>
      <trkpt lat="47.45524" lon="6.91467">
        <ele>608</ele>
        <time>2014-04-20T08:09:59.594Z</time>
      </trkpt>
      <trkpt lat="47.45516" lon="6.91463">
        <ele>610</ele>
        <time>2014-04-20T08:10:04.532Z</time>
      </trkpt>
      <trkpt lat="47.45506" lon="6.91459">
        <ele>611</ele>
        <time>2014-04-20T08:10:09.593Z</time>
      </trkpt>
      <trkpt lat="47.45497" lon="6.91456">
        <ele>612</ele>
        <time>2014-04-20T08:10:14.527Z</time>
      </trkpt>
      <trkpt lat="47.45487" lon="6.91453">
        <ele>611</ele>
        <time>2014-04-20T08:10:19.567Z</time>
      </trkpt>
      <trkpt lat="47.45477" lon="6.91449">
        <ele>610</ele>
        <time>2014-04-20T08:10:24.532Z</time>
      </trkpt>
      <trkpt lat="47.45464" lon="6.91445">
        <ele>611</ele>
        <time>2014-04-20T08:10:29.598Z</time>
      </trkpt>
      <trkpt lat="47.45452" lon="6.91439">
        <ele>611</ele>
        <time>2014-04-20T08:10:34.532Z</time>
      </trkpt>
      <trkpt lat="47.45439" lon="6.91437">
        <ele>613</ele>
        <time>2014-04-20T08:10:39.596Z</time>
      </trkpt>
      <trkpt lat="47.45428" lon="6.91434">
        <ele>613</ele>
        <time>2014-04-20T08:10:44.528Z</time>
      </trkpt>
      <trkpt lat="47.45415" lon="6.91431">
        <ele>614</ele>
        <time>2014-04-20T08:10:49.562Z</time>
      </trkpt>
      <trkpt lat="47.454" lon="6.9143">
        <ele>615</ele>
        <time>2014-04-20T08:10:54.512Z</time>
      </trkpt>
      <trkpt lat="47.45386" lon="6.91428">
        <ele>616</ele>
        <time>2014-04-20T08:10:59.561Z</time>
      </trkpt>
      <trkpt lat="47.45357" lon="6.91424">
        <ele>617</ele>
        <time>2014-04-20T08:11:09.578Z</time>
      </trkpt>
      <trkpt lat="47.45338" lon="6.91424">
        <ele>617</ele>
        <time>2014-04-20T08:11:14.535Z</time>
      </trkpt>
      <trkpt lat="47.45324" lon="6.91424">
        <ele>619</ele>
        <time>2014-04-20T08:11:19.595Z</time>
      </trkpt>
      <trkpt lat="47.45308" lon="6.91423">
        <ele>619</ele>
        <time>2014-04-20T08:11:24.523Z</time>
      </trkpt>
      <trkpt lat="47.4529" lon="6.91419">
        <ele>619</ele>
        <time>2014-04-20T08:11:29.597Z</time>
      </trkpt>
      <trkpt lat="47.45274" lon="6.91418">
        <ele>621</ele>
        <time>2014-04-20T08:11:34.535Z</time>
      </trkpt>
      <trkpt lat="47.4526" lon="6.91416">
        <ele>622</ele>
        <time>2014-04-20T08:11:39.579Z</time>
      </trkpt>
      <trkpt lat="47.45247" lon="6.91413">
        <ele>622</ele>
        <time>2014-04-20T08:11:44.529Z</time>
      </trkpt>
      <trkpt lat="47.45232" lon="6.9141">
        <ele>620</ele>
        <time>2014-04-20T08:11:49.600Z</time>
      </trkpt>
      <trkpt lat="47.4522" lon="6.91405">
        <ele>619</ele>
        <time>2014-04-20T08:11:54.533Z</time>
      </trkpt>
      <trkpt lat="47.45162" lon="6.91396">
        <ele>624</ele>
        <time>2014-04-20T08:12:21.444Z</time>
      </trkpt>
      <trkpt lat="47.45147" lon="6.9139">
        <ele>626</ele>
        <time>2014-04-20T08:12:24.497Z</time>
      </trkpt>
      <trkpt lat="47.45133" lon="6.91386">
        <ele>627</ele>
        <time>2014-04-20T08:12:29.596Z</time>
      </trkpt>
      <trkpt lat="47.4512" lon="6.91384">
        <ele>627</ele>
        <time>2014-04-20T08:12:34.524Z</time>
      </trkpt>
      <trkpt lat="47.45105" lon="6.91383">
        <ele>627</ele>
        <time>2014-04-20T08:12:39.581Z</time>
      </trkpt>
      <trkpt lat="47.4509" lon="6.91383">
        <ele>627</ele>
        <time>2014-04-20T08:12:44.525Z</time>
      </trkpt>
      <trkpt lat="47.45077" lon="6.91384">
        <ele>627</ele>
        <time>2014-04-20T08:12:49.594Z</time>
      </trkpt>
      <trkpt lat="47.45064" lon="6.91385">
        <ele>627</ele>
        <time>2014-04-20T08:12:54.564Z</time>
      </trkpt>
      <trkpt lat="47.45051" lon="6.9138">
        <ele>629</ele>
        <time>2014-04-20T08:12:59.596Z</time>
      </trkpt>
      <trkpt lat="47.45039" lon="6.91376">
        <ele>630</ele>
        <time>2014-04-20T08:13:04.523Z</time>
      </trkpt>
      <trkpt lat="47.45025" lon="6.9137">
        <ele>631</ele>
        <time>2014-04-20T08:13:09.605Z</time>
      </trkpt>
      <trkpt lat="47.45011" lon="6.91367">
        <ele>631</ele>
        <time>2014-04-20T08:13:14.532Z</time>
      </trkpt>
      <trkpt lat="47.4498" lon="6.91365">
        <ele>631</ele>
        <time>2014-04-20T08:13:24.530Z</time>
      </trkpt>
      <trkpt lat="47.44967" lon="6.91365">
        <ele>632</ele>
        <time>2014-04-20T08:13:29.599Z</time>
      </trkpt>
      <trkpt lat="47.44953" lon="6.91361">
        <ele>633</ele>
        <time>2014-04-20T08:13:34.525Z</time>
      </trkpt>
      <trkpt lat="47.44938" lon="6.91357">
        <ele>634</ele>
        <time>2014-04-20T08:13:39.588Z</time>
      </trkpt>
      <trkpt lat="47.44926" lon="6.91352">
        <ele>637</ele>
        <time>2014-04-20T08:13:44.597Z</time>
      </trkpt>
      <trkpt lat="47.44914" lon="6.91348">
        <ele>637</ele>
        <time>2014-04-20T08:13:49.547Z</time>
      </trkpt>
      <trkpt lat="47.44904" lon="6.91348">
        <ele>639</ele>
        <time>2014-04-20T08:13:54.598Z</time>
      </trkpt>
      <trkpt lat="47.44893" lon="6.91345">
        <ele>639</ele>
        <time>2014-04-20T08:13:59.537Z</time>
      </trkpt>
      <trkpt lat="47.4488" lon="6.91342">
        <ele>640</ele>
        <time>2014-04-20T08:14:04.592Z</time>
      </trkpt>
      <trkpt lat="47.44872" lon="6.91338">
        <ele>641</ele>
        <time>2014-04-20T08:14:09.524Z</time>
      </trkpt>
      <trkpt lat="47.44862" lon="6.9133">
        <ele>644</ele>
        <time>2014-04-20T08:14:14.588Z</time>
      </trkpt>
      <trkpt lat="47.4485" lon="6.91327">
        <ele>643</ele>
        <time>2014-04-20T08:14:19.522Z</time>
      </trkpt>
      <trkpt lat="47.44839" lon="6.91325">
        <ele>642</ele>
        <time>2014-04-20T08:14:24.598Z</time>
      </trkpt>
      <trkpt lat="47.44831" lon="6.91322">
        <ele>643</ele>
        <time>2014-04-20T08:14:29.531Z</time>
      </trkpt>
      <trkpt lat="47.44823" lon="6.9132">
        <ele>644</ele>
        <time>2014-04-20T08:14:34.587Z</time>
      </trkpt>
      <trkpt lat="47.44814" lon="6.91314">
        <ele>646</ele>
        <time>2014-04-20T08:14:39.525Z</time>
      </trkpt>
      <trkpt lat="47.44802" lon="6.91306">
        <ele>646</ele>
        <time>2014-04-20T08:14:44.564Z</time>
      </trkpt>
      <trkpt lat="47.44794" lon="6.91301">
        <ele>646</ele>
        <time>2014-04-20T08:14:49.524Z</time>
      </trkpt>
      <trkpt lat="47.44784" lon="6.91297">
        <ele>647</ele>
        <time>2014-04-20T08:14:54.593Z</time>
      </trkpt>
      <trkpt lat="47.44775" lon="6.91292">
        <ele>648</ele>
        <time>2014-04-20T08:14:59.533Z</time>
      </trkpt>
      <trkpt lat="47.44766" lon="6.91285">
        <ele>650</ele>
        <time>2014-04-20T08:15:04.593Z</time>
      </trkpt>
      <trkpt lat="47.44757" lon="6.91281">
        <ele>651</ele>
        <time>2014-04-20T08:15:09.595Z</time>
      </trkpt>
      <trkpt lat="47.44746" lon="6.91278">
        <ele>651</ele>
        <time>2014-04-20T08:15:14.523Z</time>
      </trkpt>
      <trkpt lat="47.44735" lon="6.91272">
        <ele>652</ele>
        <time>2014-04-20T08:15:19.530Z</time>
      </trkpt>
      <trkpt lat="47.44722" lon="6.91273">
        <ele>653</ele>
        <time>2014-04-20T08:15:24.611Z</time>
      </trkpt>
      <trkpt lat="47.4471" lon="6.91269">
        <ele>653</ele>
        <time>2014-04-20T08:15:29.487Z</time>
      </trkpt>
      <trkpt lat="47.44699" lon="6.91265">
        <ele>656</ele>
        <time>2014-04-20T08:15:34.594Z</time>
      </trkpt>
      <trkpt lat="47.44695" lon="6.91261">
        <ele>658</ele>
        <time>2014-04-20T08:15:39.642Z</time>
      </trkpt>
      <trkpt lat="47.44677" lon="6.91259">
        <ele>656</ele>
        <time>2014-04-20T08:15:44.555Z</time>
      </trkpt>
      <trkpt lat="47.44659" lon="6.91261">
        <ele>654</ele>
        <time>2014-04-20T08:15:49.512Z</time>
      </trkpt>
      <trkpt lat="47.44644" lon="6.91266">
        <ele>654</ele>
        <time>2014-04-20T08:15:54.596Z</time>
      </trkpt>
      <trkpt lat="47.44621" lon="6.91272">
        <ele>651</ele>
        <time>2014-04-20T08:15:59.524Z</time>
      </trkpt>
      <trkpt lat="47.44593" lon="6.91278">
        <ele>647</ele>
        <time>2014-04-20T08:16:04.593Z</time>
      </trkpt>
      <trkpt lat="47.44566" lon="6.91293">
        <ele>644</ele>
        <time>2014-04-20T08:16:09.530Z</time>
      </trkpt>
      <trkpt lat="47.44536" lon="6.91314">
        <ele>640</ele>
        <time>2014-04-20T08:16:14.598Z</time>
      </trkpt>
      <trkpt lat="47.44506" lon="6.91343">
        <ele>639</ele>
        <time>2014-04-20T08:16:19.531Z</time>
      </trkpt>
      <trkpt lat="47.44475" lon="6.91365">
        <ele>638</ele>
        <time>2014-04-20T08:16:24.598Z</time>
      </trkpt>
      <trkpt lat="47.44442" lon="6.91383">
        <ele>636</ele>
        <time>2014-04-20T08:16:29.532Z</time>
      </trkpt>
      <trkpt lat="47.44411" lon="6.91404">
        <ele>634</ele>
        <time>2014-04-20T08:16:34.593Z</time>
      </trkpt>
      <trkpt lat="47.44382" lon="6.91422">
        <ele>633</ele>
        <time>2014-04-20T08:16:39.531Z</time>
      </trkpt>
      <trkpt lat="47.44353" lon="6.91449">
        <ele>632</ele>
        <time>2014-04-20T08:16:44.567Z</time>
      </trkpt>
      <trkpt lat="47.4433" lon="6.91481">
        <ele>632</ele>
        <time>2014-04-20T08:16:49.523Z</time>
      </trkpt>
      <trkpt lat="47.44304" lon="6.915">
        <ele>633</ele>
        <time>2014-04-20T08:16:54.604Z</time>
      </trkpt>
      <trkpt lat="47.44282" lon="6.91513">
        <ele>633</ele>
        <time>2014-04-20T08:16:59.530Z</time>
      </trkpt>
      <trkpt lat="47.44262" lon="6.91523">
        <ele>634</ele>
        <time>2014-04-20T08:17:04.592Z</time>
      </trkpt>
      <trkpt lat="47.44243" lon="6.91532">
        <ele>634</ele>
        <time>2014-04-20T08:17:09.533Z</time>
      </trkpt>
      <trkpt lat="47.44226" lon="6.9154">
        <ele>635</ele>
        <time>2014-04-20T08:17:14.598Z</time>
      </trkpt>
      <trkpt lat="47.44211" lon="6.91542">
        <ele>635</ele>
        <time>2014-04-20T08:17:19.527Z</time>
      </trkpt>
      <trkpt lat="47.44197" lon="6.91546">
        <ele>635</ele>
        <time>2014-04-20T08:17:24.601Z</time>
      </trkpt>
      <trkpt lat="47.44185" lon="6.9155">
        <ele>636</ele>
        <time>2014-04-20T08:17:29.529Z</time>
      </trkpt>
      <trkpt lat="47.44175" lon="6.91552">
        <ele>637</ele>
        <time>2014-04-20T08:17:34.598Z</time>
      </trkpt>
      <trkpt lat="47.44165" lon="6.91553">
        <ele>637</ele>
        <time>2014-04-20T08:17:39.527Z</time>
      </trkpt>
      <trkpt lat="47.44154" lon="6.91555">
        <ele>638</ele>
        <time>2014-04-20T08:17:44.596Z</time>
      </trkpt>
      <trkpt lat="47.44144" lon="6.91557">
        <ele>639</ele>
        <time>2014-04-20T08:17:49.525Z</time>
      </trkpt>
      <trkpt lat="47.44134" lon="6.91559">
        <ele>639</ele>
        <time>2014-04-20T08:17:54.605Z</time>
      </trkpt>
      <trkpt lat="47.44124" lon="6.91559">
        <ele>640</ele>
        <time>2014-04-20T08:17:59.525Z</time>
      </trkpt>
      <trkpt lat="47.44114" lon="6.91561">
        <ele>642</ele>
        <time>2014-04-20T08:18:04.593Z</time>
      </trkpt>
      <trkpt lat="47.44105" lon="6.91561">
        <ele>643</ele>
        <time>2014-04-20T08:18:09.527Z</time>
      </trkpt>
      <trkpt lat="47.44096" lon="6.91562">
        <ele>643</ele>
        <time>2014-04-20T08:18:14.598Z</time>
      </trkpt>
      <trkpt lat="47.44089" lon="6.91563">
        <ele>645</ele>
        <time>2014-04-20T08:18:19.525Z</time>
      </trkpt>
      <trkpt lat="47.44082" lon="6.91565">
        <ele>648</ele>
        <time>2014-04-20T08:18:24.586Z</time>
      </trkpt>
      <trkpt lat="47.44075" lon="6.91566">
        <ele>649</ele>
        <time>2014-04-20T08:18:29.532Z</time>
      </trkpt>
      <trkpt lat="47.44067" lon="6.91568">
        <ele>651</ele>
        <time>2014-04-20T08:18:34.601Z</time>
      </trkpt>
      <trkpt lat="47.44059" lon="6.91569">
        <ele>651</ele>
        <time>2014-04-20T08:18:39.535Z</time>
      </trkpt>
      <trkpt lat="47.4405" lon="6.91569">
        <ele>652</ele>
        <time>2014-04-20T08:18:44.579Z</time>
      </trkpt>
      <trkpt lat="47.44043" lon="6.91567">
        <ele>651</ele>
        <time>2014-04-20T08:18:49.531Z</time>
      </trkpt>
      <trkpt lat="47.44035" lon="6.91566">
        <ele>652</ele>
        <time>2014-04-20T08:18:54.599Z</time>
      </trkpt>
      <trkpt lat="47.44027" lon="6.91566">
        <ele>652</ele>
        <time>2014-04-20T08:18:59.540Z</time>
      </trkpt>
      <trkpt lat="47.44019" lon="6.91569">
        <ele>653</ele>
        <time>2014-04-20T08:19:04.601Z</time>
      </trkpt>
      <trkpt lat="47.4401" lon="6.91572">
        <ele>654</ele>
        <time>2014-04-20T08:19:09.533Z</time>
      </trkpt>
      <trkpt lat="47.44001" lon="6.91574">
        <ele>655</ele>
        <time>2014-04-20T08:19:14.599Z</time>
      </trkpt>
      <trkpt lat="47.43991" lon="6.91577">
        <ele>656</ele>
        <time>2014-04-20T08:19:19.533Z</time>
      </trkpt>
      <trkpt lat="47.43981" lon="6.91578">
        <ele>656</ele>
        <time>2014-04-20T08:19:24.598Z</time>
      </trkpt>
      <trkpt lat="47.43972" lon="6.91579">
        <ele>657</ele>
        <time>2014-04-20T08:19:29.540Z</time>
      </trkpt>
      <trkpt lat="47.43963" lon="6.9158">
        <ele>658</ele>
        <time>2014-04-20T08:19:34.599Z</time>
      </trkpt>
      <trkpt lat="47.43953" lon="6.91582">
        <ele>658</ele>
        <time>2014-04-20T08:19:39.541Z</time>
      </trkpt>
      <trkpt lat="47.43942" lon="6.91584">
        <ele>658</ele>
        <time>2014-04-20T08:19:44.541Z</time>
      </trkpt>
      <trkpt lat="47.43929" lon="6.91584">
        <ele>658</ele>
        <time>2014-04-20T08:19:49.594Z</time>
      </trkpt>
      <trkpt lat="47.43919" lon="6.91582">
        <ele>658</ele>
        <time>2014-04-20T08:19:54.522Z</time>
      </trkpt>
      <trkpt lat="47.43909" lon="6.9158">
        <ele>659</ele>
        <time>2014-04-20T08:19:59.585Z</time>
      </trkpt>
      <trkpt lat="47.43897" lon="6.91576">
        <ele>659</ele>
        <time>2014-04-20T08:20:04.492Z</time>
      </trkpt>
      <trkpt lat="47.43882" lon="6.91571">
        <ele>658</ele>
        <time>2014-04-20T08:20:09.582Z</time>
      </trkpt>
      <trkpt lat="47.43868" lon="6.91564">
        <ele>658</ele>
        <time>2014-04-20T08:20:14.514Z</time>
      </trkpt>
      <trkpt lat="47.43852" lon="6.91557">
        <ele>658</ele>
        <time>2014-04-20T08:20:19.582Z</time>
      </trkpt>
      <trkpt lat="47.43835" lon="6.9155">
        <ele>658</ele>
        <time>2014-04-20T08:20:24.532Z</time>
      </trkpt>
      <trkpt lat="47.43815" lon="6.91545">
        <ele>657</ele>
        <time>2014-04-20T08:20:29.707Z</time>
      </trkpt>
      <trkpt lat="47.43797" lon="6.91537">
        <ele>656</ele>
        <time>2014-04-20T08:20:34.526Z</time>
      </trkpt>
      <trkpt lat="47.4378" lon="6.91532">
        <ele>655</ele>
        <time>2014-04-20T08:20:39.593Z</time>
      </trkpt>
      <trkpt lat="47.43761" lon="6.91526">
        <ele>655</ele>
        <time>2014-04-20T08:20:44.524Z</time>
      </trkpt>
      <trkpt lat="47.43737" lon="6.91518">
        <ele>654</ele>
        <time>2014-04-20T08:20:49.602Z</time>
      </trkpt>
      <trkpt lat="47.43708" lon="6.91509">
        <ele>653</ele>
        <time>2014-04-20T08:20:54.525Z</time>
      </trkpt>
      <trkpt lat="47.43685" lon="6.91501">
        <ele>652</ele>
        <time>2014-04-20T08:20:59.574Z</time>
      </trkpt>
      <trkpt lat="47.43662" lon="6.91495">
        <ele>651</ele>
        <time>2014-04-20T08:21:04.592Z</time>
      </trkpt>
      <trkpt lat="47.43609" lon="6.91463">
        <ele>648</ele>
        <time>2014-04-20T08:21:14.523Z</time>
      </trkpt>
      <trkpt lat="47.43577" lon="6.91445">
        <ele>645</ele>
        <time>2014-04-20T08:21:19.583Z</time>
      </trkpt>
      <trkpt lat="47.43543" lon="6.91428">
        <ele>642</ele>
        <time>2014-04-20T08:21:24.530Z</time>
      </trkpt>
      <trkpt lat="47.43508" lon="6.91423">
        <ele>640</ele>
        <time>2014-04-20T08:21:29.595Z</time>
      </trkpt>
      <trkpt lat="47.43474" lon="6.91417">
        <ele>638</ele>
        <time>2014-04-20T08:21:34.527Z</time>
      </trkpt>
      <trkpt lat="47.43441" lon="6.91407">
        <ele>634</ele>
        <time>2014-04-20T08:21:39.600Z</time>
      </trkpt>
      <trkpt lat="47.43413" lon="6.91411">
        <ele>632</ele>
        <time>2014-04-20T08:21:44.861Z</time>
      </trkpt>
      <trkpt lat="47.43411" lon="6.91456">
        <ele>632</ele>
        <time>2014-04-20T08:21:49.600Z</time>
      </trkpt>
      <trkpt lat="47.43409" lon="6.91502">
        <ele>632</ele>
        <time>2014-04-20T08:21:54.527Z</time>
      </trkpt>
      <trkpt lat="47.43398" lon="6.91534">
        <ele>633</ele>
        <time>2014-04-20T08:21:59.596Z</time>
      </trkpt>
      <trkpt lat="47.43291" lon="6.91498">
        <ele>629</ele>
        <time>2014-04-20T08:22:19.574Z</time>
      </trkpt>
      <trkpt lat="47.43284" lon="6.91524">
        <ele>626</ele>
        <time>2014-04-20T08:22:24.531Z</time>
      </trkpt>
      <trkpt lat="47.43275" lon="6.91548">
        <ele>627</ele>
        <time>2014-04-20T08:22:29.599Z</time>
      </trkpt>
      <trkpt lat="47.43267" lon="6.91574">
        <ele>627</ele>
        <time>2014-04-20T08:22:34.533Z</time>
      </trkpt>
      <trkpt lat="47.43259" lon="6.916">
        <ele>626</ele>
        <time>2014-04-20T08:22:39.596Z</time>
      </trkpt>
      <trkpt lat="47.43251" lon="6.91624">
        <ele>626</ele>
        <time>2014-04-20T08:22:44.522Z</time>
      </trkpt>
      <trkpt lat="47.43245" lon="6.91649">
        <ele>627</ele>
        <time>2014-04-20T08:22:49.566Z</time>
      </trkpt>
      <trkpt lat="47.43238" lon="6.91671">
        <ele>627</ele>
        <time>2014-04-20T08:22:54.524Z</time>
      </trkpt>
      <trkpt lat="47.43228" lon="6.91691">
        <ele>628</ele>
        <time>2014-04-20T08:22:59.608Z</time>
      </trkpt>
      <trkpt lat="47.43217" lon="6.91706">
        <ele>629</ele>
        <time>2014-04-20T08:23:04.527Z</time>
      </trkpt>
      <trkpt lat="47.43206" lon="6.91723">
        <ele>630</ele>
        <time>2014-04-20T08:23:09.579Z</time>
      </trkpt>
      <trkpt lat="47.43198" lon="6.91739">
        <ele>632</ele>
        <time>2014-04-20T08:23:14.530Z</time>
      </trkpt>
      <trkpt lat="47.43191" lon="6.91759">
        <ele>634</ele>
        <time>2014-04-20T08:23:19.602Z</time>
      </trkpt>
      <trkpt lat="47.43185" lon="6.91779">
        <ele>637</ele>
        <time>2014-04-20T08:23:24.523Z</time>
      </trkpt>
      <trkpt lat="47.43178" lon="6.918">
        <ele>637</ele>
        <time>2014-04-20T08:23:29.591Z</time>
      </trkpt>
      <trkpt lat="47.4317" lon="6.91818">
        <ele>638</ele>
        <time>2014-04-20T08:23:34.524Z</time>
      </trkpt>
      <trkpt lat="47.4316" lon="6.91835">
        <ele>639</ele>
        <time>2014-04-20T08:23:39.569Z</time>
      </trkpt>
      <trkpt lat="47.43148" lon="6.9185">
        <ele>639</ele>
        <time>2014-04-20T08:23:44.526Z</time>
      </trkpt>
      <trkpt lat="47.43135" lon="6.91854">
        <ele>637</ele>
        <time>2014-04-20T08:23:49.596Z</time>
      </trkpt>
      <trkpt lat="47.43117" lon="6.91849">
        <ele>636</ele>
        <time>2014-04-20T08:23:54.490Z</time>
      </trkpt>
      <trkpt lat="47.43098" lon="6.91844">
        <ele>636</ele>
        <time>2014-04-20T08:23:59.606Z</time>
      </trkpt>
      <trkpt lat="47.43076" lon="6.9183">
        <ele>634</ele>
        <time>2014-04-20T08:24:04.533Z</time>
      </trkpt>
      <trkpt lat="47.43049" lon="6.91817">
        <ele>633</ele>
        <time>2014-04-20T08:24:09.597Z</time>
      </trkpt>
      <trkpt lat="47.43022" lon="6.91804">
        <ele>632</ele>
        <time>2014-04-20T08:24:14.532Z</time>
      </trkpt>
      <trkpt lat="47.42995" lon="6.91793">
        <ele>631</ele>
        <time>2014-04-20T08:24:19.606Z</time>
      </trkpt>
      <trkpt lat="47.42968" lon="6.91781">
        <ele>629</ele>
        <time>2014-04-20T08:24:24.528Z</time>
      </trkpt>
      <trkpt lat="47.42942" lon="6.91769">
        <ele>629</ele>
        <time>2014-04-20T08:24:29.564Z</time>
      </trkpt>
      <trkpt lat="47.42917" lon="6.91755">
        <ele>628</ele>
        <time>2014-04-20T08:24:34.515Z</time>
      </trkpt>
      <trkpt lat="47.4289" lon="6.91742">
        <ele>628</ele>
        <time>2014-04-20T08:24:39.595Z</time>
      </trkpt>
      <trkpt lat="47.42865" lon="6.91729">
        <ele>628</ele>
        <time>2014-04-20T08:24:44.526Z</time>
      </trkpt>
      <trkpt lat="47.42839" lon="6.91716">
        <ele>627</ele>
        <time>2014-04-20T08:24:49.591Z</time>
      </trkpt>
      <trkpt lat="47.42811" lon="6.91704">
        <ele>626</ele>
        <time>2014-04-20T08:24:54.534Z</time>
      </trkpt>
      <trkpt lat="47.42668" lon="6.91673">
        <ele>627</ele>
        <time>2014-04-20T08:25:24.596Z</time>
      </trkpt>
      <trkpt lat="47.42646" lon="6.91666">
        <ele>628</ele>
        <time>2014-04-20T08:25:29.538Z</time>
      </trkpt>
      <trkpt lat="47.42628" lon="6.91661">
        <ele>628</ele>
        <time>2014-04-20T08:25:34.595Z</time>
      </trkpt>
      <trkpt lat="47.42612" lon="6.91657">
        <ele>628</ele>
        <time>2014-04-20T08:25:39.536Z</time>
      </trkpt>
      <trkpt lat="47.42593" lon="6.91652">
        <ele>629</ele>
        <time>2014-04-20T08:25:44.596Z</time>
      </trkpt>
      <trkpt lat="47.42575" lon="6.91647">
        <ele>629</ele>
        <time>2014-04-20T08:25:49.530Z</time>
      </trkpt>
      <trkpt lat="47.42558" lon="6.91645">
        <ele>629</ele>
        <time>2014-04-20T08:25:54.608Z</time>
      </trkpt>
      <trkpt lat="47.42541" lon="6.91642">
        <ele>629</ele>
        <time>2014-04-20T08:25:59.528Z</time>
      </trkpt>
      <trkpt lat="47.42523" lon="6.91641">
        <ele>629</ele>
        <time>2014-04-20T08:26:04.598Z</time>
      </trkpt>
      <trkpt lat="47.42503" lon="6.91639">
        <ele>629</ele>
        <time>2014-04-20T08:26:09.533Z</time>
      </trkpt>
      <trkpt lat="47.42479" lon="6.91637">
        <ele>628</ele>
        <time>2014-04-20T08:26:14.598Z</time>
      </trkpt>
      <trkpt lat="47.42455" lon="6.91637">
        <ele>627</ele>
        <time>2014-04-20T08:26:19.530Z</time>
      </trkpt>
      <trkpt lat="47.42432" lon="6.91637">
        <ele>627</ele>
        <time>2014-04-20T08:26:24.599Z</time>
      </trkpt>
      <trkpt lat="47.4241" lon="6.91638">
        <ele>627</ele>
        <time>2014-04-20T08:26:29.529Z</time>
      </trkpt>
      <trkpt lat="47.42388" lon="6.91641">
        <ele>628</ele>
        <time>2014-04-20T08:26:34.599Z</time>
      </trkpt>
      <trkpt lat="47.42369" lon="6.91647">
        <ele>629</ele>
        <time>2014-04-20T08:26:39.539Z</time>
      </trkpt>
      <trkpt lat="47.4235" lon="6.91655">
        <ele>630</ele>
        <time>2014-04-20T08:26:44.604Z</time>
      </trkpt>
      <trkpt lat="47.42332" lon="6.91659">
        <ele>630</ele>
        <time>2014-04-20T08:26:49.529Z</time>
      </trkpt>
      <trkpt lat="47.42311" lon="6.91661">
        <ele>630</ele>
        <time>2014-04-20T08:26:54.597Z</time>
      </trkpt>
      <trkpt lat="47.42289" lon="6.9166">
        <ele>630</ele>
        <time>2014-04-20T08:26:59.533Z</time>
      </trkpt>
      <trkpt lat="47.42263" lon="6.91661">
        <ele>630</ele>
        <time>2014-04-20T08:27:04.599Z</time>
      </trkpt>
      <trkpt lat="47.42234" lon="6.9166">
        <ele>630</ele>
        <time>2014-04-20T08:27:09.621Z</time>
      </trkpt>
      <trkpt lat="47.42202" lon="6.91659">
        <ele>629</ele>
        <time>2014-04-20T08:27:14.598Z</time>
      </trkpt>
      <trkpt lat="47.42171" lon="6.91658">
        <ele>627</ele>
        <time>2014-04-20T08:27:19.539Z</time>
      </trkpt>
      <trkpt lat="47.42138" lon="6.91658">
        <ele>626</ele>
        <time>2014-04-20T08:27:24.594Z</time>
      </trkpt>
      <trkpt lat="47.42104" lon="6.91656">
        <ele>625</ele>
        <time>2014-04-20T08:27:29.528Z</time>
      </trkpt>
      <trkpt lat="47.42065" lon="6.91653">
        <ele>624</ele>
        <time>2014-04-20T08:27:34.599Z</time>
      </trkpt>
      <trkpt lat="47.42029" lon="6.91651">
        <ele>622</ele>
        <time>2014-04-20T08:27:39.533Z</time>
      </trkpt>
      <trkpt lat="47.41994" lon="6.91654">
        <ele>621</ele>
        <time>2014-04-20T08:27:44.598Z</time>
      </trkpt>
      <trkpt lat="47.41957" lon="6.91654">
        <ele>618</ele>
        <time>2014-04-20T08:27:49.534Z</time>
      </trkpt>
      <trkpt lat="47.41923" lon="6.91654">
        <ele>618</ele>
        <time>2014-04-20T08:27:54.589Z</time>
      </trkpt>
      <trkpt lat="47.4189" lon="6.91658">
        <ele>619</ele>
        <time>2014-04-20T08:27:59.528Z</time>
      </trkpt>
      <trkpt lat="47.41866" lon="6.91664">
        <ele>620</ele>
        <time>2014-04-20T08:28:04.602Z</time>
      </trkpt>
      <trkpt lat="47.41861" lon="6.91666">
        <ele>622</ele>
        <time>2014-04-20T08:28:09.539Z</time>
      </trkpt>
      <trkpt lat="47.41861" lon="6.91666">
        <ele>622</ele>
        <time>2014-04-20T08:28:14.598Z</time>
      </trkpt>
      <trkpt lat="47.41862" lon="6.91666">
        <ele>623</ele>
        <time>2014-04-20T08:28:19.529Z</time>
      </trkpt>
      <trkpt lat="47.41862" lon="6.91666">
        <ele>622</ele>
        <time>2014-04-20T08:28:24.598Z</time>
      </trkpt>
      <trkpt lat="47.4186" lon="6.91666">
        <ele>621</ele>
        <time>2014-04-20T08:28:29.526Z</time>
      </trkpt>
      <trkpt lat="47.4186" lon="6.91666">
        <ele>621</ele>
        <time>2014-04-20T08:28:34.577Z</time>
      </trkpt>
      <trkpt lat="47.41857" lon="6.91666">
        <ele>623</ele>
        <time>2014-04-20T08:28:39.538Z</time>
      </trkpt>
      <trkpt lat="47.41838" lon="6.91676">
        <ele>622</ele>
        <time>2014-04-20T08:28:44.598Z</time>
      </trkpt>
      <trkpt lat="47.41809" lon="6.91655">
        <ele>619</ele>
        <time>2014-04-20T08:28:49.525Z</time>
      </trkpt>
      <trkpt lat="47.41776" lon="6.91629">
        <ele>614</ele>
        <time>2014-04-20T08:28:54.595Z</time>
      </trkpt>
      <trkpt lat="47.41742" lon="6.91603">
        <ele>609</ele>
        <time>2014-04-20T08:28:59.496Z</time>
      </trkpt>
      <trkpt lat="47.41715" lon="6.91562">
        <ele>605</ele>
        <time>2014-04-20T08:29:04.594Z</time>
      </trkpt>
      <trkpt lat="47.41699" lon="6.91544">
        <ele>600</ele>
        <time>2014-04-20T08:29:09.527Z</time>
      </trkpt>
      <trkpt lat="47.41682" lon="6.91537">
        <ele>596</ele>
        <time>2014-04-20T08:29:14.564Z</time>
      </trkpt>
      <trkpt lat="47.41661" lon="6.91523">
        <ele>591</ele>
        <time>2014-04-20T08:29:19.530Z</time>
      </trkpt>
      <trkpt lat="47.41641" lon="6.91509">
        <ele>587</ele>
        <time>2014-04-20T08:29:24.594Z</time>
      </trkpt>
      <trkpt lat="47.41615" lon="6.91492">
        <ele>583</ele>
        <time>2014-04-20T08:29:29.529Z</time>
      </trkpt>
      <trkpt lat="47.41587" lon="6.91475">
        <ele>579</ele>
        <time>2014-04-20T08:29:34.593Z</time>
      </trkpt>
      <trkpt lat="47.41564" lon="6.9145">
        <ele>576</ele>
        <time>2014-04-20T08:29:39.530Z</time>
      </trkpt>
      <trkpt lat="47.4154" lon="6.91421">
        <ele>572</ele>
        <time>2014-04-20T08:29:44.596Z</time>
      </trkpt>
      <trkpt lat="47.41514" lon="6.91395">
        <ele>567</ele>
        <time>2014-04-20T08:29:49.529Z</time>
      </trkpt>
      <trkpt lat="47.41483" lon="6.91374">
        <ele>564</ele>
        <time>2014-04-20T08:29:54.573Z</time>
      </trkpt>
      <trkpt lat="47.41455" lon="6.91361">
        <ele>563</ele>
        <time>2014-04-20T08:29:59.533Z</time>
      </trkpt>
      <trkpt lat="47.41452" lon="6.91365">
        <ele>565</ele>
        <time>2014-04-20T08:30:04.596Z</time>
      </trkpt>
      <trkpt lat="47.41428" lon="6.91355">
        <ele>560</ele>
        <time>2014-04-20T08:30:09.539Z</time>
      </trkpt>
      <trkpt lat="47.41374" lon="6.91339">
        <ele>549</ele>
        <time>2014-04-20T08:30:19.491Z</time>
      </trkpt>
      <trkpt lat="47.41348" lon="6.9132">
        <ele>544</ele>
        <time>2014-04-20T08:30:24.596Z</time>
      </trkpt>
      <trkpt lat="47.41315" lon="6.913">
        <ele>538</ele>
        <time>2014-04-20T08:30:29.525Z</time>
      </trkpt>
      <trkpt lat="47.41275" lon="6.9128">
        <ele>535</ele>
        <time>2014-04-20T08:30:34.592Z</time>
      </trkpt>
      <trkpt lat="47.41238" lon="6.91279">
        <ele>530</ele>
        <time>2014-04-20T08:30:39.523Z</time>
      </trkpt>
      <trkpt lat="47.41232" lon="6.91276">
        <ele>529</ele>
        <time>2014-04-20T08:30:44.588Z</time>
      </trkpt>
      <trkpt lat="47.41232" lon="6.91277">
        <ele>529</ele>
        <time>2014-04-20T08:30:49.525Z</time>
      </trkpt>
      <trkpt lat="47.41229" lon="6.91275">
        <ele>529</ele>
        <time>2014-04-20T08:30:54.599Z</time>
      </trkpt>
      <trkpt lat="47.41209" lon="6.91273">
        <ele>525</ele>
        <time>2014-04-20T08:30:59.533Z</time>
      </trkpt>
      <trkpt lat="47.41188" lon="6.9126">
        <ele>520</ele>
        <time>2014-04-20T08:31:04.522Z</time>
      </trkpt>
      <trkpt lat="47.41178" lon="6.91257">
        <ele>516</ele>
        <time>2014-04-20T08:31:09.593Z</time>
      </trkpt>
      <trkpt lat="47.41165" lon="6.9126">
        <ele>509</ele>
        <time>2014-04-20T08:31:14.528Z</time>
      </trkpt>
      <trkpt lat="47.41158" lon="6.91258">
        <ele>509</ele>
        <time>2014-04-20T08:31:19.596Z</time>
      </trkpt>
      <trkpt lat="47.41158" lon="6.91257">
        <ele>509</ele>
        <time>2014-04-20T08:31:24.523Z</time>
      </trkpt>
      <trkpt lat="47.41158" lon="6.91257">
        <ele>509</ele>
        <time>2014-04-20T08:31:29.599Z</time>
      </trkpt>
      <trkpt lat="47.41158" lon="6.91257">
        <ele>509</ele>
        <time>2014-04-20T08:31:34.528Z</time>
      </trkpt>
      <trkpt lat="47.41159" lon="6.91252">
        <ele>509</ele>
        <time>2014-04-20T08:31:39.524Z</time>
      </trkpt>
      <trkpt lat="47.4116" lon="6.91251">
        <ele>509</ele>
        <time>2014-04-20T08:31:44.591Z</time>
      </trkpt>
      <trkpt lat="47.4116" lon="6.9125">
        <ele>509</ele>
        <time>2014-04-20T08:31:49.524Z</time>
      </trkpt>
      <trkpt lat="47.41159" lon="6.91249">
        <ele>508</ele>
        <time>2014-04-20T08:31:54.595Z</time>
      </trkpt>
      <trkpt lat="47.41159" lon="6.91247">
        <ele>508</ele>
        <time>2014-04-20T08:31:59.525Z</time>
      </trkpt>
      <trkpt lat="47.41159" lon="6.91246">
        <ele>508</ele>
        <time>2014-04-20T08:32:04.543Z</time>
      </trkpt>
      <trkpt lat="47.41154" lon="6.91251">
        <ele>507</ele>
        <time>2014-04-20T08:32:09.536Z</time>
      </trkpt>
      <trkpt lat="47.41147" lon="6.91254">
        <ele>508</ele>
        <time>2014-04-20T08:32:14.593Z</time>
      </trkpt>
      <trkpt lat="47.4114" lon="6.91258">
        <ele>507</ele>
        <time>2014-04-20T08:32:19.538Z</time>
      </trkpt>
      <trkpt lat="47.41133" lon="6.91261">
        <ele>507</ele>
        <time>2014-04-20T08:32:24.595Z</time>
      </trkpt>
      <trkpt lat="47.4113" lon="6.9126">
        <ele>507</ele>
        <time>2014-04-20T08:32:29.524Z</time>
      </trkpt>
      <trkpt lat="47.41124" lon="6.91259">
        <ele>507</ele>
        <time>2014-04-20T08:32:34.595Z</time>
      </trkpt>
      <trkpt lat="47.4111" lon="6.91257">
        <ele>507</ele>
        <time>2014-04-20T08:32:39.531Z</time>
      </trkpt>
      <trkpt lat="47.41092" lon="6.91252">
        <ele>507</ele>
        <time>2014-04-20T08:32:44.592Z</time>
      </trkpt>
      <trkpt lat="47.41074" lon="6.91246">
        <ele>508</ele>
        <time>2014-04-20T08:32:49.535Z</time>
      </trkpt>
      <trkpt lat="47.41062" lon="6.9124">
        <ele>509</ele>
        <time>2014-04-20T08:32:54.601Z</time>
      </trkpt>
      <trkpt lat="47.41052" lon="6.91233">
        <ele>511</ele>
        <time>2014-04-20T08:32:59.524Z</time>
      </trkpt>
      <trkpt lat="47.41046" lon="6.9123">
        <ele>513</ele>
        <time>2014-04-20T08:33:04.598Z</time>
      </trkpt>
      <trkpt lat="47.41037" lon="6.91222">
        <ele>512</ele>
        <time>2014-04-20T08:33:09.522Z</time>
      </trkpt>
      <trkpt lat="47.41025" lon="6.91219">
        <ele>512</ele>
        <time>2014-04-20T08:33:14.598Z</time>
      </trkpt>
      <trkpt lat="47.41011" lon="6.91213">
        <ele>512</ele>
        <time>2014-04-20T08:33:19.522Z</time>
      </trkpt>
      <trkpt lat="47.40995" lon="6.91205">
        <ele>513</ele>
        <time>2014-04-20T08:33:24.652Z</time>
      </trkpt>
      <trkpt lat="47.40981" lon="6.91202">
        <ele>512</ele>
        <time>2014-04-20T08:33:29.598Z</time>
      </trkpt>
      <trkpt lat="47.40969" lon="6.91202">
        <ele>511</ele>
        <time>2014-04-20T08:33:34.524Z</time>
      </trkpt>
      <trkpt lat="47.40957" lon="6.912">
        <ele>512</ele>
        <time>2014-04-20T08:33:39.598Z</time>
      </trkpt>
      <trkpt lat="47.40944" lon="6.91202">
        <ele>511</ele>
        <time>2014-04-20T08:33:44.526Z</time>
      </trkpt>
      <trkpt lat="47.40928" lon="6.91202">
        <ele>512</ele>
        <time>2014-04-20T08:33:49.597Z</time>
      </trkpt>
      <trkpt lat="47.40909" lon="6.912">
        <ele>512</ele>
        <time>2014-04-20T08:33:54.530Z</time>
      </trkpt>
      <trkpt lat="47.40894" lon="6.91194">
        <ele>512</ele>
        <time>2014-04-20T08:33:59.594Z</time>
      </trkpt>
      <trkpt lat="47.40874" lon="6.91196">
        <ele>511</ele>
        <time>2014-04-20T08:34:04.523Z</time>
      </trkpt>
      <trkpt lat="47.40851" lon="6.91203">
        <ele>507</ele>
        <time>2014-04-20T08:34:09.582Z</time>
      </trkpt>
      <trkpt lat="47.40832" lon="6.91217">
        <ele>504</ele>
        <time>2014-04-20T08:34:14.525Z</time>
      </trkpt>
      <trkpt lat="47.40813" lon="6.9123">
        <ele>502</ele>
        <time>2014-04-20T08:34:19.588Z</time>
      </trkpt>
      <trkpt lat="47.40802" lon="6.91243">
        <ele>499</ele>
        <time>2014-04-20T08:34:24.517Z</time>
      </trkpt>
      <trkpt lat="47.40786" lon="6.91256">
        <ele>499</ele>
        <time>2014-04-20T08:34:29.516Z</time>
      </trkpt>
      <trkpt lat="47.40778" lon="6.91258">
        <ele>498</ele>
        <time>2014-04-20T08:34:34.596Z</time>
      </trkpt>
      <trkpt lat="47.40778" lon="6.91257">
        <ele>498</ele>
        <time>2014-04-20T08:34:39.524Z</time>
      </trkpt>
      <trkpt lat="47.40778" lon="6.91257">
        <ele>498</ele>
        <time>2014-04-20T08:34:44.570Z</time>
      </trkpt>
      <trkpt lat="47.40778" lon="6.91257">
        <ele>498</ele>
        <time>2014-04-20T08:34:49.521Z</time>
      </trkpt>
      <trkpt lat="47.40777" lon="6.91259">
        <ele>497</ele>
        <time>2014-04-20T08:34:54.598Z</time>
      </trkpt>
      <trkpt lat="47.40777" lon="6.91259">
        <ele>497</ele>
        <time>2014-04-20T08:34:59.530Z</time>
      </trkpt>
      <trkpt lat="47.40777" lon="6.91259">
        <ele>497</ele>
        <time>2014-04-20T08:35:04.602Z</time>
      </trkpt>
      <trkpt lat="47.40777" lon="6.91259">
        <ele>497</ele>
        <time>2014-04-20T08:35:09.525Z</time>
      </trkpt>
      <trkpt lat="47.40777" lon="6.91259">
        <ele>497</ele>
        <time>2014-04-20T08:35:14.601Z</time>
      </trkpt>
      <trkpt lat="47.40777" lon="6.91259">
        <ele>497</ele>
        <time>2014-04-20T08:35:19.526Z</time>
      </trkpt>
      <trkpt lat="47.40777" lon="6.91258">
        <ele>497</ele>
        <time>2014-04-20T08:35:24.605Z</time>
      </trkpt>
      <trkpt lat="47.40777" lon="6.91258">
        <ele>497</ele>
        <time>2014-04-20T08:35:29.537Z</time>
      </trkpt>
      <trkpt lat="47.40777" lon="6.91259">
        <ele>497</ele>
        <time>2014-04-20T08:35:34.596Z</time>
      </trkpt>
      <trkpt lat="47.40777" lon="6.91259">
        <ele>497</ele>
        <time>2014-04-20T08:35:39.522Z</time>
      </trkpt>
      <trkpt lat="47.40776" lon="6.9126">
        <ele>496</ele>
        <time>2014-04-20T08:35:44.599Z</time>
      </trkpt>
      <trkpt lat="47.40776" lon="6.9126">
        <ele>496</ele>
        <time>2014-04-20T08:35:49.530Z</time>
      </trkpt>
      <trkpt lat="47.40776" lon="6.91261">
        <ele>496</ele>
        <time>2014-04-20T08:35:54.600Z</time>
      </trkpt>
      <trkpt lat="47.40776" lon="6.91261">
        <ele>496</ele>
        <time>2014-04-20T08:35:59.530Z</time>
      </trkpt>
      <trkpt lat="47.40776" lon="6.9126">
        <ele>496</ele>
        <time>2014-04-20T08:36:04.595Z</time>
      </trkpt>
      <trkpt lat="47.40779" lon="6.91253">
        <ele>496</ele>
        <time>2014-04-20T08:36:09.522Z</time>
      </trkpt>
      <trkpt lat="47.4078" lon="6.91266">
        <ele>496</ele>
        <time>2014-04-20T08:36:14.597Z</time>
      </trkpt>
      <trkpt lat="47.40775" lon="6.91284">
        <ele>497</ele>
        <time>2014-04-20T08:36:19.525Z</time>
      </trkpt>
      <trkpt lat="47.40773" lon="6.91312">
        <ele>498</ele>
        <time>2014-04-20T08:36:24.573Z</time>
      </trkpt>
      <trkpt lat="47.40772" lon="6.91337">
        <ele>499</ele>
        <time>2014-04-20T08:36:29.526Z</time>
      </trkpt>
      <trkpt lat="47.40769" lon="6.91364">
        <ele>500</ele>
        <time>2014-04-20T08:36:34.596Z</time>
      </trkpt>
      <trkpt lat="47.40767" lon="6.91396">
        <ele>501</ele>
        <time>2014-04-20T08:36:39.529Z</time>
      </trkpt>
      <trkpt lat="47.4077" lon="6.91425">
        <ele>501</ele>
        <time>2014-04-20T08:36:44.595Z</time>
      </trkpt>
      <trkpt lat="47.40773" lon="6.9145">
        <ele>500</ele>
        <time>2014-04-20T08:36:49.523Z</time>
      </trkpt>
      <trkpt lat="47.40779" lon="6.9148">
        <ele>498</ele>
        <time>2014-04-20T08:36:54.594Z</time>
      </trkpt>
      <trkpt lat="47.40785" lon="6.91497">
        <ele>499</ele>
        <time>2014-04-20T08:36:59.518Z</time>
      </trkpt>
      <trkpt lat="47.40779" lon="6.91507">
        <ele>499</ele>
        <time>2014-04-20T08:37:04.597Z</time>
      </trkpt>
      <trkpt lat="47.4076" lon="6.91521">
        <ele>498</ele>
        <time>2014-04-20T08:37:09.519Z</time>
      </trkpt>
      <trkpt lat="47.40741" lon="6.9154">
        <ele>498</ele>
        <time>2014-04-20T08:37:14.596Z</time>
      </trkpt>
      <trkpt lat="47.40738" lon="6.91551">
        <ele>497</ele>
        <time>2014-04-20T08:37:19.512Z</time>
      </trkpt>
      <trkpt lat="47.40735" lon="6.91558">
        <ele>496</ele>
        <time>2014-04-20T08:37:24.582Z</time>
      </trkpt>
      <trkpt lat="47.40732" lon="6.91564">
        <ele>496</ele>
        <time>2014-04-20T08:37:29.520Z</time>
      </trkpt>
      <trkpt lat="47.40728" lon="6.91586">
        <ele>494</ele>
        <time>2014-04-20T08:37:39.517Z</time>
      </trkpt>
      <trkpt lat="47.40728" lon="6.9159">
        <ele>495</ele>
        <time>2014-04-20T08:37:44.596Z</time>
      </trkpt>
      <trkpt lat="47.40728" lon="6.91589">
        <ele>495</ele>
        <time>2014-04-20T08:37:49.525Z</time>
      </trkpt>
      <trkpt lat="47.40728" lon="6.91589">
        <ele>495</ele>
        <time>2014-04-20T08:37:54.563Z</time>
      </trkpt>
      <trkpt lat="47.40728" lon="6.91589">
        <ele>495</ele>
        <time>2014-04-20T08:37:59.526Z</time>
      </trkpt>
      <trkpt lat="47.40728" lon="6.91589">
        <ele>495</ele>
        <time>2014-04-20T08:38:04.595Z</time>
      </trkpt>
      <trkpt lat="47.40728" lon="6.91589">
        <ele>495</ele>
        <time>2014-04-20T08:38:09.529Z</time>
      </trkpt>
      <trkpt lat="47.40729" lon="6.91589">
        <ele>495</ele>
        <time>2014-04-20T08:38:14.591Z</time>
      </trkpt>
      <trkpt lat="47.40729" lon="6.91589">
        <ele>495</ele>
        <time>2014-04-20T08:38:19.516Z</time>
      </trkpt>
      <trkpt lat="47.40729" lon="6.91589">
        <ele>495</ele>
        <time>2014-04-20T08:38:24.549Z</time>
      </trkpt>
      <trkpt lat="47.40729" lon="6.91589">
        <ele>495</ele>
        <time>2014-04-20T08:38:29.513Z</time>
      </trkpt>
      <trkpt lat="47.40729" lon="6.91589">
        <ele>495</ele>
        <time>2014-04-20T08:38:34.691Z</time>
      </trkpt>
      <trkpt lat="47.40729" lon="6.91588">
        <ele>495</ele>
        <time>2014-04-20T08:38:39.591Z</time>
      </trkpt>
      <trkpt lat="47.4073" lon="6.91588">
        <ele>495</ele>
        <time>2014-04-20T08:38:44.517Z</time>
      </trkpt>
      <trkpt lat="47.4073" lon="6.9159">
        <ele>494</ele>
        <time>2014-04-20T08:38:49.600Z</time>
      </trkpt>
      <trkpt lat="47.40733" lon="6.91595">
        <ele>493</ele>
        <time>2014-04-20T08:38:54.524Z</time>
      </trkpt>
      <trkpt lat="47.40737" lon="6.91589">
        <ele>494</ele>
        <time>2014-04-20T08:38:59.585Z</time>
      </trkpt>
      <trkpt lat="47.40739" lon="6.9158">
        <ele>493</ele>
        <time>2014-04-20T08:39:04.516Z</time>
      </trkpt>
      <trkpt lat="47.40738" lon="6.9157">
        <ele>492</ele>
        <time>2014-04-20T08:39:09.593Z</time>
      </trkpt>
      <trkpt lat="47.40737" lon="6.91562">
        <ele>493</ele>
        <time>2014-04-20T08:39:14.523Z</time>
      </trkpt>
      <trkpt lat="47.40736" lon="6.91555">
        <ele>494</ele>
        <time>2014-04-20T08:39:19.598Z</time>
      </trkpt>
      <trkpt lat="47.4074" lon="6.9154">
        <ele>495</ele>
        <time>2014-04-20T08:39:24.706Z</time>
      </trkpt>
      <trkpt lat="47.40748" lon="6.91526">
        <ele>496</ele>
        <time>2014-04-20T08:39:29.567Z</time>
      </trkpt>
      <trkpt lat="47.40761" lon="6.91511">
        <ele>498</ele>
        <time>2014-04-20T08:39:34.525Z</time>
      </trkpt>
      <trkpt lat="47.40774" lon="6.915">
        <ele>498</ele>
        <time>2014-04-20T08:39:39.594Z</time>
      </trkpt>
      <trkpt lat="47.4078" lon="6.91483">
        <ele>496</ele>
        <time>2014-04-20T08:39:44.528Z</time>
      </trkpt>
      <trkpt lat="47.40769" lon="6.91463">
        <ele>496</ele>
        <time>2014-04-20T08:39:49.603Z</time>
      </trkpt>
      <trkpt lat="47.40763" lon="6.9144">
        <ele>495</ele>
        <time>2014-04-20T08:39:54.524Z</time>
      </trkpt>
      <trkpt lat="47.4076" lon="6.91415">
        <ele>495</ele>
        <time>2014-04-20T08:39:59.599Z</time>
      </trkpt>
      <trkpt lat="47.40762" lon="6.91379">
        <ele>495</ele>
        <time>2014-04-20T08:40:04.537Z</time>
      </trkpt>
      <trkpt lat="47.40767" lon="6.91343">
        <ele>495</ele>
        <time>2014-04-20T08:40:09.598Z</time>
      </trkpt>
      <trkpt lat="47.40771" lon="6.91313">
        <ele>494</ele>
        <time>2014-04-20T08:40:14.535Z</time>
      </trkpt>
      <trkpt lat="47.40774" lon="6.91287">
        <ele>494</ele>
        <time>2014-04-20T08:40:19.596Z</time>
      </trkpt>
      <trkpt lat="47.40774" lon="6.91261">
        <ele>492</ele>
        <time>2014-04-20T08:40:24.524Z</time>
      </trkpt>
      <trkpt lat="47.40768" lon="6.9123">
        <ele>491</ele>
        <time>2014-04-20T08:40:29.596Z</time>
      </trkpt>
      <trkpt lat="47.40762" lon="6.91189">
        <ele>490</ele>
        <time>2014-04-20T08:40:34.529Z</time>
      </trkpt>
      <trkpt lat="47.40755" lon="6.91144">
        <ele>489</ele>
        <time>2014-04-20T08:40:39.516Z</time>
      </trkpt>
      <trkpt lat="47.40749" lon="6.91107">
        <ele>489</ele>
        <time>2014-04-20T08:40:44.595Z</time>
      </trkpt>
      <trkpt lat="47.40741" lon="6.91076">
        <ele>489</ele>
        <time>2014-04-20T08:40:49.535Z</time>
      </trkpt>
      <trkpt lat="47.40725" lon="6.91056">
        <ele>490</ele>
        <time>2014-04-20T08:40:54.604Z</time>
      </trkpt>
      <trkpt lat="47.40706" lon="6.91042">
        <ele>490</ele>
        <time>2014-04-20T08:40:59.523Z</time>
      </trkpt>
      <trkpt lat="47.40686" lon="6.91024">
        <ele>491</ele>
        <time>2014-04-20T08:41:04.570Z</time>
      </trkpt>
      <trkpt lat="47.40668" lon="6.91005">
        <ele>491</ele>
        <time>2014-04-20T08:41:09.525Z</time>
      </trkpt>
      <trkpt lat="47.4065" lon="6.9098">
        <ele>492</ele>
        <time>2014-04-20T08:41:14.595Z</time>
      </trkpt>
      <trkpt lat="47.40632" lon="6.9096">
        <ele>494</ele>
        <time>2014-04-20T08:41:19.532Z</time>
      </trkpt>
      <trkpt lat="47.40613" lon="6.9094">
        <ele>496</ele>
        <time>2014-04-20T08:41:24.595Z</time>
      </trkpt>
      <trkpt lat="47.40596" lon="6.90923">
        <ele>496</ele>
        <time>2014-04-20T08:41:29.500Z</time>
      </trkpt>
      <trkpt lat="47.40577" lon="6.909">
        <ele>496</ele>
        <time>2014-04-20T08:41:34.592Z</time>
      </trkpt>
      <trkpt lat="47.40557" lon="6.90875">
        <ele>497</ele>
        <time>2014-04-20T08:41:39.526Z</time>
      </trkpt>
      <trkpt lat="47.40539" lon="6.90848">
        <ele>495</ele>
        <time>2014-04-20T08:41:44.580Z</time>
      </trkpt>
      <trkpt lat="47.40519" lon="6.9083">
        <ele>495</ele>
        <time>2014-04-20T08:41:49.531Z</time>
      </trkpt>
      <trkpt lat="47.40499" lon="6.90809">
        <ele>496</ele>
        <time>2014-04-20T08:41:54.593Z</time>
      </trkpt>
      <trkpt lat="47.4048" lon="6.90786">
        <ele>494</ele>
        <time>2014-04-20T08:41:59.509Z</time>
      </trkpt>
      <trkpt lat="47.4046" lon="6.90763">
        <ele>491</ele>
        <time>2014-04-20T08:42:04.529Z</time>
      </trkpt>
      <trkpt lat="47.40452" lon="6.90755">
        <ele>494</ele>
        <time>2014-04-20T08:42:09.587Z</time>
      </trkpt>
      <trkpt lat="47.40446" lon="6.90752">
        <ele>496</ele>
        <time>2014-04-20T08:42:14.528Z</time>
      </trkpt>
      <trkpt lat="47.40441" lon="6.9075">
        <ele>496</ele>
        <time>2014-04-20T08:42:19.598Z</time>
      </trkpt>
      <trkpt lat="47.40431" lon="6.90743">
        <ele>496</ele>
        <time>2014-04-20T08:42:24.534Z</time>
      </trkpt>
      <trkpt lat="47.4042" lon="6.9073">
        <ele>495</ele>
        <time>2014-04-20T08:42:29.601Z</time>
      </trkpt>
      <trkpt lat="47.40406" lon="6.90715">
        <ele>494</ele>
        <time>2014-04-20T08:42:34.700Z</time>
      </trkpt>
      <trkpt lat="47.40392" lon="6.90696">
        <ele>494</ele>
        <time>2014-04-20T08:42:39.521Z</time>
      </trkpt>
      <trkpt lat="47.40373" lon="6.9068">
        <ele>493</ele>
        <time>2014-04-20T08:42:44.625Z</time>
      </trkpt>
      <trkpt lat="47.40349" lon="6.90664">
        <ele>491</ele>
        <time>2014-04-20T08:42:49.665Z</time>
      </trkpt>
      <trkpt lat="47.40327" lon="6.90649">
        <ele>488</ele>
        <time>2014-04-20T08:42:54.628Z</time>
      </trkpt>
      <trkpt lat="47.40307" lon="6.90628">
        <ele>487</ele>
        <time>2014-04-20T08:42:59.697Z</time>
      </trkpt>
      <trkpt lat="47.40292" lon="6.90598">
        <ele>486</ele>
        <time>2014-04-20T08:43:04.632Z</time>
      </trkpt>
      <trkpt lat="47.40274" lon="6.9056">
        <ele>484</ele>
        <time>2014-04-20T08:43:09.694Z</time>
      </trkpt>
      <trkpt lat="47.40263" lon="6.90514">
        <ele>481</ele>
        <time>2014-04-20T08:43:14.626Z</time>
      </trkpt>
      <trkpt lat="47.40259" lon="6.90458">
        <ele>478</ele>
        <time>2014-04-20T08:43:19.700Z</time>
      </trkpt>
      <trkpt lat="47.40257" lon="6.90403">
        <ele>475</ele>
        <time>2014-04-20T08:43:24.631Z</time>
      </trkpt>
      <trkpt lat="47.40258" lon="6.90352">
        <ele>473</ele>
        <time>2014-04-20T08:43:29.705Z</time>
      </trkpt>
      <trkpt lat="47.4026" lon="6.90302">
        <ele>472</ele>
        <time>2014-04-20T08:43:34.600Z</time>
      </trkpt>
      <trkpt lat="47.40259" lon="6.90248">
        <ele>471</ele>
        <time>2014-04-20T08:43:39.697Z</time>
      </trkpt>
      <trkpt lat="47.40255" lon="6.90193">
        <ele>470</ele>
        <time>2014-04-20T08:43:44.632Z</time>
      </trkpt>
      <trkpt lat="47.40247" lon="6.90138">
        <ele>469</ele>
        <time>2014-04-20T08:43:49.689Z</time>
      </trkpt>
      <trkpt lat="47.40239" lon="6.90086">
        <ele>468</ele>
        <time>2014-04-20T08:43:54.624Z</time>
      </trkpt>
      <trkpt lat="47.4023" lon="6.90039">
        <ele>467</ele>
        <time>2014-04-20T08:43:59.698Z</time>
      </trkpt>
      <trkpt lat="47.40221" lon="6.89996">
        <ele>467</ele>
        <time>2014-04-20T08:44:04.624Z</time>
      </trkpt>
      <trkpt lat="47.40214" lon="6.89945">
        <ele>466</ele>
        <time>2014-04-20T08:44:09.697Z</time>
      </trkpt>
      <trkpt lat="47.4021" lon="6.89898">
        <ele>465</ele>
        <time>2014-04-20T08:44:14.633Z</time>
      </trkpt>
      <trkpt lat="47.40207" lon="6.89857">
        <ele>464</ele>
        <time>2014-04-20T08:44:19.701Z</time>
      </trkpt>
      <trkpt lat="47.40206" lon="6.89813">
        <ele>464</ele>
        <time>2014-04-20T08:44:24.630Z</time>
      </trkpt>
      <trkpt lat="47.4021" lon="6.89768">
        <ele>463</ele>
        <time>2014-04-20T08:44:29.693Z</time>
      </trkpt>
      <trkpt lat="47.40217" lon="6.89729">
        <ele>462</ele>
        <time>2014-04-20T08:44:34.635Z</time>
      </trkpt>
      <trkpt lat="47.40224" lon="6.89696">
        <ele>462</ele>
        <time>2014-04-20T08:44:39.677Z</time>
      </trkpt>
      <trkpt lat="47.4023" lon="6.89664">
        <ele>462</ele>
        <time>2014-04-20T08:44:44.628Z</time>
      </trkpt>
      <trkpt lat="47.40237" lon="6.89637">
        <ele>463</ele>
        <time>2014-04-20T08:44:49.701Z</time>
      </trkpt>
      <trkpt lat="47.40247" lon="6.89611">
        <ele>462</ele>
        <time>2014-04-20T08:44:54.628Z</time>
      </trkpt>
      <trkpt lat="47.40258" lon="6.89584">
        <ele>462</ele>
        <time>2014-04-20T08:44:59.693Z</time>
      </trkpt>
      <trkpt lat="47.4027" lon="6.89557">
        <ele>462</ele>
        <time>2014-04-20T08:45:04.632Z</time>
      </trkpt>
      <trkpt lat="47.4028" lon="6.8953">
        <ele>462</ele>
        <time>2014-04-20T08:45:09.695Z</time>
      </trkpt>
      <trkpt lat="47.4029" lon="6.89504">
        <ele>461</ele>
        <time>2014-04-20T08:45:14.632Z</time>
      </trkpt>
      <trkpt lat="47.40301" lon="6.89481">
        <ele>460</ele>
        <time>2014-04-20T08:45:19.699Z</time>
      </trkpt>
      <trkpt lat="47.40312" lon="6.89457">
        <ele>460</ele>
        <time>2014-04-20T08:45:24.627Z</time>
      </trkpt>
      <trkpt lat="47.40323" lon="6.89434">
        <ele>460</ele>
        <time>2014-04-20T08:45:29.784Z</time>
      </trkpt>
      <trkpt lat="47.40335" lon="6.8941">
        <ele>460</ele>
        <time>2014-04-20T08:45:34.631Z</time>
      </trkpt>
      <trkpt lat="47.40347" lon="6.89385">
        <ele>461</ele>
        <time>2014-04-20T08:45:39.635Z</time>
      </trkpt>
      <trkpt lat="47.4036" lon="6.8936">
        <ele>462</ele>
        <time>2014-04-20T08:45:44.700Z</time>
      </trkpt>
      <trkpt lat="47.40372" lon="6.89335">
        <ele>464</ele>
        <time>2014-04-20T08:45:49.626Z</time>
      </trkpt>
      <trkpt lat="47.40384" lon="6.89311">
        <ele>465</ele>
        <time>2014-04-20T08:45:54.698Z</time>
      </trkpt>
      <trkpt lat="47.40397" lon="6.89284">
        <ele>464</ele>
        <time>2014-04-20T08:45:59.624Z</time>
      </trkpt>
      <trkpt lat="47.40409" lon="6.89259">
        <ele>464</ele>
        <time>2014-04-20T08:46:04.690Z</time>
      </trkpt>
      <trkpt lat="47.40422" lon="6.89233">
        <ele>464</ele>
        <time>2014-04-20T08:46:09.627Z</time>
      </trkpt>
      <trkpt lat="47.40436" lon="6.89209">
        <ele>464</ele>
        <time>2014-04-20T08:46:14.691Z</time>
      </trkpt>
      <trkpt lat="47.40451" lon="6.8918">
        <ele>464</ele>
        <time>2014-04-20T08:46:19.617Z</time>
      </trkpt>
      <trkpt lat="47.40467" lon="6.89152">
        <ele>464</ele>
        <time>2014-04-20T08:46:24.694Z</time>
      </trkpt>
      <trkpt lat="47.40485" lon="6.89125">
        <ele>463</ele>
        <time>2014-04-20T08:46:29.622Z</time>
      </trkpt>
      <trkpt lat="47.40499" lon="6.89104">
        <ele>463</ele>
        <time>2014-04-20T08:46:34.688Z</time>
      </trkpt>
      <trkpt lat="47.40508" lon="6.89114">
        <ele>461</ele>
        <time>2014-04-20T08:46:39.631Z</time>
      </trkpt>
      <trkpt lat="47.40502" lon="6.89143">
        <ele>465</ele>
        <time>2014-04-20T08:46:49.634Z</time>
      </trkpt>
      <trkpt lat="47.40495" lon="6.89151">
        <ele>466</ele>
        <time>2014-04-20T08:46:54.691Z</time>
      </trkpt>
      <trkpt lat="47.40485" lon="6.89157">
        <ele>466</ele>
        <time>2014-04-20T08:46:59.612Z</time>
      </trkpt>
      <trkpt lat="47.40477" lon="6.89165">
        <ele>466</ele>
        <time>2014-04-20T08:47:04.676Z</time>
      </trkpt>
      <trkpt lat="47.40472" lon="6.89176">
        <ele>467</ele>
        <time>2014-04-20T08:47:09.623Z</time>
      </trkpt>
      <trkpt lat="47.40474" lon="6.89188">
        <ele>469</ele>
        <time>2014-04-20T08:47:14.683Z</time>
      </trkpt>
      <trkpt lat="47.40483" lon="6.89186">
        <ele>469</ele>
        <time>2014-04-20T08:47:19.631Z</time>
      </trkpt>
      <trkpt lat="47.4049" lon="6.89181">
        <ele>469</ele>
        <time>2014-04-20T08:47:24.682Z</time>
      </trkpt>
      <trkpt lat="47.40498" lon="6.89174">
        <ele>470</ele>
        <time>2014-04-20T08:47:29.618Z</time>
      </trkpt>
      <trkpt lat="47.40507" lon="6.89167">
        <ele>470</ele>
        <time>2014-04-20T08:47:34.659Z</time>
      </trkpt>
      <trkpt lat="47.40514" lon="6.89161">
        <ele>471</ele>
        <time>2014-04-20T08:47:39.622Z</time>
      </trkpt>
      <trkpt lat="47.40525" lon="6.89155">
        <ele>472</ele>
        <time>2014-04-20T08:47:44.684Z</time>
      </trkpt>
      <trkpt lat="47.40531" lon="6.89155">
        <ele>473</ele>
        <time>2014-04-20T08:47:49.698Z</time>
      </trkpt>
      <trkpt lat="47.40538" lon="6.89156">
        <ele>473</ele>
        <time>2014-04-20T08:47:54.609Z</time>
      </trkpt>
      <trkpt lat="47.40542" lon="6.89155">
        <ele>473</ele>
        <time>2014-04-20T08:47:59.682Z</time>
      </trkpt>
      <trkpt lat="47.40546" lon="6.89155">
        <ele>474</ele>
        <time>2014-04-20T08:48:04.614Z</time>
      </trkpt>
      <trkpt lat="47.40552" lon="6.89158">
        <ele>475</ele>
        <time>2014-04-20T08:48:09.682Z</time>
      </trkpt>
      <trkpt lat="47.40557" lon="6.8916">
        <ele>476</ele>
        <time>2014-04-20T08:48:14.621Z</time>
      </trkpt>
      <trkpt lat="47.40563" lon="6.89163">
        <ele>477</ele>
        <time>2014-04-20T08:48:19.694Z</time>
      </trkpt>
      <trkpt lat="47.40569" lon="6.89165">
        <ele>478</ele>
        <time>2014-04-20T08:48:24.674Z</time>
      </trkpt>
      <trkpt lat="47.40574" lon="6.89166">
        <ele>480</ele>
        <time>2014-04-20T08:48:29.694Z</time>
      </trkpt>
      <trkpt lat="47.4058" lon="6.89169">
        <ele>481</ele>
        <time>2014-04-20T08:48:34.639Z</time>
      </trkpt>
      <trkpt lat="47.40586" lon="6.8917">
        <ele>480</ele>
        <time>2014-04-20T08:48:39.683Z</time>
      </trkpt>
      <trkpt lat="47.40593" lon="6.89172">
        <ele>481</ele>
        <time>2014-04-20T08:48:44.616Z</time>
      </trkpt>
      <trkpt lat="47.40598" lon="6.89172">
        <ele>482</ele>
        <time>2014-04-20T08:48:49.666Z</time>
      </trkpt>
      <trkpt lat="47.40606" lon="6.89176">
        <ele>483</ele>
        <time>2014-04-20T08:48:54.640Z</time>
      </trkpt>
      <trkpt lat="47.40613" lon="6.89179">
        <ele>484</ele>
        <time>2014-04-20T08:48:59.698Z</time>
      </trkpt>
      <trkpt lat="47.40619" lon="6.89184">
        <ele>485</ele>
        <time>2014-04-20T08:49:04.929Z</time>
      </trkpt>
      <trkpt lat="47.40623" lon="6.89189">
        <ele>486</ele>
        <time>2014-04-20T08:49:09.668Z</time>
      </trkpt>
      <trkpt lat="47.40628" lon="6.89199">
        <ele>488</ele>
        <time>2014-04-20T08:49:14.631Z</time>
      </trkpt>
      <trkpt lat="47.40631" lon="6.89207">
        <ele>492</ele>
        <time>2014-04-20T08:49:19.701Z</time>
      </trkpt>
      <trkpt lat="47.40632" lon="6.89218">
        <ele>494</ele>
        <time>2014-04-20T08:49:24.638Z</time>
      </trkpt>
      <trkpt lat="47.40633" lon="6.89229">
        <ele>495</ele>
        <time>2014-04-20T08:49:29.697Z</time>
      </trkpt>
      <trkpt lat="47.40634" lon="6.89238">
        <ele>496</ele>
        <time>2014-04-20T08:49:34.636Z</time>
      </trkpt>
      <trkpt lat="47.40637" lon="6.89246">
        <ele>497</ele>
        <time>2014-04-20T08:49:39.698Z</time>
      </trkpt>
      <trkpt lat="47.40641" lon="6.89255">
        <ele>499</ele>
        <time>2014-04-20T08:49:44.629Z</time>
      </trkpt>
      <trkpt lat="47.40644" lon="6.89264">
        <ele>499</ele>
        <time>2014-04-20T08:49:49.698Z</time>
      </trkpt>
      <trkpt lat="47.40648" lon="6.89274">
        <ele>501</ele>
        <time>2014-04-20T08:49:54.624Z</time>
      </trkpt>
      <trkpt lat="47.40649" lon="6.89286">
        <ele>502</ele>
        <time>2014-04-20T08:49:59.698Z</time>
      </trkpt>
      <trkpt lat="47.4065" lon="6.89296">
        <ele>505</ele>
        <time>2014-04-20T08:50:04.977Z</time>
      </trkpt>
      <trkpt lat="47.40653" lon="6.89305">
        <ele>507</ele>
        <time>2014-04-20T08:50:09.694Z</time>
      </trkpt>
      <trkpt lat="47.40655" lon="6.89317">
        <ele>509</ele>
        <time>2014-04-20T08:50:14.625Z</time>
      </trkpt>
      <trkpt lat="47.40658" lon="6.89326">
        <ele>511</ele>
        <time>2014-04-20T08:50:19.704Z</time>
      </trkpt>
      <trkpt lat="47.40661" lon="6.89333">
        <ele>513</ele>
        <time>2014-04-20T08:50:24.632Z</time>
      </trkpt>
      <trkpt lat="47.40666" lon="6.8934">
        <ele>515</ele>
        <time>2014-04-20T08:50:29.696Z</time>
      </trkpt>
      <trkpt lat="47.40669" lon="6.89347">
        <ele>518</ele>
        <time>2014-04-20T08:50:34.633Z</time>
      </trkpt>
      <trkpt lat="47.40674" lon="6.89354">
        <ele>518</ele>
        <time>2014-04-20T08:50:39.703Z</time>
      </trkpt>
      <trkpt lat="47.4068" lon="6.89362">
        <ele>522</ele>
        <time>2014-04-20T08:50:44.626Z</time>
      </trkpt>
      <trkpt lat="47.40684" lon="6.89367">
        <ele>524</ele>
        <time>2014-04-20T08:50:49.695Z</time>
      </trkpt>
      <trkpt lat="47.40689" lon="6.89375">
        <ele>526</ele>
        <time>2014-04-20T08:50:54.636Z</time>
      </trkpt>
      <trkpt lat="47.40694" lon="6.89383">
        <ele>526</ele>
        <time>2014-04-20T08:50:59.698Z</time>
      </trkpt>
      <trkpt lat="47.40698" lon="6.89389">
        <ele>527</ele>
        <time>2014-04-20T08:51:04.628Z</time>
      </trkpt>
      <trkpt lat="47.40703" lon="6.89395">
        <ele>527</ele>
        <time>2014-04-20T08:51:09.877Z</time>
      </trkpt>
      <trkpt lat="47.40707" lon="6.89402">
        <ele>528</ele>
        <time>2014-04-20T08:51:14.696Z</time>
      </trkpt>
      <trkpt lat="47.40711" lon="6.89411">
        <ele>527</ele>
        <time>2014-04-20T08:51:19.627Z</time>
      </trkpt>
      <trkpt lat="47.40715" lon="6.89419">
        <ele>527</ele>
        <time>2014-04-20T08:51:24.694Z</time>
      </trkpt>
      <trkpt lat="47.40719" lon="6.89425">
        <ele>528</ele>
        <time>2014-04-20T08:51:29.622Z</time>
      </trkpt>
      <trkpt lat="47.40724" lon="6.8943">
        <ele>530</ele>
        <time>2014-04-20T08:51:34.700Z</time>
      </trkpt>
      <trkpt lat="47.40729" lon="6.89436">
        <ele>531</ele>
        <time>2014-04-20T08:51:39.626Z</time>
      </trkpt>
      <trkpt lat="47.40735" lon="6.89444">
        <ele>531</ele>
        <time>2014-04-20T08:51:44.696Z</time>
      </trkpt>
      <trkpt lat="47.40739" lon="6.89451">
        <ele>530</ele>
        <time>2014-04-20T08:51:49.625Z</time>
      </trkpt>
      <trkpt lat="47.40745" lon="6.89458">
        <ele>531</ele>
        <time>2014-04-20T08:51:54.698Z</time>
      </trkpt>
      <trkpt lat="47.40749" lon="6.89465">
        <ele>532</ele>
        <time>2014-04-20T08:51:59.632Z</time>
      </trkpt>
      <trkpt lat="47.40751" lon="6.89475">
        <ele>533</ele>
        <time>2014-04-20T08:52:04.695Z</time>
      </trkpt>
      <trkpt lat="47.40752" lon="6.89483">
        <ele>536</ele>
        <time>2014-04-20T08:52:09.630Z</time>
      </trkpt>
      <trkpt lat="47.40752" lon="6.89491">
        <ele>538</ele>
        <time>2014-04-20T08:52:14.699Z</time>
      </trkpt>
      <trkpt lat="47.4075" lon="6.89495">
        <ele>541</ele>
        <time>2014-04-20T08:52:19.629Z</time>
      </trkpt>
      <trkpt lat="47.4075" lon="6.89503">
        <ele>542</ele>
        <time>2014-04-20T08:52:24.699Z</time>
      </trkpt>
      <trkpt lat="47.40751" lon="6.89511">
        <ele>542</ele>
        <time>2014-04-20T08:52:29.631Z</time>
      </trkpt>
      <trkpt lat="47.40754" lon="6.8952">
        <ele>545</ele>
        <time>2014-04-20T08:52:34.697Z</time>
      </trkpt>
      <trkpt lat="47.40758" lon="6.89526">
        <ele>544</ele>
        <time>2014-04-20T08:52:39.629Z</time>
      </trkpt>
      <trkpt lat="47.4076" lon="6.8953">
        <ele>545</ele>
        <time>2014-04-20T08:52:44.700Z</time>
      </trkpt>
      <trkpt lat="47.40764" lon="6.89535">
        <ele>547</ele>
        <time>2014-04-20T08:52:49.626Z</time>
      </trkpt>
      <trkpt lat="47.40767" lon="6.89538">
        <ele>548</ele>
        <time>2014-04-20T08:52:54.697Z</time>
      </trkpt>
      <trkpt lat="47.40772" lon="6.89541">
        <ele>550</ele>
        <time>2014-04-20T08:52:59.625Z</time>
      </trkpt>
      <trkpt lat="47.40775" lon="6.8955">
        <ele>550</ele>
        <time>2014-04-20T08:53:04.633Z</time>
      </trkpt>
      <trkpt lat="47.40779" lon="6.89557">
        <ele>552</ele>
        <time>2014-04-20T08:53:09.698Z</time>
      </trkpt>
      <trkpt lat="47.40783" lon="6.89564">
        <ele>551</ele>
        <time>2014-04-20T08:53:14.625Z</time>
      </trkpt>
      <trkpt lat="47.40788" lon="6.89572">
        <ele>549</ele>
        <time>2014-04-20T08:53:19.674Z</time>
      </trkpt>
      <trkpt lat="47.40791" lon="6.89579">
        <ele>548</ele>
        <time>2014-04-20T08:53:24.634Z</time>
      </trkpt>
      <trkpt lat="47.40795" lon="6.89586">
        <ele>550</ele>
        <time>2014-04-20T08:53:29.696Z</time>
      </trkpt>
      <trkpt lat="47.40799" lon="6.89592">
        <ele>550</ele>
        <time>2014-04-20T08:53:34.636Z</time>
      </trkpt>
      <trkpt lat="47.40804" lon="6.89597">
        <ele>551</ele>
        <time>2014-04-20T08:53:39.697Z</time>
      </trkpt>
      <trkpt lat="47.40808" lon="6.89604">
        <ele>551</ele>
        <time>2014-04-20T08:53:44.624Z</time>
      </trkpt>
      <trkpt lat="47.40815" lon="6.8961">
        <ele>553</ele>
        <time>2014-04-20T08:53:49.696Z</time>
      </trkpt>
      <trkpt lat="47.40818" lon="6.89617">
        <ele>554</ele>
        <time>2014-04-20T08:53:54.620Z</time>
      </trkpt>
      <trkpt lat="47.40832" lon="6.89653">
        <ele>564</ele>
        <time>2014-04-20T08:54:19.666Z</time>
      </trkpt>
      <trkpt lat="47.40834" lon="6.89659">
        <ele>566</ele>
        <time>2014-04-20T08:54:24.631Z</time>
      </trkpt>
      <trkpt lat="47.40834" lon="6.89667">
        <ele>567</ele>
        <time>2014-04-20T08:54:29.694Z</time>
      </trkpt>
      <trkpt lat="47.40838" lon="6.89675">
        <ele>567</ele>
        <time>2014-04-20T08:54:34.622Z</time>
      </trkpt>
      <trkpt lat="47.4084" lon="6.89681">
        <ele>569</ele>
        <time>2014-04-20T08:54:39.694Z</time>
      </trkpt>
      <trkpt lat="47.40843" lon="6.89687">
        <ele>569</ele>
        <time>2014-04-20T08:54:44.631Z</time>
      </trkpt>
      <trkpt lat="47.40842" lon="6.89695">
        <ele>573</ele>
        <time>2014-04-20T08:54:49.695Z</time>
      </trkpt>
      <trkpt lat="47.40844" lon="6.89703">
        <ele>577</ele>
        <time>2014-04-20T08:54:54.629Z</time>
      </trkpt>
      <trkpt lat="47.40847" lon="6.8971">
        <ele>578</ele>
        <time>2014-04-20T08:54:59.677Z</time>
      </trkpt>
      <trkpt lat="47.40848" lon="6.89716">
        <ele>580</ele>
        <time>2014-04-20T08:55:04.628Z</time>
      </trkpt>
      <trkpt lat="47.4085" lon="6.89724">
        <ele>582</ele>
        <time>2014-04-20T08:55:09.692Z</time>
      </trkpt>
      <trkpt lat="47.40853" lon="6.89732">
        <ele>582</ele>
        <time>2014-04-20T08:55:14.631Z</time>
      </trkpt>
      <trkpt lat="47.40855" lon="6.8974">
        <ele>583</ele>
        <time>2014-04-20T08:55:19.695Z</time>
      </trkpt>
      <trkpt lat="47.40858" lon="6.89749">
        <ele>583</ele>
        <time>2014-04-20T08:55:24.625Z</time>
      </trkpt>
      <trkpt lat="47.40858" lon="6.89757">
        <ele>585</ele>
        <time>2014-04-20T08:55:29.694Z</time>
      </trkpt>
      <trkpt lat="47.40859" lon="6.89766">
        <ele>586</ele>
        <time>2014-04-20T08:55:34.627Z</time>
      </trkpt>
      <trkpt lat="47.40859" lon="6.8978">
        <ele>588</ele>
        <time>2014-04-20T08:55:44.632Z</time>
      </trkpt>
      <trkpt lat="47.40863" lon="6.89788">
        <ele>590</ele>
        <time>2014-04-20T08:55:49.699Z</time>
      </trkpt>
      <trkpt lat="47.40863" lon="6.89796">
        <ele>590</ele>
        <time>2014-04-20T08:55:54.633Z</time>
      </trkpt>
      <trkpt lat="47.40865" lon="6.89805">
        <ele>588</ele>
        <time>2014-04-20T08:55:59.695Z</time>
      </trkpt>
      <trkpt lat="47.4087" lon="6.89812">
        <ele>587</ele>
        <time>2014-04-20T08:56:04.635Z</time>
      </trkpt>
      <trkpt lat="47.4087" lon="6.89822">
        <ele>588</ele>
        <time>2014-04-20T08:56:09.702Z</time>
      </trkpt>
      <trkpt lat="47.4087" lon="6.89831">
        <ele>589</ele>
        <time>2014-04-20T08:56:14.635Z</time>
      </trkpt>
      <trkpt lat="47.40869" lon="6.8984">
        <ele>590</ele>
        <time>2014-04-20T08:56:19.695Z</time>
      </trkpt>
      <trkpt lat="47.40865" lon="6.89849">
        <ele>591</ele>
        <time>2014-04-20T08:56:24.635Z</time>
      </trkpt>
      <trkpt lat="47.40865" lon="6.89858">
        <ele>593</ele>
        <time>2014-04-20T08:56:29.697Z</time>
      </trkpt>
      <trkpt lat="47.40867" lon="6.89866">
        <ele>596</ele>
        <time>2014-04-20T08:56:34.628Z</time>
      </trkpt>
      <trkpt lat="47.40866" lon="6.89875">
        <ele>597</ele>
        <time>2014-04-20T08:56:39.701Z</time>
      </trkpt>
      <trkpt lat="47.40868" lon="6.89885">
        <ele>597</ele>
        <time>2014-04-20T08:56:44.628Z</time>
      </trkpt>
      <trkpt lat="47.4087" lon="6.89895">
        <ele>596</ele>
        <time>2014-04-20T08:56:49.692Z</time>
      </trkpt>
      <trkpt lat="47.40871" lon="6.89904">
        <ele>596</ele>
        <time>2014-04-20T08:56:54.642Z</time>
      </trkpt>
      <trkpt lat="47.40871" lon="6.89914">
        <ele>597</ele>
        <time>2014-04-20T08:56:59.697Z</time>
      </trkpt>
      <trkpt lat="47.40871" lon="6.89921">
        <ele>598</ele>
        <time>2014-04-20T08:57:04.628Z</time>
      </trkpt>
      <trkpt lat="47.40872" lon="6.8993">
        <ele>597</ele>
        <time>2014-04-20T08:57:09.697Z</time>
      </trkpt>
      <trkpt lat="47.40873" lon="6.8994">
        <ele>597</ele>
        <time>2014-04-20T08:57:14.626Z</time>
      </trkpt>
      <trkpt lat="47.40875" lon="6.89953">
        <ele>597</ele>
        <time>2014-04-20T08:57:19.698Z</time>
      </trkpt>
      <trkpt lat="47.40877" lon="6.8996">
        <ele>598</ele>
        <time>2014-04-20T08:57:24.667Z</time>
      </trkpt>
      <trkpt lat="47.40879" lon="6.89971">
        <ele>599</ele>
        <time>2014-04-20T08:57:29.633Z</time>
      </trkpt>
      <trkpt lat="47.40882" lon="6.89979">
        <ele>600</ele>
        <time>2014-04-20T08:57:34.700Z</time>
      </trkpt>
      <trkpt lat="47.40884" lon="6.89987">
        <ele>600</ele>
        <time>2014-04-20T08:57:39.639Z</time>
      </trkpt>
      <trkpt lat="47.4089" lon="6.89995">
        <ele>601</ele>
        <time>2014-04-20T08:57:44.689Z</time>
      </trkpt>
      <trkpt lat="47.40895" lon="6.9">
        <ele>600</ele>
        <time>2014-04-20T08:57:49.631Z</time>
      </trkpt>
      <trkpt lat="47.40901" lon="6.90003">
        <ele>600</ele>
        <time>2014-04-20T08:57:54.632Z</time>
      </trkpt>
      <trkpt lat="47.40907" lon="6.90006">
        <ele>600</ele>
        <time>2014-04-20T08:57:59.627Z</time>
      </trkpt>
      <trkpt lat="47.40913" lon="6.90007">
        <ele>601</ele>
        <time>2014-04-20T08:58:04.697Z</time>
      </trkpt>
      <trkpt lat="47.40918" lon="6.90007">
        <ele>602</ele>
        <time>2014-04-20T08:58:09.795Z</time>
      </trkpt>
      <trkpt lat="47.40922" lon="6.90007">
        <ele>602</ele>
        <time>2014-04-20T08:58:14.700Z</time>
      </trkpt>
      <trkpt lat="47.40926" lon="6.90006">
        <ele>602</ele>
        <time>2014-04-20T08:58:19.642Z</time>
      </trkpt>
      <trkpt lat="47.40929" lon="6.90004">
        <ele>602</ele>
        <time>2014-04-20T08:58:24.700Z</time>
      </trkpt>
      <trkpt lat="47.40926" lon="6.90003">
        <ele>602</ele>
        <time>2014-04-20T08:58:29.639Z</time>
      </trkpt>
      <trkpt lat="47.40925" lon="6.90005">
        <ele>601</ele>
        <time>2014-04-20T08:58:34.695Z</time>
      </trkpt>
      <trkpt lat="47.40923" lon="6.90004">
        <ele>601</ele>
        <time>2014-04-20T08:58:39.637Z</time>
      </trkpt>
      <trkpt lat="47.40926" lon="6.90004">
        <ele>601</ele>
        <time>2014-04-20T08:58:44.696Z</time>
      </trkpt>
      <trkpt lat="47.40929" lon="6.90004">
        <ele>601</ele>
        <time>2014-04-20T08:58:49.631Z</time>
      </trkpt>
      <trkpt lat="47.40925" lon="6.90002">
        <ele>601</ele>
        <time>2014-04-20T08:58:54.684Z</time>
      </trkpt>
      <trkpt lat="47.40922" lon="6.90006">
        <ele>601</ele>
        <time>2014-04-20T08:58:59.616Z</time>
      </trkpt>
      <trkpt lat="47.40924" lon="6.90006">
        <ele>601</ele>
        <time>2014-04-20T08:59:04.688Z</time>
      </trkpt>
      <trkpt lat="47.40926" lon="6.90006">
        <ele>600</ele>
        <time>2014-04-20T08:59:09.639Z</time>
      </trkpt>
      <trkpt lat="47.40924" lon="6.90005">
        <ele>600</ele>
        <time>2014-04-20T08:59:14.698Z</time>
      </trkpt>
      <trkpt lat="47.40926" lon="6.90007">
        <ele>600</ele>
        <time>2014-04-20T08:59:19.680Z</time>
      </trkpt>
      <trkpt lat="47.40924" lon="6.90005">
        <ele>600</ele>
        <time>2014-04-20T08:59:24.614Z</time>
      </trkpt>
      <trkpt lat="47.40927" lon="6.90006">
        <ele>600</ele>
        <time>2014-04-20T08:59:29.632Z</time>
      </trkpt>
      <trkpt lat="47.40924" lon="6.90007">
        <ele>601</ele>
        <time>2014-04-20T08:59:34.646Z</time>
      </trkpt>
      <trkpt lat="47.40927" lon="6.90005">
        <ele>601</ele>
        <time>2014-04-20T08:59:39.704Z</time>
      </trkpt>
      <trkpt lat="47.40931" lon="6.90001">
        <ele>601</ele>
        <time>2014-04-20T08:59:44.640Z</time>
      </trkpt>
      <trkpt lat="47.40934" lon="6.89998">
        <ele>600</ele>
        <time>2014-04-20T08:59:49.701Z</time>
      </trkpt>
      <trkpt lat="47.40938" lon="6.89997">
        <ele>600</ele>
        <time>2014-04-20T08:59:54.629Z</time>
      </trkpt>
      <trkpt lat="47.40942" lon="6.89997">
        <ele>600</ele>
        <time>2014-04-20T08:59:59.698Z</time>
      </trkpt>
      <trkpt lat="47.40936" lon="6.89998">
        <ele>600</ele>
        <time>2014-04-20T09:00:04.706Z</time>
      </trkpt>
      <trkpt lat="47.40929" lon="6.90002">
        <ele>600</ele>
        <time>2014-04-20T09:00:09.632Z</time>
      </trkpt>
      <trkpt lat="47.40925" lon="6.90005">
        <ele>600</ele>
        <time>2014-04-20T09:00:14.699Z</time>
      </trkpt>
      <trkpt lat="47.40927" lon="6.90008">
        <ele>600</ele>
        <time>2014-04-20T09:00:19.631Z</time>
      </trkpt>
      <trkpt lat="47.40927" lon="6.90008">
        <ele>600</ele>
        <time>2014-04-20T09:00:24.699Z</time>
      </trkpt>
      <trkpt lat="47.40927" lon="6.90008">
        <ele>600</ele>
        <time>2014-04-20T09:00:29.632Z</time>
      </trkpt>
      <trkpt lat="47.40927" lon="6.90007">
        <ele>600</ele>
        <time>2014-04-20T09:00:34.701Z</time>
      </trkpt>
      <trkpt lat="47.40927" lon="6.90007">
        <ele>600</ele>
        <time>2014-04-20T09:00:39.633Z</time>
      </trkpt>
      <trkpt lat="47.40927" lon="6.90007">
        <ele>600</ele>
        <time>2014-04-20T09:00:44.700Z</time>
      </trkpt>
      <trkpt lat="47.40927" lon="6.90007">
        <ele>600</ele>
        <time>2014-04-20T09:00:49.700Z</time>
      </trkpt>
      <trkpt lat="47.40927" lon="6.90007">
        <ele>600</ele>
        <time>2014-04-20T09:00:54.629Z</time>
      </trkpt>
      <trkpt lat="47.40927" lon="6.90007">
        <ele>600</ele>
        <time>2014-04-20T09:00:59.683Z</time>
      </trkpt>
      <trkpt lat="47.40927" lon="6.90007">
        <ele>600</ele>
        <time>2014-04-20T09:01:04.597Z</time>
      </trkpt>
      <trkpt lat="47.40927" lon="6.90007">
        <ele>600</ele>
        <time>2014-04-20T09:01:09.685Z</time>
      </trkpt>
      <trkpt lat="47.40927" lon="6.90007">
        <ele>600</ele>
        <time>2014-04-20T09:01:14.637Z</time>
      </trkpt>
      <trkpt lat="47.40927" lon="6.90007">
        <ele>600</ele>
        <time>2014-04-20T09:01:19.681Z</time>
      </trkpt>
      <trkpt lat="47.40927" lon="6.90007">
        <ele>600</ele>
        <time>2014-04-20T09:01:24.629Z</time>
      </trkpt>
      <trkpt lat="47.40927" lon="6.90007">
        <ele>600</ele>
        <time>2014-04-20T09:01:29.698Z</time>
      </trkpt>
      <trkpt lat="47.40927" lon="6.90007">
        <ele>600</ele>
        <time>2014-04-20T09:01:34.646Z</time>
      </trkpt>
      <trkpt lat="47.40927" lon="6.90007">
        <ele>600</ele>
        <time>2014-04-20T09:01:39.704Z</time>
      </trkpt>
      <trkpt lat="47.40927" lon="6.90007">
        <ele>600</ele>
        <time>2014-04-20T09:01:44.650Z</time>
      </trkpt>
      <trkpt lat="47.40927" lon="6.90007">
        <ele>600</ele>
        <time>2014-04-20T09:01:49.629Z</time>
      </trkpt>
      <trkpt lat="47.40927" lon="6.90007">
        <ele>600</ele>
        <time>2014-04-20T09:01:54.695Z</time>
      </trkpt>
      <trkpt lat="47.40927" lon="6.90007">
        <ele>600</ele>
        <time>2014-04-20T09:01:59.627Z</time>
      </trkpt>
      <trkpt lat="47.40927" lon="6.90007">
        <ele>600</ele>
        <time>2014-04-20T09:02:04.699Z</time>
      </trkpt>
      <trkpt lat="47.40927" lon="6.90007">
        <ele>600</ele>
        <time>2014-04-20T09:02:09.642Z</time>
      </trkpt>
      <trkpt lat="47.40927" lon="6.90007">
        <ele>600</ele>
        <time>2014-04-20T09:02:14.700Z</time>
      </trkpt>
      <trkpt lat="47.40927" lon="6.90007">
        <ele>600</ele>
        <time>2014-04-20T09:02:19.639Z</time>
      </trkpt>
      <trkpt lat="47.40927" lon="6.90007">
        <ele>600</ele>
        <time>2014-04-20T09:02:24.698Z</time>
      </trkpt>
      <trkpt lat="47.40927" lon="6.90007">
        <ele>600</ele>
        <time>2014-04-20T09:02:29.634Z</time>
      </trkpt>
      <trkpt lat="47.40928" lon="6.90006">
        <ele>600</ele>
        <time>2014-04-20T09:02:34.683Z</time>
      </trkpt>
      <trkpt lat="47.40934" lon="6.90003">
        <ele>601</ele>
        <time>2014-04-20T09:02:39.642Z</time>
      </trkpt>
      <trkpt lat="47.40944" lon="6.89998">
        <ele>602</ele>
        <time>2014-04-20T09:02:44.705Z</time>
      </trkpt>
      <trkpt lat="47.40956" lon="6.89993">
        <ele>602</ele>
        <time>2014-04-20T09:02:49.636Z</time>
      </trkpt>
      <trkpt lat="47.40972" lon="6.89987">
        <ele>601</ele>
        <time>2014-04-20T09:02:54.681Z</time>
      </trkpt>
      <trkpt lat="47.40989" lon="6.89983">
        <ele>602</ele>
        <time>2014-04-20T09:02:59.892Z</time>
      </trkpt>
      <trkpt lat="47.41005" lon="6.89981">
        <ele>602</ele>
        <time>2014-04-20T09:03:04.638Z</time>
      </trkpt>
      <trkpt lat="47.41021" lon="6.8998">
        <ele>602</ele>
        <time>2014-04-20T09:03:09.705Z</time>
      </trkpt>
      <trkpt lat="47.41037" lon="6.89979">
        <ele>603</ele>
        <time>2014-04-20T09:03:14.704Z</time>
      </trkpt>
      <trkpt lat="47.41054" lon="6.89979">
        <ele>604</ele>
        <time>2014-04-20T09:03:19.638Z</time>
      </trkpt>
      <trkpt lat="47.4107" lon="6.8998">
        <ele>604</ele>
        <time>2014-04-20T09:03:24.704Z</time>
      </trkpt>
      <trkpt lat="47.41086" lon="6.8998">
        <ele>605</ele>
        <time>2014-04-20T09:03:29.701Z</time>
      </trkpt>
      <trkpt lat="47.41102" lon="6.89981">
        <ele>605</ele>
        <time>2014-04-20T09:03:34.645Z</time>
      </trkpt>
      <trkpt lat="47.41119" lon="6.89982">
        <ele>606</ele>
        <time>2014-04-20T09:03:39.680Z</time>
      </trkpt>
      <trkpt lat="47.41135" lon="6.89983">
        <ele>606</ele>
        <time>2014-04-20T09:03:44.705Z</time>
      </trkpt>
      <trkpt lat="47.41153" lon="6.89988">
        <ele>606</ele>
        <time>2014-04-20T09:03:49.637Z</time>
      </trkpt>
      <trkpt lat="47.4117" lon="6.89995">
        <ele>607</ele>
        <time>2014-04-20T09:03:54.674Z</time>
      </trkpt>
      <trkpt lat="47.41186" lon="6.90004">
        <ele>607</ele>
        <time>2014-04-20T09:03:59.628Z</time>
      </trkpt>
      <trkpt lat="47.41203" lon="6.90016">
        <ele>608</ele>
        <time>2014-04-20T09:04:04.701Z</time>
      </trkpt>
      <trkpt lat="47.41219" lon="6.90029">
        <ele>608</ele>
        <time>2014-04-20T09:04:09.632Z</time>
      </trkpt>
      <trkpt lat="47.41234" lon="6.90045">
        <ele>608</ele>
        <time>2014-04-20T09:04:14.697Z</time>
      </trkpt>
      <trkpt lat="47.41248" lon="6.90062">
        <ele>609</ele>
        <time>2014-04-20T09:04:19.632Z</time>
      </trkpt>
      <trkpt lat="47.41258" lon="6.90076">
        <ele>609</ele>
        <time>2014-04-20T09:04:24.686Z</time>
      </trkpt>
      <trkpt lat="47.41273" lon="6.90093">
        <ele>610</ele>
        <time>2014-04-20T09:04:29.634Z</time>
      </trkpt>
      <trkpt lat="47.41292" lon="6.90117">
        <ele>611</ele>
        <time>2014-04-20T09:04:34.705Z</time>
      </trkpt>
      <trkpt lat="47.41315" lon="6.90132">
        <ele>611</ele>
        <time>2014-04-20T09:04:39.656Z</time>
      </trkpt>
      <trkpt lat="47.41354" lon="6.90158">
        <ele>609</ele>
        <time>2014-04-20T09:04:49.628Z</time>
      </trkpt>
      <trkpt lat="47.41377" lon="6.90171">
        <ele>609</ele>
        <time>2014-04-20T09:04:54.698Z</time>
      </trkpt>
      <trkpt lat="47.41402" lon="6.90179">
        <ele>608</ele>
        <time>2014-04-20T09:04:59.629Z</time>
      </trkpt>
      <trkpt lat="47.4142" lon="6.90184">
        <ele>609</ele>
        <time>2014-04-20T09:05:04.718Z</time>
      </trkpt>
      <trkpt lat="47.41437" lon="6.90191">
        <ele>610</ele>
        <time>2014-04-20T09:05:09.633Z</time>
      </trkpt>
      <trkpt lat="47.41456" lon="6.90202">
        <ele>612</ele>
        <time>2014-04-20T09:05:14.704Z</time>
      </trkpt>
      <trkpt lat="47.4147" lon="6.90215">
        <ele>613</ele>
        <time>2014-04-20T09:05:19.637Z</time>
      </trkpt>
      <trkpt lat="47.41482" lon="6.90225">
        <ele>614</ele>
        <time>2014-04-20T09:05:24.698Z</time>
      </trkpt>
      <trkpt lat="47.41495" lon="6.90236">
        <ele>615</ele>
        <time>2014-04-20T09:05:29.638Z</time>
      </trkpt>
      <trkpt lat="47.41505" lon="6.90246">
        <ele>616</ele>
        <time>2014-04-20T09:05:34.699Z</time>
      </trkpt>
      <trkpt lat="47.41516" lon="6.90255">
        <ele>617</ele>
        <time>2014-04-20T09:05:39.639Z</time>
      </trkpt>
      <trkpt lat="47.41524" lon="6.90262">
        <ele>618</ele>
        <time>2014-04-20T09:05:44.699Z</time>
      </trkpt>
      <trkpt lat="47.41531" lon="6.90267">
        <ele>619</ele>
        <time>2014-04-20T09:05:49.639Z</time>
      </trkpt>
      <trkpt lat="47.41538" lon="6.90273">
        <ele>620</ele>
        <time>2014-04-20T09:05:54.702Z</time>
      </trkpt>
      <trkpt lat="47.4155" lon="6.90279">
        <ele>621</ele>
        <time>2014-04-20T09:05:59.632Z</time>
      </trkpt>
      <trkpt lat="47.41564" lon="6.90287">
        <ele>620</ele>
        <time>2014-04-20T09:06:04.682Z</time>
      </trkpt>
      <trkpt lat="47.41576" lon="6.90294">
        <ele>621</ele>
        <time>2014-04-20T09:06:09.708Z</time>
      </trkpt>
      <trkpt lat="47.41588" lon="6.90299">
        <ele>622</ele>
        <time>2014-04-20T09:06:14.633Z</time>
      </trkpt>
      <trkpt lat="47.41598" lon="6.90306">
        <ele>623</ele>
        <time>2014-04-20T09:06:19.701Z</time>
      </trkpt>
      <trkpt lat="47.4161" lon="6.9031">
        <ele>624</ele>
        <time>2014-04-20T09:06:24.630Z</time>
      </trkpt>
      <trkpt lat="47.41622" lon="6.90313">
        <ele>625</ele>
        <time>2014-04-20T09:06:29.700Z</time>
      </trkpt>
      <trkpt lat="47.41633" lon="6.90318">
        <ele>626</ele>
        <time>2014-04-20T09:06:34.631Z</time>
      </trkpt>
      <trkpt lat="47.41646" lon="6.90324">
        <ele>627</ele>
        <time>2014-04-20T09:06:39.703Z</time>
      </trkpt>
      <trkpt lat="47.41658" lon="6.90329">
        <ele>627</ele>
        <time>2014-04-20T09:06:44.634Z</time>
      </trkpt>
      <trkpt lat="47.41672" lon="6.90338">
        <ele>627</ele>
        <time>2014-04-20T09:06:50.034Z</time>
      </trkpt>
      <trkpt lat="47.41689" lon="6.90347">
        <ele>626</ele>
        <time>2014-04-20T09:06:54.630Z</time>
      </trkpt>
      <trkpt lat="47.41703" lon="6.9035">
        <ele>628</ele>
        <time>2014-04-20T09:06:59.702Z</time>
      </trkpt>
      <trkpt lat="47.41729" lon="6.90365">
        <ele>629</ele>
        <time>2014-04-20T09:07:04.633Z</time>
      </trkpt>
      <trkpt lat="47.41754" lon="6.90382">
        <ele>628</ele>
        <time>2014-04-20T09:07:09.700Z</time>
      </trkpt>
      <trkpt lat="47.41776" lon="6.90399">
        <ele>628</ele>
        <time>2014-04-20T09:07:14.633Z</time>
      </trkpt>
      <trkpt lat="47.41796" lon="6.90418">
        <ele>629</ele>
        <time>2014-04-20T09:07:19.698Z</time>
      </trkpt>
      <trkpt lat="47.4182" lon="6.90436">
        <ele>630</ele>
        <time>2014-04-20T09:07:24.639Z</time>
      </trkpt>
      <trkpt lat="47.41849" lon="6.90465">
        <ele>629</ele>
        <time>2014-04-20T09:07:29.698Z</time>
      </trkpt>
      <trkpt lat="47.41879" lon="6.90496">
        <ele>627</ele>
        <time>2014-04-20T09:07:34.630Z</time>
      </trkpt>
      <trkpt lat="47.41899" lon="6.90529">
        <ele>628</ele>
        <time>2014-04-20T09:07:39.681Z</time>
      </trkpt>
      <trkpt lat="47.41917" lon="6.90566">
        <ele>626</ele>
        <time>2014-04-20T09:07:44.630Z</time>
      </trkpt>
      <trkpt lat="47.41944" lon="6.90587">
        <ele>626</ele>
        <time>2014-04-20T09:07:49.694Z</time>
      </trkpt>
      <trkpt lat="47.4197" lon="6.90604">
        <ele>624</ele>
        <time>2014-04-20T09:07:54.640Z</time>
      </trkpt>
      <trkpt lat="47.41994" lon="6.90623">
        <ele>623</ele>
        <time>2014-04-20T09:07:59.699Z</time>
      </trkpt>
      <trkpt lat="47.42015" lon="6.9064">
        <ele>623</ele>
        <time>2014-04-20T09:08:04.639Z</time>
      </trkpt>
      <trkpt lat="47.42035" lon="6.90656">
        <ele>623</ele>
        <time>2014-04-20T09:08:09.670Z</time>
      </trkpt>
      <trkpt lat="47.42053" lon="6.90672">
        <ele>624</ele>
        <time>2014-04-20T09:08:14.629Z</time>
      </trkpt>
      <trkpt lat="47.42068" lon="6.90686">
        <ele>623</ele>
        <time>2014-04-20T09:08:19.706Z</time>
      </trkpt>
      <trkpt lat="47.42085" lon="6.90699">
        <ele>624</ele>
        <time>2014-04-20T09:08:24.638Z</time>
      </trkpt>
      <trkpt lat="47.42103" lon="6.90713">
        <ele>625</ele>
        <time>2014-04-20T09:08:29.709Z</time>
      </trkpt>
      <trkpt lat="47.42119" lon="6.90726">
        <ele>626</ele>
        <time>2014-04-20T09:08:34.643Z</time>
      </trkpt>
      <trkpt lat="47.42134" lon="6.90738">
        <ele>626</ele>
        <time>2014-04-20T09:08:39.708Z</time>
      </trkpt>
      <trkpt lat="47.42149" lon="6.9075">
        <ele>626</ele>
        <time>2014-04-20T09:08:44.630Z</time>
      </trkpt>
      <trkpt lat="47.42163" lon="6.9076">
        <ele>627</ele>
        <time>2014-04-20T09:08:49.703Z</time>
      </trkpt>
      <trkpt lat="47.42179" lon="6.90767">
        <ele>627</ele>
        <time>2014-04-20T09:08:54.632Z</time>
      </trkpt>
      <trkpt lat="47.42251" lon="6.90807">
        <ele>631</ele>
        <time>2014-04-20T09:09:19.633Z</time>
      </trkpt>
      <trkpt lat="47.42263" lon="6.90814">
        <ele>632</ele>
        <time>2014-04-20T09:09:24.632Z</time>
      </trkpt>
      <trkpt lat="47.42275" lon="6.90821">
        <ele>633</ele>
        <time>2014-04-20T09:09:29.702Z</time>
      </trkpt>
      <trkpt lat="47.42288" lon="6.9083">
        <ele>634</ele>
        <time>2014-04-20T09:09:34.642Z</time>
      </trkpt>
      <trkpt lat="47.423" lon="6.90837">
        <ele>634</ele>
        <time>2014-04-20T09:09:39.699Z</time>
      </trkpt>
      <trkpt lat="47.42313" lon="6.90846">
        <ele>635</ele>
        <time>2014-04-20T09:09:44.639Z</time>
      </trkpt>
      <trkpt lat="47.42326" lon="6.90854">
        <ele>637</ele>
        <time>2014-04-20T09:09:49.700Z</time>
      </trkpt>
      <trkpt lat="47.42341" lon="6.90864">
        <ele>637</ele>
        <time>2014-04-20T09:09:54.646Z</time>
      </trkpt>
      <trkpt lat="47.42481" lon="6.90963">
        <ele>638</ele>
        <time>2014-04-20T09:10:31.797Z</time>
      </trkpt>
      <trkpt lat="47.42505" lon="6.90977">
        <ele>638</ele>
        <time>2014-04-20T09:10:34.702Z</time>
      </trkpt>
      <trkpt lat="47.42529" lon="6.90992">
        <ele>637</ele>
        <time>2014-04-20T09:10:39.641Z</time>
      </trkpt>
      <trkpt lat="47.42557" lon="6.91009">
        <ele>636</ele>
        <time>2014-04-20T09:10:44.672Z</time>
      </trkpt>
      <trkpt lat="47.42587" lon="6.91038">
        <ele>634</ele>
        <time>2014-04-20T09:10:49.642Z</time>
      </trkpt>
      <trkpt lat="47.4262" lon="6.91076">
        <ele>632</ele>
        <time>2014-04-20T09:10:54.642Z</time>
      </trkpt>
      <trkpt lat="47.42652" lon="6.91113">
        <ele>632</ele>
        <time>2014-04-20T09:10:59.636Z</time>
      </trkpt>
      <trkpt lat="47.42674" lon="6.91153">
        <ele>632</ele>
        <time>2014-04-20T09:11:04.700Z</time>
      </trkpt>
      <trkpt lat="47.42679" lon="6.91202">
        <ele>632</ele>
        <time>2014-04-20T09:11:09.644Z</time>
      </trkpt>
      <trkpt lat="47.4268" lon="6.91251">
        <ele>632</ele>
        <time>2014-04-20T09:11:14.673Z</time>
      </trkpt>
      <trkpt lat="47.4268" lon="6.91302">
        <ele>631</ele>
        <time>2014-04-20T09:11:19.636Z</time>
      </trkpt>
      <trkpt lat="47.42681" lon="6.91352">
        <ele>630</ele>
        <time>2014-04-20T09:11:24.701Z</time>
      </trkpt>
      <trkpt lat="47.42685" lon="6.914">
        <ele>630</ele>
        <time>2014-04-20T09:11:29.704Z</time>
      </trkpt>
      <trkpt lat="47.4269" lon="6.91448">
        <ele>629</ele>
        <time>2014-04-20T09:11:34.639Z</time>
      </trkpt>
      <trkpt lat="47.42696" lon="6.91496">
        <ele>628</ele>
        <time>2014-04-20T09:11:39.699Z</time>
      </trkpt>
      <trkpt lat="47.42701" lon="6.91545">
        <ele>627</ele>
        <time>2014-04-20T09:11:44.629Z</time>
      </trkpt>
      <trkpt lat="47.42705" lon="6.91591">
        <ele>628</ele>
        <time>2014-04-20T09:11:49.698Z</time>
      </trkpt>
      <trkpt lat="47.4271" lon="6.91633">
        <ele>628</ele>
        <time>2014-04-20T09:11:54.642Z</time>
      </trkpt>
      <trkpt lat="47.42827" lon="6.91713">
        <ele>628</ele>
        <time>2014-04-20T09:12:19.638Z</time>
      </trkpt>
      <trkpt lat="47.42852" lon="6.91724">
        <ele>628</ele>
        <time>2014-04-20T09:12:24.639Z</time>
      </trkpt>
      <trkpt lat="47.42877" lon="6.91735">
        <ele>628</ele>
        <time>2014-04-20T09:12:29.695Z</time>
      </trkpt>
      <trkpt lat="47.42901" lon="6.91748">
        <ele>629</ele>
        <time>2014-04-20T09:12:34.638Z</time>
      </trkpt>
      <trkpt lat="47.42924" lon="6.91759">
        <ele>630</ele>
        <time>2014-04-20T09:12:39.695Z</time>
      </trkpt>
      <trkpt lat="47.42947" lon="6.9177">
        <ele>630</ele>
        <time>2014-04-20T09:12:44.637Z</time>
      </trkpt>
      <trkpt lat="47.42968" lon="6.91779">
        <ele>631</ele>
        <time>2014-04-20T09:12:49.704Z</time>
      </trkpt>
      <trkpt lat="47.42988" lon="6.91788">
        <ele>632</ele>
        <time>2014-04-20T09:12:54.639Z</time>
      </trkpt>
      <trkpt lat="47.43007" lon="6.91797">
        <ele>632</ele>
        <time>2014-04-20T09:12:59.696Z</time>
      </trkpt>
      <trkpt lat="47.43026" lon="6.91807">
        <ele>632</ele>
        <time>2014-04-20T09:13:04.631Z</time>
      </trkpt>
      <trkpt lat="47.43045" lon="6.91815">
        <ele>633</ele>
        <time>2014-04-20T09:13:09.684Z</time>
      </trkpt>
      <trkpt lat="47.43065" lon="6.91824">
        <ele>634</ele>
        <time>2014-04-20T09:13:14.629Z</time>
      </trkpt>
      <trkpt lat="47.43083" lon="6.91832">
        <ele>636</ele>
        <time>2014-04-20T09:13:19.703Z</time>
      </trkpt>
      <trkpt lat="47.43093" lon="6.91848">
        <ele>637</ele>
        <time>2014-04-20T09:13:24.606Z</time>
      </trkpt>
      <trkpt lat="47.43102" lon="6.91862">
        <ele>638</ele>
        <time>2014-04-20T09:13:29.697Z</time>
      </trkpt>
      <trkpt lat="47.43119" lon="6.91858">
        <ele>637</ele>
        <time>2014-04-20T09:13:34.633Z</time>
      </trkpt>
      <trkpt lat="47.43138" lon="6.91858">
        <ele>637</ele>
        <time>2014-04-20T09:13:39.698Z</time>
      </trkpt>
      <trkpt lat="47.43155" lon="6.91868">
        <ele>638</ele>
        <time>2014-04-20T09:13:44.703Z</time>
      </trkpt>
      <trkpt lat="47.43171" lon="6.91877">
        <ele>639</ele>
        <time>2014-04-20T09:13:49.642Z</time>
      </trkpt>
      <trkpt lat="47.43187" lon="6.91887">
        <ele>639</ele>
        <time>2014-04-20T09:13:54.683Z</time>
      </trkpt>
      <trkpt lat="47.43204" lon="6.91896">
        <ele>639</ele>
        <time>2014-04-20T09:13:59.633Z</time>
      </trkpt>
      <trkpt lat="47.43217" lon="6.91913">
        <ele>639</ele>
        <time>2014-04-20T09:14:04.677Z</time>
      </trkpt>
      <trkpt lat="47.4323" lon="6.91932">
        <ele>641</ele>
        <time>2014-04-20T09:14:09.607Z</time>
      </trkpt>
      <trkpt lat="47.43243" lon="6.91945">
        <ele>642</ele>
        <time>2014-04-20T09:14:14.696Z</time>
      </trkpt>
      <trkpt lat="47.43261" lon="6.91943">
        <ele>642</ele>
        <time>2014-04-20T09:14:19.648Z</time>
      </trkpt>
      <trkpt lat="47.43308" lon="6.91931">
        <ele>641</ele>
        <time>2014-04-20T09:14:29.669Z</time>
      </trkpt>
      <trkpt lat="47.43334" lon="6.91934">
        <ele>641</ele>
        <time>2014-04-20T09:14:34.630Z</time>
      </trkpt>
      <trkpt lat="47.4336" lon="6.91943">
        <ele>639</ele>
        <time>2014-04-20T09:14:39.701Z</time>
      </trkpt>
      <trkpt lat="47.43388" lon="6.91955">
        <ele>638</ele>
        <time>2014-04-20T09:14:44.642Z</time>
      </trkpt>
      <trkpt lat="47.43416" lon="6.91965">
        <ele>639</ele>
        <time>2014-04-20T09:14:49.705Z</time>
      </trkpt>
      <trkpt lat="47.43441" lon="6.91976">
        <ele>639</ele>
        <time>2014-04-20T09:14:54.644Z</time>
      </trkpt>
      <trkpt lat="47.43465" lon="6.91984">
        <ele>639</ele>
        <time>2014-04-20T09:14:59.631Z</time>
      </trkpt>
      <trkpt lat="47.43485" lon="6.91991">
        <ele>639</ele>
        <time>2014-04-20T09:15:04.672Z</time>
      </trkpt>
      <trkpt lat="47.43504" lon="6.91998">
        <ele>639</ele>
        <time>2014-04-20T09:15:09.632Z</time>
      </trkpt>
      <trkpt lat="47.43522" lon="6.92003">
        <ele>640</ele>
        <time>2014-04-20T09:15:14.672Z</time>
      </trkpt>
      <trkpt lat="47.43537" lon="6.92008">
        <ele>641</ele>
        <time>2014-04-20T09:15:19.621Z</time>
      </trkpt>
      <trkpt lat="47.43551" lon="6.92012">
        <ele>642</ele>
        <time>2014-04-20T09:15:24.647Z</time>
      </trkpt>
      <trkpt lat="47.43565" lon="6.92017">
        <ele>643</ele>
        <time>2014-04-20T09:15:29.628Z</time>
      </trkpt>
      <trkpt lat="47.43579" lon="6.92019">
        <ele>644</ele>
        <time>2014-04-20T09:15:34.675Z</time>
      </trkpt>
      <trkpt lat="47.43594" lon="6.9202">
        <ele>645</ele>
        <time>2014-04-20T09:15:39.633Z</time>
      </trkpt>
      <trkpt lat="47.4361" lon="6.9202">
        <ele>646</ele>
        <time>2014-04-20T09:15:44.699Z</time>
      </trkpt>
      <trkpt lat="47.43628" lon="6.92018">
        <ele>646</ele>
        <time>2014-04-20T09:15:49.639Z</time>
      </trkpt>
      <trkpt lat="47.43645" lon="6.92017">
        <ele>647</ele>
        <time>2014-04-20T09:15:54.752Z</time>
      </trkpt>
      <trkpt lat="47.43663" lon="6.92014">
        <ele>648</ele>
        <time>2014-04-20T09:15:59.706Z</time>
      </trkpt>
      <trkpt lat="47.43682" lon="6.92011">
        <ele>648</ele>
        <time>2014-04-20T09:16:04.633Z</time>
      </trkpt>
      <trkpt lat="47.43701" lon="6.92008">
        <ele>649</ele>
        <time>2014-04-20T09:16:09.703Z</time>
      </trkpt>
      <trkpt lat="47.43719" lon="6.92005">
        <ele>650</ele>
        <time>2014-04-20T09:16:14.639Z</time>
      </trkpt>
      <trkpt lat="47.43735" lon="6.92001">
        <ele>651</ele>
        <time>2014-04-20T09:16:19.701Z</time>
      </trkpt>
      <trkpt lat="47.43751" lon="6.91999">
        <ele>652</ele>
        <time>2014-04-20T09:16:24.641Z</time>
      </trkpt>
      <trkpt lat="47.43764" lon="6.91991">
        <ele>652</ele>
        <time>2014-04-20T09:16:29.703Z</time>
      </trkpt>
      <trkpt lat="47.43764" lon="6.9198">
        <ele>653</ele>
        <time>2014-04-20T09:16:34.635Z</time>
      </trkpt>
      <trkpt lat="47.43763" lon="6.91967">
        <ele>653</ele>
        <time>2014-04-20T09:16:39.697Z</time>
      </trkpt>
      <trkpt lat="47.43762" lon="6.91948">
        <ele>653</ele>
        <time>2014-04-20T09:16:44.631Z</time>
      </trkpt>
      <trkpt lat="47.43773" lon="6.91925">
        <ele>654</ele>
        <time>2014-04-20T09:16:49.701Z</time>
      </trkpt>
      <trkpt lat="47.43783" lon="6.91896">
        <ele>654</ele>
        <time>2014-04-20T09:16:54.640Z</time>
      </trkpt>
      <trkpt lat="47.43793" lon="6.91868">
        <ele>654</ele>
        <time>2014-04-20T09:16:59.669Z</time>
      </trkpt>
      <trkpt lat="47.43806" lon="6.91844">
        <ele>654</ele>
        <time>2014-04-20T09:17:04.641Z</time>
      </trkpt>
      <trkpt lat="47.43824" lon="6.91835">
        <ele>655</ele>
        <time>2014-04-20T09:17:09.680Z</time>
      </trkpt>
      <trkpt lat="47.43842" lon="6.91832">
        <ele>656</ele>
        <time>2014-04-20T09:17:14.630Z</time>
      </trkpt>
      <trkpt lat="47.4386" lon="6.9183">
        <ele>656</ele>
        <time>2014-04-20T09:17:19.703Z</time>
      </trkpt>
      <trkpt lat="47.43877" lon="6.91831">
        <ele>657</ele>
        <time>2014-04-20T09:17:24.632Z</time>
      </trkpt>
      <trkpt lat="47.43895" lon="6.91833">
        <ele>657</ele>
        <time>2014-04-20T09:17:29.698Z</time>
      </trkpt>
      <trkpt lat="47.43913" lon="6.91838">
        <ele>657</ele>
        <time>2014-04-20T09:17:34.670Z</time>
      </trkpt>
      <trkpt lat="47.43933" lon="6.91842">
        <ele>657</ele>
        <time>2014-04-20T09:17:39.640Z</time>
      </trkpt>
      <trkpt lat="47.43953" lon="6.91845">
        <ele>658</ele>
        <time>2014-04-20T09:17:44.699Z</time>
      </trkpt>
      <trkpt lat="47.43972" lon="6.91849">
        <ele>657</ele>
        <time>2014-04-20T09:17:49.631Z</time>
      </trkpt>
      <trkpt lat="47.43994" lon="6.91852">
        <ele>657</ele>
        <time>2014-04-20T09:17:54.678Z</time>
      </trkpt>
      <trkpt lat="47.44018" lon="6.91847">
        <ele>657</ele>
        <time>2014-04-20T09:17:59.632Z</time>
      </trkpt>
      <trkpt lat="47.44042" lon="6.91833">
        <ele>656</ele>
        <time>2014-04-20T09:18:04.701Z</time>
      </trkpt>
      <trkpt lat="47.44066" lon="6.91815">
        <ele>656</ele>
        <time>2014-04-20T09:18:09.641Z</time>
      </trkpt>
      <trkpt lat="47.44088" lon="6.91794">
        <ele>655</ele>
        <time>2014-04-20T09:18:14.698Z</time>
      </trkpt>
      <trkpt lat="47.4411" lon="6.91768">
        <ele>654</ele>
        <time>2014-04-20T09:18:19.637Z</time>
      </trkpt>
      <trkpt lat="47.44133" lon="6.91734">
        <ele>652</ele>
        <time>2014-04-20T09:18:24.700Z</time>
      </trkpt>
      <trkpt lat="47.4415" lon="6.91688">
        <ele>650</ele>
        <time>2014-04-20T09:18:29.630Z</time>
      </trkpt>
      <trkpt lat="47.44168" lon="6.91639">
        <ele>648</ele>
        <time>2014-04-20T09:18:34.702Z</time>
      </trkpt>
      <trkpt lat="47.44192" lon="6.91592">
        <ele>644</ele>
        <time>2014-04-20T09:18:39.633Z</time>
      </trkpt>
      <trkpt lat="47.44222" lon="6.91546">
        <ele>641</ele>
        <time>2014-04-20T09:18:44.703Z</time>
      </trkpt>
      <trkpt lat="47.4426" lon="6.91519">
        <ele>640</ele>
        <time>2014-04-20T09:18:49.644Z</time>
      </trkpt>
      <trkpt lat="47.44296" lon="6.915">
        <ele>639</ele>
        <time>2014-04-20T09:18:54.703Z</time>
      </trkpt>
      <trkpt lat="47.44328" lon="6.91481">
        <ele>639</ele>
        <time>2014-04-20T09:18:59.636Z</time>
      </trkpt>
      <trkpt lat="47.44355" lon="6.91453">
        <ele>639</ele>
        <time>2014-04-20T09:19:04.703Z</time>
      </trkpt>
      <trkpt lat="47.44377" lon="6.91425">
        <ele>640</ele>
        <time>2014-04-20T09:19:09.635Z</time>
      </trkpt>
      <trkpt lat="47.44399" lon="6.91408">
        <ele>640</ele>
        <time>2014-04-20T09:19:14.685Z</time>
      </trkpt>
      <trkpt lat="47.4442" lon="6.91397">
        <ele>641</ele>
        <time>2014-04-20T09:19:19.645Z</time>
      </trkpt>
      <trkpt lat="47.44439" lon="6.91386">
        <ele>642</ele>
        <time>2014-04-20T09:19:24.634Z</time>
      </trkpt>
      <trkpt lat="47.44455" lon="6.91376">
        <ele>643</ele>
        <time>2014-04-20T09:19:29.704Z</time>
      </trkpt>
      <trkpt lat="47.44469" lon="6.91368">
        <ele>644</ele>
        <time>2014-04-20T09:19:34.633Z</time>
      </trkpt>
      <trkpt lat="47.44484" lon="6.91361">
        <ele>644</ele>
        <time>2014-04-20T09:19:39.702Z</time>
      </trkpt>
      <trkpt lat="47.44496" lon="6.91354">
        <ele>644</ele>
        <time>2014-04-20T09:19:44.632Z</time>
      </trkpt>
      <trkpt lat="47.44507" lon="6.91345">
        <ele>645</ele>
        <time>2014-04-20T09:19:49.697Z</time>
      </trkpt>
      <trkpt lat="47.44517" lon="6.91336">
        <ele>647</ele>
        <time>2014-04-20T09:19:54.631Z</time>
      </trkpt>
      <trkpt lat="47.44527" lon="6.91326">
        <ele>647</ele>
        <time>2014-04-20T09:19:59.677Z</time>
      </trkpt>
      <trkpt lat="47.44538" lon="6.91315">
        <ele>648</ele>
        <time>2014-04-20T09:20:04.644Z</time>
      </trkpt>
      <trkpt lat="47.44547" lon="6.91306">
        <ele>648</ele>
        <time>2014-04-20T09:20:09.640Z</time>
      </trkpt>
      <trkpt lat="47.44556" lon="6.91296">
        <ele>649</ele>
        <time>2014-04-20T09:20:14.702Z</time>
      </trkpt>
      <trkpt lat="47.44564" lon="6.9129">
        <ele>650</ele>
        <time>2014-04-20T09:20:19.680Z</time>
      </trkpt>
      <trkpt lat="47.44572" lon="6.91286">
        <ele>651</ele>
        <time>2014-04-20T09:20:24.627Z</time>
      </trkpt>
      <trkpt lat="47.44581" lon="6.9128">
        <ele>652</ele>
        <time>2014-04-20T09:20:29.701Z</time>
      </trkpt>
      <trkpt lat="47.44588" lon="6.91276">
        <ele>653</ele>
        <time>2014-04-20T09:20:34.628Z</time>
      </trkpt>
      <trkpt lat="47.44597" lon="6.91271">
        <ele>653</ele>
        <time>2014-04-20T09:20:39.644Z</time>
      </trkpt>
      <trkpt lat="47.44609" lon="6.91267">
        <ele>654</ele>
        <time>2014-04-20T09:20:44.698Z</time>
      </trkpt>
      <trkpt lat="47.44618" lon="6.91266">
        <ele>655</ele>
        <time>2014-04-20T09:20:49.627Z</time>
      </trkpt>
      <trkpt lat="47.44627" lon="6.91265">
        <ele>656</ele>
        <time>2014-04-20T09:20:54.700Z</time>
      </trkpt>
      <trkpt lat="47.44675" lon="6.91247">
        <ele>662</ele>
        <time>2014-04-20T09:21:19.631Z</time>
      </trkpt>
      <trkpt lat="47.44679" lon="6.91247">
        <ele>661</ele>
        <time>2014-04-20T09:21:24.677Z</time>
      </trkpt>
      <trkpt lat="47.44686" lon="6.91251">
        <ele>661</ele>
        <time>2014-04-20T09:21:29.634Z</time>
      </trkpt>
      <trkpt lat="47.44698" lon="6.91254">
        <ele>662</ele>
        <time>2014-04-20T09:21:34.698Z</time>
      </trkpt>
      <trkpt lat="47.44719" lon="6.91259">
        <ele>663</ele>
        <time>2014-04-20T09:21:39.640Z</time>
      </trkpt>
      <trkpt lat="47.44744" lon="6.91267">
        <ele>662</ele>
        <time>2014-04-20T09:21:44.640Z</time>
      </trkpt>
      <trkpt lat="47.44769" lon="6.91277">
        <ele>662</ele>
        <time>2014-04-20T09:21:49.700Z</time>
      </trkpt>
      <trkpt lat="47.44797" lon="6.91293">
        <ele>660</ele>
        <time>2014-04-20T09:21:54.639Z</time>
      </trkpt>
      <trkpt lat="47.44829" lon="6.91313">
        <ele>659</ele>
        <time>2014-04-20T09:21:59.739Z</time>
      </trkpt>
      <trkpt lat="47.4487" lon="6.91324">
        <ele>656</ele>
        <time>2014-04-20T09:22:04.641Z</time>
      </trkpt>
      <trkpt lat="47.44918" lon="6.91339">
        <ele>654</ele>
        <time>2014-04-20T09:22:09.698Z</time>
      </trkpt>
      <trkpt lat="47.44961" lon="6.91353">
        <ele>650</ele>
        <time>2014-04-20T09:22:14.632Z</time>
      </trkpt>
      <trkpt lat="47.45007" lon="6.91357">
        <ele>648</ele>
        <time>2014-04-20T09:22:19.701Z</time>
      </trkpt>
      <trkpt lat="47.4505" lon="6.91369">
        <ele>644</ele>
        <time>2014-04-20T09:22:24.629Z</time>
      </trkpt>
      <trkpt lat="47.45084" lon="6.91378">
        <ele>642</ele>
        <time>2014-04-20T09:22:29.698Z</time>
      </trkpt>
      <trkpt lat="47.45121" lon="6.91376">
        <ele>641</ele>
        <time>2014-04-20T09:22:34.629Z</time>
      </trkpt>
      <trkpt lat="47.45157" lon="6.91381">
        <ele>643</ele>
        <time>2014-04-20T09:22:39.684Z</time>
      </trkpt>
      <trkpt lat="47.45188" lon="6.91393">
        <ele>642</ele>
        <time>2014-04-20T09:22:44.629Z</time>
      </trkpt>
      <trkpt lat="47.45227" lon="6.91394">
        <ele>641</ele>
        <time>2014-04-20T09:22:49.701Z</time>
      </trkpt>
      <trkpt lat="47.4527" lon="6.91402">
        <ele>640</ele>
        <time>2014-04-20T09:22:54.643Z</time>
      </trkpt>
      <trkpt lat="47.45308" lon="6.91408">
        <ele>639</ele>
        <time>2014-04-20T09:22:59.694Z</time>
      </trkpt>
      <trkpt lat="47.45384" lon="6.91416">
        <ele>636</ele>
        <time>2014-04-20T09:23:09.698Z</time>
      </trkpt>
      <trkpt lat="47.45421" lon="6.91419">
        <ele>634</ele>
        <time>2014-04-20T09:23:14.628Z</time>
      </trkpt>
      <trkpt lat="47.45456" lon="6.91427">
        <ele>633</ele>
        <time>2014-04-20T09:23:19.704Z</time>
      </trkpt>
      <trkpt lat="47.45488" lon="6.91439">
        <ele>630</ele>
        <time>2014-04-20T09:23:24.632Z</time>
      </trkpt>
      <trkpt lat="47.45525" lon="6.91453">
        <ele>628</ele>
        <time>2014-04-20T09:23:29.683Z</time>
      </trkpt>
      <trkpt lat="47.45559" lon="6.91484">
        <ele>622</ele>
        <time>2014-04-20T09:23:34.635Z</time>
      </trkpt>
      <trkpt lat="47.45588" lon="6.9153">
        <ele>618</ele>
        <time>2014-04-20T09:23:39.697Z</time>
      </trkpt>
      <trkpt lat="47.45619" lon="6.91574">
        <ele>612</ele>
        <time>2014-04-20T09:23:44.629Z</time>
      </trkpt>
      <trkpt lat="47.45649" lon="6.91597">
        <ele>610</ele>
        <time>2014-04-20T09:23:49.698Z</time>
      </trkpt>
      <trkpt lat="47.45668" lon="6.91587">
        <ele>610</ele>
        <time>2014-04-20T09:23:54.633Z</time>
      </trkpt>
      <trkpt lat="47.45682" lon="6.91578">
        <ele>609</ele>
        <time>2014-04-20T09:23:59.666Z</time>
      </trkpt>
      <trkpt lat="47.4569" lon="6.91574">
        <ele>608</ele>
        <time>2014-04-20T09:24:04.627Z</time>
      </trkpt>
      <trkpt lat="47.45691" lon="6.91568">
        <ele>609</ele>
        <time>2014-04-20T09:24:09.699Z</time>
      </trkpt>
      <trkpt lat="47.45689" lon="6.91575">
        <ele>610</ele>
        <time>2014-04-20T09:24:14.688Z</time>
      </trkpt>
      <trkpt lat="47.45694" lon="6.91571">
        <ele>611</ele>
        <time>2014-04-20T09:24:19.638Z</time>
      </trkpt>
      <trkpt lat="47.45694" lon="6.91565">
        <ele>611</ele>
        <time>2014-04-20T09:24:24.698Z</time>
      </trkpt>
      <trkpt lat="47.45693" lon="6.91565">
        <ele>611</ele>
        <time>2014-04-20T09:24:29.673Z</time>
      </trkpt>
      <trkpt lat="47.45693" lon="6.91565">
        <ele>611</ele>
        <time>2014-04-20T09:24:34.681Z</time>
      </trkpt>
      <trkpt lat="47.45693" lon="6.91565">
        <ele>611</ele>
        <time>2014-04-20T09:24:39.618Z</time>
      </trkpt>
      <trkpt lat="47.45694" lon="6.91565">
        <ele>611</ele>
        <time>2014-04-20T09:24:44.670Z</time>
      </trkpt>
      <trkpt lat="47.45694" lon="6.91565">
        <ele>611</ele>
        <time>2014-04-20T09:24:49.599Z</time>
      </trkpt>
      <trkpt lat="47.45694" lon="6.91566">
        <ele>611</ele>
        <time>2014-04-20T09:24:54.683Z</time>
      </trkpt>
      <trkpt lat="47.45692" lon="6.91562">
        <ele>611</ele>
        <time>2014-04-20T09:24:59.635Z</time>
      </trkpt>
      <trkpt lat="47.45698" lon="6.91541">
        <ele>608</ele>
        <time>2014-04-20T09:25:04.701Z</time>
      </trkpt>
      <trkpt lat="47.45716" lon="6.91512">
        <ele>606</ele>
        <time>2014-04-20T09:25:09.637Z</time>
      </trkpt>
      <trkpt lat="47.45735" lon="6.9147">
        <ele>604</ele>
        <time>2014-04-20T09:25:14.682Z</time>
      </trkpt>
      <trkpt lat="47.45753" lon="6.91432">
        <ele>603</ele>
        <time>2014-04-20T09:25:19.638Z</time>
      </trkpt>
      <trkpt lat="47.4578" lon="6.91412">
        <ele>599</ele>
        <time>2014-04-20T09:25:24.703Z</time>
      </trkpt>
      <trkpt lat="47.45814" lon="6.91427">
        <ele>596</ele>
        <time>2014-04-20T09:25:29.629Z</time>
      </trkpt>
      <trkpt lat="47.45841" lon="6.91433">
        <ele>593</ele>
        <time>2014-04-20T09:25:34.689Z</time>
      </trkpt>
      <trkpt lat="47.45867" lon="6.91427">
        <ele>592</ele>
        <time>2014-04-20T09:25:39.638Z</time>
      </trkpt>
      <trkpt lat="47.45894" lon="6.91418">
        <ele>594</ele>
        <time>2014-04-20T09:25:44.702Z</time>
      </trkpt>
      <trkpt lat="47.45919" lon="6.9141">
        <ele>595</ele>
        <time>2014-04-20T09:25:49.637Z</time>
      </trkpt>
      <trkpt lat="47.45938" lon="6.914">
        <ele>594</ele>
        <time>2014-04-20T09:25:54.683Z</time>
      </trkpt>
      <trkpt lat="47.45957" lon="6.91392">
        <ele>593</ele>
        <time>2014-04-20T09:25:59.625Z</time>
      </trkpt>
      <trkpt lat="47.45971" lon="6.91388">
        <ele>591</ele>
        <time>2014-04-20T09:26:04.702Z</time>
      </trkpt>
      <trkpt lat="47.45979" lon="6.91387">
        <ele>591</ele>
        <time>2014-04-20T09:26:09.636Z</time>
      </trkpt>
      <trkpt lat="47.45986" lon="6.91377">
        <ele>591</ele>
        <time>2014-04-20T09:26:14.703Z</time>
      </trkpt>
      <trkpt lat="47.46003" lon="6.91364">
        <ele>590</ele>
        <time>2014-04-20T09:26:19.626Z</time>
      </trkpt>
      <trkpt lat="47.4602" lon="6.91339">
        <ele>590</ele>
        <time>2014-04-20T09:26:24.702Z</time>
      </trkpt>
      <trkpt lat="47.46038" lon="6.91325">
        <ele>590</ele>
        <time>2014-04-20T09:26:29.627Z</time>
      </trkpt>
      <trkpt lat="47.46055" lon="6.91306">
        <ele>589</ele>
        <time>2014-04-20T09:26:34.792Z</time>
      </trkpt>
      <trkpt lat="47.46073" lon="6.91291">
        <ele>589</ele>
        <time>2014-04-20T09:26:39.792Z</time>
      </trkpt>
      <trkpt lat="47.46088" lon="6.91262">
        <ele>587</ele>
        <time>2014-04-20T09:26:44.705Z</time>
      </trkpt>
      <trkpt lat="47.46101" lon="6.91236">
        <ele>584</ele>
        <time>2014-04-20T09:26:49.647Z</time>
      </trkpt>
      <trkpt lat="47.46124" lon="6.91207">
        <ele>581</ele>
        <time>2014-04-20T09:26:59.618Z</time>
      </trkpt>
      <trkpt lat="47.46126" lon="6.91182">
        <ele>578</ele>
        <time>2014-04-20T09:27:04.706Z</time>
      </trkpt>
      <trkpt lat="47.46128" lon="6.91166">
        <ele>576</ele>
        <time>2014-04-20T09:27:09.635Z</time>
      </trkpt>
      <trkpt lat="47.46128" lon="6.91164">
        <ele>576</ele>
        <time>2014-04-20T09:27:14.704Z</time>
      </trkpt>
      <trkpt lat="47.46139" lon="6.91124">
        <ele>573</ele>
        <time>2014-04-20T09:27:19.637Z</time>
      </trkpt>
      <trkpt lat="47.46159" lon="6.91079">
        <ele>569</ele>
        <time>2014-04-20T09:27:24.670Z</time>
      </trkpt>
      <trkpt lat="47.46161" lon="6.91031">
        <ele>565</ele>
        <time>2014-04-20T09:27:29.629Z</time>
      </trkpt>
      <trkpt lat="47.46152" lon="6.90979">
        <ele>560</ele>
        <time>2014-04-20T09:27:34.698Z</time>
      </trkpt>
      <trkpt lat="47.46142" lon="6.90927">
        <ele>556</ele>
        <time>2014-04-20T09:27:39.628Z</time>
      </trkpt>
      <trkpt lat="47.46154" lon="6.90869">
        <ele>551</ele>
        <time>2014-04-20T09:27:44.670Z</time>
      </trkpt>
      <trkpt lat="47.46162" lon="6.9081">
        <ele>545</ele>
        <time>2014-04-20T09:27:49.633Z</time>
      </trkpt>
      <trkpt lat="47.46172" lon="6.9075">
        <ele>540</ele>
        <time>2014-04-20T09:27:54.699Z</time>
      </trkpt>
      <trkpt lat="47.46257" lon="6.90568">
        <ele>521</ele>
        <time>2014-04-20T09:28:19.606Z</time>
      </trkpt>
      <trkpt lat="47.46278" lon="6.90533">
        <ele>517</ele>
        <time>2014-04-20T09:28:24.701Z</time>
      </trkpt>
      <trkpt lat="47.46309" lon="6.90522">
        <ele>514</ele>
        <time>2014-04-20T09:28:29.628Z</time>
      </trkpt>
      <trkpt lat="47.46341" lon="6.90508">
        <ele>511</ele>
        <time>2014-04-20T09:28:34.701Z</time>
      </trkpt>
      <trkpt lat="47.46374" lon="6.90481">
        <ele>510</ele>
        <time>2014-04-20T09:28:39.638Z</time>
      </trkpt>
      <trkpt lat="47.4639" lon="6.90439">
        <ele>508</ele>
        <time>2014-04-20T09:28:44.773Z</time>
      </trkpt>
      <trkpt lat="47.46397" lon="6.904">
        <ele>506</ele>
        <time>2014-04-20T09:28:49.702Z</time>
      </trkpt>
      <trkpt lat="47.46415" lon="6.90373">
        <ele>504</ele>
        <time>2014-04-20T09:28:54.632Z</time>
      </trkpt>
      <trkpt lat="47.46449" lon="6.90365">
        <ele>502</ele>
        <time>2014-04-20T09:28:59.694Z</time>
      </trkpt>
      <trkpt lat="47.46484" lon="6.90366">
        <ele>499</ele>
        <time>2014-04-20T09:29:04.630Z</time>
      </trkpt>
      <trkpt lat="47.46512" lon="6.90341">
        <ele>496</ele>
        <time>2014-04-20T09:29:09.708Z</time>
      </trkpt>
      <trkpt lat="47.46547" lon="6.90296">
        <ele>493</ele>
        <time>2014-04-20T09:29:14.632Z</time>
      </trkpt>
      <trkpt lat="47.46575" lon="6.90258">
        <ele>490</ele>
        <time>2014-04-20T09:29:19.672Z</time>
      </trkpt>
      <trkpt lat="47.46588" lon="6.9024">
        <ele>489</ele>
        <time>2014-04-20T09:29:24.631Z</time>
      </trkpt>
      <trkpt lat="47.46597" lon="6.90215">
        <ele>487</ele>
        <time>2014-04-20T09:29:29.700Z</time>
      </trkpt>
      <trkpt lat="47.46623" lon="6.90185">
        <ele>485</ele>
        <time>2014-04-20T09:29:34.635Z</time>
      </trkpt>
      <trkpt lat="47.46654" lon="6.90162">
        <ele>483</ele>
        <time>2014-04-20T09:29:39.707Z</time>
      </trkpt>
      <trkpt lat="47.46682" lon="6.90141">
        <ele>482</ele>
        <time>2014-04-20T09:29:44.634Z</time>
      </trkpt>
      <trkpt lat="47.46705" lon="6.90127">
        <ele>483</ele>
        <time>2014-04-20T09:29:49.681Z</time>
      </trkpt>
      <trkpt lat="47.46721" lon="6.90119">
        <ele>483</ele>
        <time>2014-04-20T09:29:54.602Z</time>
      </trkpt>
      <trkpt lat="47.46733" lon="6.9011">
        <ele>483</ele>
        <time>2014-04-20T09:29:59.704Z</time>
      </trkpt>
      <trkpt lat="47.46735" lon="6.90084">
        <ele>482</ele>
        <time>2014-04-20T09:30:04.644Z</time>
      </trkpt>
      <trkpt lat="47.46756" lon="6.90044">
        <ele>484</ele>
        <time>2014-04-20T09:30:14.639Z</time>
      </trkpt>
      <trkpt lat="47.46773" lon="6.90029">
        <ele>484</ele>
        <time>2014-04-20T09:30:19.702Z</time>
      </trkpt>
      <trkpt lat="47.46789" lon="6.9001">
        <ele>484</ele>
        <time>2014-04-20T09:30:24.675Z</time>
      </trkpt>
      <trkpt lat="47.46803" lon="6.8999">
        <ele>485</ele>
        <time>2014-04-20T09:30:29.631Z</time>
      </trkpt>
      <trkpt lat="47.46818" lon="6.89969">
        <ele>486</ele>
        <time>2014-04-20T09:30:34.673Z</time>
      </trkpt>
      <trkpt lat="47.46835" lon="6.89942">
        <ele>486</ele>
        <time>2014-04-20T09:30:39.631Z</time>
      </trkpt>
      <trkpt lat="47.46852" lon="6.89915">
        <ele>487</ele>
        <time>2014-04-20T09:30:44.701Z</time>
      </trkpt>
      <trkpt lat="47.46867" lon="6.89892">
        <ele>489</ele>
        <time>2014-04-20T09:30:49.633Z</time>
      </trkpt>
      <trkpt lat="47.46879" lon="6.8987">
        <ele>492</ele>
        <time>2014-04-20T09:30:54.699Z</time>
      </trkpt>
      <trkpt lat="47.46887" lon="6.89844">
        <ele>493</ele>
        <time>2014-04-20T09:30:59.637Z</time>
      </trkpt>
      <trkpt lat="47.46887" lon="6.89813">
        <ele>493</ele>
        <time>2014-04-20T09:31:04.701Z</time>
      </trkpt>
      <trkpt lat="47.46887" lon="6.89786">
        <ele>493</ele>
        <time>2014-04-20T09:31:09.642Z</time>
      </trkpt>
      <trkpt lat="47.46887" lon="6.89756">
        <ele>492</ele>
        <time>2014-04-20T09:31:14.701Z</time>
      </trkpt>
      <trkpt lat="47.46887" lon="6.89721">
        <ele>492</ele>
        <time>2014-04-20T09:31:19.642Z</time>
      </trkpt>
      <trkpt lat="47.46885" lon="6.89685">
        <ele>491</ele>
        <time>2014-04-20T09:31:24.685Z</time>
      </trkpt>
      <trkpt lat="47.46883" lon="6.89646">
        <ele>491</ele>
        <time>2014-04-20T09:31:29.634Z</time>
      </trkpt>
      <trkpt lat="47.46881" lon="6.89611">
        <ele>490</ele>
        <time>2014-04-20T09:31:34.702Z</time>
      </trkpt>
      <trkpt lat="47.4688" lon="6.89577">
        <ele>489</ele>
        <time>2014-04-20T09:31:39.644Z</time>
      </trkpt>
      <trkpt lat="47.46879" lon="6.89545">
        <ele>489</ele>
        <time>2014-04-20T09:31:44.702Z</time>
      </trkpt>
      <trkpt lat="47.46877" lon="6.89519">
        <ele>489</ele>
        <time>2014-04-20T09:31:49.688Z</time>
      </trkpt>
      <trkpt lat="47.46875" lon="6.895">
        <ele>489</ele>
        <time>2014-04-20T09:31:54.641Z</time>
      </trkpt>
      <trkpt lat="47.46881" lon="6.89491">
        <ele>488</ele>
        <time>2014-04-20T09:31:59.704Z</time>
      </trkpt>
      <trkpt lat="47.46898" lon="6.89484">
        <ele>487</ele>
        <time>2014-04-20T09:32:04.636Z</time>
      </trkpt>
      <trkpt lat="47.46919" lon="6.89474">
        <ele>487</ele>
        <time>2014-04-20T09:32:09.702Z</time>
      </trkpt>
      <trkpt lat="47.46947" lon="6.8946">
        <ele>486</ele>
        <time>2014-04-20T09:32:14.645Z</time>
      </trkpt>
      <trkpt lat="47.46977" lon="6.89436">
        <ele>484</ele>
        <time>2014-04-20T09:32:19.703Z</time>
      </trkpt>
      <trkpt lat="47.46997" lon="6.89393">
        <ele>482</ele>
        <time>2014-04-20T09:32:24.637Z</time>
      </trkpt>
      <trkpt lat="47.47011" lon="6.89337">
        <ele>478</ele>
        <time>2014-04-20T09:32:29.668Z</time>
      </trkpt>
      <trkpt lat="47.4703" lon="6.89278">
        <ele>474</ele>
        <time>2014-04-20T09:32:34.634Z</time>
      </trkpt>
      <trkpt lat="47.47051" lon="6.89226">
        <ele>471</ele>
        <time>2014-04-20T09:32:39.700Z</time>
      </trkpt>
      <trkpt lat="47.47065" lon="6.8918">
        <ele>469</ele>
        <time>2014-04-20T09:32:44.633Z</time>
      </trkpt>
      <trkpt lat="47.47087" lon="6.89177">
        <ele>468</ele>
        <time>2014-04-20T09:32:49.701Z</time>
      </trkpt>
      <trkpt lat="47.4711" lon="6.89178">
        <ele>466</ele>
        <time>2014-04-20T09:32:54.642Z</time>
      </trkpt>
      <trkpt lat="47.47142" lon="6.8918">
        <ele>464</ele>
        <time>2014-04-20T09:32:59.698Z</time>
      </trkpt>
      <trkpt lat="47.47167" lon="6.89183">
        <ele>462</ele>
        <time>2014-04-20T09:33:04.634Z</time>
      </trkpt>
      <trkpt lat="47.47204" lon="6.89188">
        <ele>459</ele>
        <time>2014-04-20T09:33:09.702Z</time>
      </trkpt>
      <trkpt lat="47.47242" lon="6.89198">
        <ele>455</ele>
        <time>2014-04-20T09:33:14.640Z</time>
      </trkpt>
      <trkpt lat="47.47281" lon="6.89208">
        <ele>451</ele>
        <time>2014-04-20T09:33:19.692Z</time>
      </trkpt>
      <trkpt lat="47.47324" lon="6.8921">
        <ele>448</ele>
        <time>2014-04-20T09:33:24.630Z</time>
      </trkpt>
      <trkpt lat="47.47358" lon="6.89206">
        <ele>448</ele>
        <time>2014-04-20T09:33:29.702Z</time>
      </trkpt>
      <trkpt lat="47.47386" lon="6.89201">
        <ele>448</ele>
        <time>2014-04-20T09:33:34.668Z</time>
      </trkpt>
      <trkpt lat="47.47415" lon="6.89197">
        <ele>448</ele>
        <time>2014-04-20T09:33:39.628Z</time>
      </trkpt>
      <trkpt lat="47.47444" lon="6.89195">
        <ele>447</ele>
        <time>2014-04-20T09:33:44.702Z</time>
      </trkpt>
      <trkpt lat="47.47475" lon="6.892">
        <ele>446</ele>
        <time>2014-04-20T09:33:49.641Z</time>
      </trkpt>
      <trkpt lat="47.47499" lon="6.89222">
        <ele>445</ele>
        <time>2014-04-20T09:33:54.703Z</time>
      </trkpt>
      <trkpt lat="47.4753" lon="6.8922">
        <ele>443</ele>
        <time>2014-04-20T09:33:59.631Z</time>
      </trkpt>
      <trkpt lat="47.47563" lon="6.89215">
        <ele>443</ele>
        <time>2014-04-20T09:34:04.693Z</time>
      </trkpt>
      <trkpt lat="47.47589" lon="6.89234">
        <ele>442</ele>
        <time>2014-04-20T09:34:09.638Z</time>
      </trkpt>
      <trkpt lat="47.47598" lon="6.89276">
        <ele>441</ele>
        <time>2014-04-20T09:34:14.696Z</time>
      </trkpt>
      <trkpt lat="47.47611" lon="6.89274">
        <ele>441</ele>
        <time>2014-04-20T09:34:19.633Z</time>
      </trkpt>
      <trkpt lat="47.47612" lon="6.89244">
        <ele>442</ele>
        <time>2014-04-20T09:34:24.703Z</time>
      </trkpt>
      <trkpt lat="47.47609" lon="6.89213">
        <ele>442</ele>
        <time>2014-04-20T09:34:29.629Z</time>
      </trkpt>
      <trkpt lat="47.47615" lon="6.89196">
        <ele>441</ele>
        <time>2014-04-20T09:34:34.848Z</time>
      </trkpt>
      <trkpt lat="47.47634" lon="6.89185">
        <ele>441</ele>
        <time>2014-04-20T09:34:39.631Z</time>
      </trkpt>
      <trkpt lat="47.47659" lon="6.89171">
        <ele>440</ele>
        <time>2014-04-20T09:34:44.699Z</time>
      </trkpt>
      <trkpt lat="47.47684" lon="6.89161">
        <ele>441</ele>
        <time>2014-04-20T09:34:49.633Z</time>
      </trkpt>
      <trkpt lat="47.47707" lon="6.89159">
        <ele>441</ele>
        <time>2014-04-20T09:34:54.702Z</time>
      </trkpt>
      <trkpt lat="47.47744" lon="6.8922">
        <ele>443</ele>
        <time>2014-04-20T09:35:09.937Z</time>
      </trkpt>
      <trkpt lat="47.47749" lon="6.89234">
        <ele>445</ele>
        <time>2014-04-20T09:35:14.660Z</time>
      </trkpt>
      <trkpt lat="47.47761" lon="6.89243">
        <ele>447</ele>
        <time>2014-04-20T09:35:19.637Z</time>
      </trkpt>
      <trkpt lat="47.47775" lon="6.89234">
        <ele>447</ele>
        <time>2014-04-20T09:35:24.697Z</time>
      </trkpt>
      <trkpt lat="47.47789" lon="6.89224">
        <ele>447</ele>
        <time>2014-04-20T09:35:29.643Z</time>
      </trkpt>
      <trkpt lat="47.47804" lon="6.89212">
        <ele>446</ele>
        <time>2014-04-20T09:35:34.702Z</time>
      </trkpt>
      <trkpt lat="47.47818" lon="6.89195">
        <ele>447</ele>
        <time>2014-04-20T09:35:39.701Z</time>
      </trkpt>
      <trkpt lat="47.47832" lon="6.89176">
        <ele>447</ele>
        <time>2014-04-20T09:35:44.628Z</time>
      </trkpt>
      <trkpt lat="47.47849" lon="6.89155">
        <ele>447</ele>
        <time>2014-04-20T09:35:49.703Z</time>
      </trkpt>
      <trkpt lat="47.47866" lon="6.89134">
        <ele>447</ele>
        <time>2014-04-20T09:35:54.631Z</time>
      </trkpt>
      <trkpt lat="47.47882" lon="6.89108">
        <ele>447</ele>
        <time>2014-04-20T09:35:59.701Z</time>
      </trkpt>
      <trkpt lat="47.47897" lon="6.89085">
        <ele>447</ele>
        <time>2014-04-20T09:36:04.637Z</time>
      </trkpt>
      <trkpt lat="47.47911" lon="6.89062">
        <ele>448</ele>
        <time>2014-04-20T09:36:09.681Z</time>
      </trkpt>
      <trkpt lat="47.47924" lon="6.89041">
        <ele>449</ele>
        <time>2014-04-20T09:36:14.632Z</time>
      </trkpt>
      <trkpt lat="47.47932" lon="6.89016">
        <ele>451</ele>
        <time>2014-04-20T09:36:19.705Z</time>
      </trkpt>
      <trkpt lat="47.47936" lon="6.88989">
        <ele>451</ele>
        <time>2014-04-20T09:36:24.629Z</time>
      </trkpt>
      <trkpt lat="47.47937" lon="6.8896">
        <ele>452</ele>
        <time>2014-04-20T09:36:29.704Z</time>
      </trkpt>
      <trkpt lat="47.47939" lon="6.88927">
        <ele>453</ele>
        <time>2014-04-20T09:36:34.627Z</time>
      </trkpt>
      <trkpt lat="47.47946" lon="6.88901">
        <ele>453</ele>
        <time>2014-04-20T09:36:39.703Z</time>
      </trkpt>
      <trkpt lat="47.47961" lon="6.88891">
        <ele>453</ele>
        <time>2014-04-20T09:36:44.703Z</time>
      </trkpt>
      <trkpt lat="47.47979" lon="6.88883">
        <ele>453</ele>
        <time>2014-04-20T09:36:49.639Z</time>
      </trkpt>
      <trkpt lat="47.47996" lon="6.88872">
        <ele>453</ele>
        <time>2014-04-20T09:36:54.702Z</time>
      </trkpt>
      <trkpt lat="47.48064" lon="6.88828">
        <ele>457</ele>
        <time>2014-04-20T09:37:19.617Z</time>
      </trkpt>
      <trkpt lat="47.48077" lon="6.88819">
        <ele>458</ele>
        <time>2014-04-20T09:37:24.699Z</time>
      </trkpt>
      <trkpt lat="47.48088" lon="6.88811">
        <ele>460</ele>
        <time>2014-04-20T09:37:29.628Z</time>
      </trkpt>
      <trkpt lat="47.48099" lon="6.88803">
        <ele>461</ele>
        <time>2014-04-20T09:37:34.701Z</time>
      </trkpt>
      <trkpt lat="47.48109" lon="6.88793">
        <ele>461</ele>
        <time>2014-04-20T09:37:39.634Z</time>
      </trkpt>
      <trkpt lat="47.48119" lon="6.88784">
        <ele>463</ele>
        <time>2014-04-20T09:37:44.681Z</time>
      </trkpt>
      <trkpt lat="47.4813" lon="6.88778">
        <ele>464</ele>
        <time>2014-04-20T09:37:49.632Z</time>
      </trkpt>
      <trkpt lat="47.48143" lon="6.88773">
        <ele>466</ele>
        <time>2014-04-20T09:37:54.678Z</time>
      </trkpt>
      <trkpt lat="47.48157" lon="6.88769">
        <ele>466</ele>
        <time>2014-04-20T09:37:59.625Z</time>
      </trkpt>
      <trkpt lat="47.48171" lon="6.88764">
        <ele>467</ele>
        <time>2014-04-20T09:38:04.702Z</time>
      </trkpt>
      <trkpt lat="47.48185" lon="6.8876">
        <ele>468</ele>
        <time>2014-04-20T09:38:09.629Z</time>
      </trkpt>
      <trkpt lat="47.48199" lon="6.88753">
        <ele>469</ele>
        <time>2014-04-20T09:38:14.701Z</time>
      </trkpt>
      <trkpt lat="47.48208" lon="6.88752">
        <ele>469</ele>
        <time>2014-04-20T09:38:19.625Z</time>
      </trkpt>
      <trkpt lat="47.48214" lon="6.88752">
        <ele>469</ele>
        <time>2014-04-20T09:38:24.700Z</time>
      </trkpt>
      <trkpt lat="47.48219" lon="6.88749">
        <ele>470</ele>
        <time>2014-04-20T09:38:29.634Z</time>
      </trkpt>
      <trkpt lat="47.48218" lon="6.88748">
        <ele>471</ele>
        <time>2014-04-20T09:38:34.701Z</time>
      </trkpt>
      <trkpt lat="47.48218" lon="6.88748">
        <ele>471</ele>
        <time>2014-04-20T09:38:39.630Z</time>
      </trkpt>
      <trkpt lat="47.48218" lon="6.88748">
        <ele>471</ele>
        <time>2014-04-20T09:38:44.633Z</time>
      </trkpt>
      <trkpt lat="47.48218" lon="6.88748">
        <ele>472</ele>
        <time>2014-04-20T09:38:49.677Z</time>
      </trkpt>
      <trkpt lat="47.48218" lon="6.88748">
        <ele>472</ele>
        <time>2014-04-20T09:38:54.600Z</time>
      </trkpt>
      <trkpt lat="47.48218" lon="6.88748">
        <ele>472</ele>
        <time>2014-04-20T09:38:59.703Z</time>
      </trkpt>
      <trkpt lat="47.48218" lon="6.88748">
        <ele>472</ele>
        <time>2014-04-20T09:39:04.635Z</time>
      </trkpt>
      <trkpt lat="47.4822" lon="6.88748">
        <ele>472</ele>
        <time>2014-04-20T09:39:14.628Z</time>
      </trkpt>
      <trkpt lat="47.48226" lon="6.88747">
        <ele>472</ele>
        <time>2014-04-20T09:39:19.680Z</time>
      </trkpt>
      <trkpt lat="47.48232" lon="6.88742">
        <ele>473</ele>
        <time>2014-04-20T09:39:24.630Z</time>
      </trkpt>
      <trkpt lat="47.48242" lon="6.88737">
        <ele>474</ele>
        <time>2014-04-20T09:39:29.701Z</time>
      </trkpt>
      <trkpt lat="47.48251" lon="6.88724">
        <ele>474</ele>
        <time>2014-04-20T09:39:34.637Z</time>
      </trkpt>
      <trkpt lat="47.48245" lon="6.88697">
        <ele>474</ele>
        <time>2014-04-20T09:39:39.706Z</time>
      </trkpt>
      <trkpt lat="47.48239" lon="6.88671">
        <ele>475</ele>
        <time>2014-04-20T09:39:44.627Z</time>
      </trkpt>
      <trkpt lat="47.48229" lon="6.88639">
        <ele>474</ele>
        <time>2014-04-20T09:39:50.009Z</time>
      </trkpt>
      <trkpt lat="47.48218" lon="6.88602">
        <ele>473</ele>
        <time>2014-04-20T09:39:54.700Z</time>
      </trkpt>
      <trkpt lat="47.48208" lon="6.88566">
        <ele>472</ele>
        <time>2014-04-20T09:39:59.626Z</time>
      </trkpt>
      <trkpt lat="47.48194" lon="6.88519">
        <ele>471</ele>
        <time>2014-04-20T09:40:04.700Z</time>
      </trkpt>
      <trkpt lat="47.4819" lon="6.88498">
        <ele>470</ele>
        <time>2014-04-20T09:40:09.631Z</time>
      </trkpt>
      <trkpt lat="47.48202" lon="6.88506">
        <ele>468</ele>
        <time>2014-04-20T09:40:14.703Z</time>
      </trkpt>
      <trkpt lat="47.48221" lon="6.88512">
        <ele>467</ele>
        <time>2014-04-20T09:40:19.631Z</time>
      </trkpt>
      <trkpt lat="47.48243" lon="6.88517">
        <ele>466</ele>
        <time>2014-04-20T09:40:24.696Z</time>
      </trkpt>
      <trkpt lat="47.4826" lon="6.88515">
        <ele>468</ele>
        <time>2014-04-20T09:40:29.628Z</time>
      </trkpt>
      <trkpt lat="47.48279" lon="6.88515">
        <ele>469</ele>
        <time>2014-04-20T09:40:34.682Z</time>
      </trkpt>
      <trkpt lat="47.48299" lon="6.88516">
        <ele>471</ele>
        <time>2014-04-20T09:40:39.635Z</time>
      </trkpt>
      <trkpt lat="47.48324" lon="6.88517">
        <ele>473</ele>
        <time>2014-04-20T09:40:44.700Z</time>
      </trkpt>
      <trkpt lat="47.48345" lon="6.88512">
        <ele>474</ele>
        <time>2014-04-20T09:40:49.630Z</time>
      </trkpt>
      <trkpt lat="47.48368" lon="6.88509">
        <ele>474</ele>
        <time>2014-04-20T09:40:54.680Z</time>
      </trkpt>
      <trkpt lat="47.48392" lon="6.88497">
        <ele>474</ele>
        <time>2014-04-20T09:40:59.623Z</time>
      </trkpt>
      <trkpt lat="47.48413" lon="6.88483">
        <ele>474</ele>
        <time>2014-04-20T09:41:04.675Z</time>
      </trkpt>
      <trkpt lat="47.4843" lon="6.88474">
        <ele>474</ele>
        <time>2014-04-20T09:41:09.632Z</time>
      </trkpt>
      <trkpt lat="47.48447" lon="6.88462">
        <ele>474</ele>
        <time>2014-04-20T09:41:14.700Z</time>
      </trkpt>
      <trkpt lat="47.48466" lon="6.88451">
        <ele>474</ele>
        <time>2014-04-20T09:41:19.635Z</time>
      </trkpt>
      <trkpt lat="47.48483" lon="6.8844">
        <ele>474</ele>
        <time>2014-04-20T09:41:24.679Z</time>
      </trkpt>
      <trkpt lat="47.48504" lon="6.88428">
        <ele>475</ele>
        <time>2014-04-20T09:41:29.626Z</time>
      </trkpt>
      <trkpt lat="47.48524" lon="6.88423">
        <ele>476</ele>
        <time>2014-04-20T09:41:34.700Z</time>
      </trkpt>
      <trkpt lat="47.48536" lon="6.88415">
        <ele>477</ele>
        <time>2014-04-20T09:41:39.636Z</time>
      </trkpt>
      <trkpt lat="47.48552" lon="6.88409">
        <ele>478</ele>
        <time>2014-04-20T09:41:44.704Z</time>
      </trkpt>
      <trkpt lat="47.48576" lon="6.88406">
        <ele>478</ele>
        <time>2014-04-20T09:41:49.634Z</time>
      </trkpt>
      <trkpt lat="47.48599" lon="6.88398">
        <ele>476</ele>
        <time>2014-04-20T09:41:54.860Z</time>
      </trkpt>
      <trkpt lat="47.48625" lon="6.8839">
        <ele>476</ele>
        <time>2014-04-20T09:41:59.634Z</time>
      </trkpt>
      <trkpt lat="47.48654" lon="6.88384">
        <ele>475</ele>
        <time>2014-04-20T09:42:04.702Z</time>
      </trkpt>
      <trkpt lat="47.48682" lon="6.88378">
        <ele>474</ele>
        <time>2014-04-20T09:42:09.635Z</time>
      </trkpt>
      <trkpt lat="47.48709" lon="6.8836">
        <ele>473</ele>
        <time>2014-04-20T09:42:14.702Z</time>
      </trkpt>
      <trkpt lat="47.48738" lon="6.88343">
        <ele>471</ele>
        <time>2014-04-20T09:42:19.626Z</time>
      </trkpt>
      <trkpt lat="47.48769" lon="6.88331">
        <ele>469</ele>
        <time>2014-04-20T09:42:24.697Z</time>
      </trkpt>
      <trkpt lat="47.48798" lon="6.88312">
        <ele>468</ele>
        <time>2014-04-20T09:42:29.698Z</time>
      </trkpt>
      <trkpt lat="47.4883" lon="6.88292">
        <ele>467</ele>
        <time>2014-04-20T09:42:34.639Z</time>
      </trkpt>
      <trkpt lat="47.48863" lon="6.88283">
        <ele>467</ele>
        <time>2014-04-20T09:42:39.669Z</time>
      </trkpt>
      <trkpt lat="47.4889" lon="6.88271">
        <ele>467</ele>
        <time>2014-04-20T09:42:44.622Z</time>
      </trkpt>
      <trkpt lat="47.4891" lon="6.88262">
        <ele>467</ele>
        <time>2014-04-20T09:42:49.697Z</time>
      </trkpt>
      <trkpt lat="47.48933" lon="6.8825">
        <ele>467</ele>
        <time>2014-04-20T09:42:54.632Z</time>
      </trkpt>
      <trkpt lat="47.49037" lon="6.88218">
        <ele>472</ele>
        <time>2014-04-20T09:43:19.704Z</time>
      </trkpt>
      <trkpt lat="47.49061" lon="6.88224">
        <ele>471</ele>
        <time>2014-04-20T09:43:24.628Z</time>
      </trkpt>
      <trkpt lat="47.49086" lon="6.88215">
        <ele>469</ele>
        <time>2014-04-20T09:43:29.703Z</time>
      </trkpt>
      <trkpt lat="47.49112" lon="6.88212">
        <ele>468</ele>
        <time>2014-04-20T09:43:34.633Z</time>
      </trkpt>
      <trkpt lat="47.49146" lon="6.8821">
        <ele>467</ele>
        <time>2014-04-20T09:43:39.631Z</time>
      </trkpt>
      <trkpt lat="47.4918" lon="6.88213">
        <ele>464</ele>
        <time>2014-04-20T09:43:44.701Z</time>
      </trkpt>
      <trkpt lat="47.49214" lon="6.88219">
        <ele>462</ele>
        <time>2014-04-20T09:43:49.633Z</time>
      </trkpt>
      <trkpt lat="47.49239" lon="6.88231">
        <ele>459</ele>
        <time>2014-04-20T09:43:54.698Z</time>
      </trkpt>
      <trkpt lat="47.49243" lon="6.88223">
        <ele>456</ele>
        <time>2014-04-20T09:43:59.603Z</time>
      </trkpt>
      <trkpt lat="47.49256" lon="6.8821">
        <ele>455</ele>
        <time>2014-04-20T09:44:04.701Z</time>
      </trkpt>
      <trkpt lat="47.49267" lon="6.88215">
        <ele>456</ele>
        <time>2014-04-20T09:44:09.633Z</time>
      </trkpt>
      <trkpt lat="47.49268" lon="6.88217">
        <ele>456</ele>
        <time>2014-04-20T09:44:14.702Z</time>
      </trkpt>
      <trkpt lat="47.49268" lon="6.88217">
        <ele>456</ele>
        <time>2014-04-20T09:44:19.628Z</time>
      </trkpt>
      <trkpt lat="47.49267" lon="6.88216">
        <ele>457</ele>
        <time>2014-04-20T09:44:24.698Z</time>
      </trkpt>
      <trkpt lat="47.49267" lon="6.88216">
        <ele>457</ele>
        <time>2014-04-20T09:44:29.736Z</time>
      </trkpt>
      <trkpt lat="47.49267" lon="6.88216">
        <ele>457</ele>
        <time>2014-04-20T09:44:34.698Z</time>
      </trkpt>
      <trkpt lat="47.49267" lon="6.88216">
        <ele>457</ele>
        <time>2014-04-20T09:44:39.625Z</time>
      </trkpt>
      <trkpt lat="47.49267" lon="6.88216">
        <ele>457</ele>
        <time>2014-04-20T09:44:44.699Z</time>
      </trkpt>
      <trkpt lat="47.49267" lon="6.88216">
        <ele>457</ele>
        <time>2014-04-20T09:44:49.629Z</time>
      </trkpt>
      <trkpt lat="47.49267" lon="6.88217">
        <ele>458</ele>
        <time>2014-04-20T09:44:54.680Z</time>
      </trkpt>
      <trkpt lat="47.49274" lon="6.88226">
        <ele>458</ele>
        <time>2014-04-20T09:44:59.598Z</time>
      </trkpt>
      <trkpt lat="47.49293" lon="6.88241">
        <ele>458</ele>
        <time>2014-04-20T09:45:04.691Z</time>
      </trkpt>
      <trkpt lat="47.49319" lon="6.88237">
        <ele>457</ele>
        <time>2014-04-20T09:45:09.601Z</time>
      </trkpt>
      <trkpt lat="47.49385" lon="6.88229">
        <ele>454</ele>
        <time>2014-04-20T09:45:19.635Z</time>
      </trkpt>
      <trkpt lat="47.49407" lon="6.88212">
        <ele>450</ele>
        <time>2014-04-20T09:45:24.679Z</time>
      </trkpt>
      <trkpt lat="47.49404" lon="6.88172">
        <ele>447</ele>
        <time>2014-04-20T09:45:29.622Z</time>
      </trkpt>
      <trkpt lat="47.49387" lon="6.88134">
        <ele>446</ele>
        <time>2014-04-20T09:45:34.695Z</time>
      </trkpt>
      <trkpt lat="47.49382" lon="6.881">
        <ele>446</ele>
        <time>2014-04-20T09:45:39.635Z</time>
      </trkpt>
      <trkpt lat="47.49394" lon="6.88054">
        <ele>446</ele>
        <time>2014-04-20T09:45:44.672Z</time>
      </trkpt>
      <trkpt lat="47.49409" lon="6.88004">
        <ele>444</ele>
        <time>2014-04-20T09:45:49.624Z</time>
      </trkpt>
      <trkpt lat="47.49415" lon="6.87958">
        <ele>441</ele>
        <time>2014-04-20T09:45:54.696Z</time>
      </trkpt>
      <trkpt lat="47.4942" lon="6.87918">
        <ele>438</ele>
        <time>2014-04-20T09:45:59.599Z</time>
      </trkpt>
      <trkpt lat="47.49425" lon="6.87875">
        <ele>439</ele>
        <time>2014-04-20T09:46:04.686Z</time>
      </trkpt>
      <trkpt lat="47.49441" lon="6.87828">
        <ele>441</ele>
        <time>2014-04-20T09:46:09.681Z</time>
      </trkpt>
      <trkpt lat="47.49459" lon="6.87781">
        <ele>440</ele>
        <time>2014-04-20T09:46:14.735Z</time>
      </trkpt>
      <trkpt lat="47.49478" lon="6.87745">
        <ele>436</ele>
        <time>2014-04-20T09:46:19.618Z</time>
      </trkpt>
      <trkpt lat="47.49498" lon="6.87713">
        <ele>436</ele>
        <time>2014-04-20T09:46:24.698Z</time>
      </trkpt>
      <trkpt lat="47.49505" lon="6.87683">
        <ele>436</ele>
        <time>2014-04-20T09:46:29.624Z</time>
      </trkpt>
      <trkpt lat="47.49514" lon="6.8764">
        <ele>437</ele>
        <time>2014-04-20T09:46:34.697Z</time>
      </trkpt>
      <trkpt lat="47.49528" lon="6.87591">
        <ele>437</ele>
        <time>2014-04-20T09:46:39.624Z</time>
      </trkpt>
      <trkpt lat="47.4954" lon="6.87538">
        <ele>437</ele>
        <time>2014-04-20T09:46:44.698Z</time>
      </trkpt>
      <trkpt lat="47.49535" lon="6.87484">
        <ele>429</ele>
        <time>2014-04-20T09:46:49.626Z</time>
      </trkpt>
      <trkpt lat="47.49538" lon="6.87435">
        <ele>426</ele>
        <time>2014-04-20T09:46:54.705Z</time>
      </trkpt>
      <trkpt lat="47.49551" lon="6.8739">
        <ele>424</ele>
        <time>2014-04-20T09:46:59.632Z</time>
      </trkpt>
      <trkpt lat="47.49574" lon="6.87352">
        <ele>424</ele>
        <time>2014-04-20T09:47:04.808Z</time>
      </trkpt>
      <trkpt lat="47.49588" lon="6.87306">
        <ele>423</ele>
        <time>2014-04-20T09:47:09.701Z</time>
      </trkpt>
      <trkpt lat="47.49614" lon="6.8727">
        <ele>423</ele>
        <time>2014-04-20T09:47:14.631Z</time>
      </trkpt>
      <trkpt lat="47.49635" lon="6.87232">
        <ele>425</ele>
        <time>2014-04-20T09:47:19.700Z</time>
      </trkpt>
      <trkpt lat="47.49652" lon="6.87195">
        <ele>425</ele>
        <time>2014-04-20T09:47:24.636Z</time>
      </trkpt>
      <trkpt lat="47.49668" lon="6.87161">
        <ele>423</ele>
        <time>2014-04-20T09:47:29.702Z</time>
      </trkpt>
      <trkpt lat="47.49681" lon="6.87125">
        <ele>421</ele>
        <time>2014-04-20T09:47:34.639Z</time>
      </trkpt>
      <trkpt lat="47.49692" lon="6.87096">
        <ele>419</ele>
        <time>2014-04-20T09:47:39.682Z</time>
      </trkpt>
      <trkpt lat="47.49716" lon="6.87072">
        <ele>420</ele>
        <time>2014-04-20T09:47:44.624Z</time>
      </trkpt>
      <trkpt lat="47.49736" lon="6.8704">
        <ele>420</ele>
        <time>2014-04-20T09:47:49.714Z</time>
      </trkpt>
      <trkpt lat="47.49753" lon="6.87021">
        <ele>421</ele>
        <time>2014-04-20T09:47:54.699Z</time>
      </trkpt>
      <trkpt lat="47.49781" lon="6.87007">
        <ele>422</ele>
        <time>2014-04-20T09:47:59.633Z</time>
      </trkpt>
      <trkpt lat="47.49808" lon="6.87007">
        <ele>422</ele>
        <time>2014-04-20T09:48:04.701Z</time>
      </trkpt>
      <trkpt lat="47.49816" lon="6.87018">
        <ele>422</ele>
        <time>2014-04-20T09:48:09.633Z</time>
      </trkpt>
      <trkpt lat="47.49825" lon="6.87032">
        <ele>421</ele>
        <time>2014-04-20T09:48:14.700Z</time>
      </trkpt>
      <trkpt lat="47.4984" lon="6.87034">
        <ele>420</ele>
        <time>2014-04-20T09:48:19.625Z</time>
      </trkpt>
      <trkpt lat="47.49854" lon="6.87017">
        <ele>418</ele>
        <time>2014-04-20T09:48:24.702Z</time>
      </trkpt>
      <trkpt lat="47.49867" lon="6.87001">
        <ele>417</ele>
        <time>2014-04-20T09:48:29.633Z</time>
      </trkpt>
      <trkpt lat="47.49878" lon="6.8699">
        <ele>417</ele>
        <time>2014-04-20T09:48:34.700Z</time>
      </trkpt>
      <trkpt lat="47.49884" lon="6.86982">
        <ele>417</ele>
        <time>2014-04-20T09:48:39.624Z</time>
      </trkpt>
      <trkpt lat="47.49884" lon="6.86982">
        <ele>416</ele>
        <time>2014-04-20T09:48:44.700Z</time>
      </trkpt>
      <trkpt lat="47.49884" lon="6.86982">
        <ele>416</ele>
        <time>2014-04-20T09:48:49.636Z</time>
      </trkpt>
      <trkpt lat="47.49884" lon="6.86982">
        <ele>416</ele>
        <time>2014-04-20T09:48:54.700Z</time>
      </trkpt>
      <trkpt lat="47.49884" lon="6.86982">
        <ele>416</ele>
        <time>2014-04-20T09:49:09.597Z</time>
      </trkpt>
      <trkpt lat="47.49884" lon="6.86982">
        <ele>416</ele>
        <time>2014-04-20T09:49:14.691Z</time>
      </trkpt>
      <trkpt lat="47.49883" lon="6.86983">
        <ele>416</ele>
        <time>2014-04-20T09:49:19.626Z</time>
      </trkpt>
      <trkpt lat="47.49884" lon="6.86982">
        <ele>416</ele>
        <time>2014-04-20T09:49:24.699Z</time>
      </trkpt>
      <trkpt lat="47.49884" lon="6.86982">
        <ele>416</ele>
        <time>2014-04-20T09:49:29.631Z</time>
      </trkpt>
      <trkpt lat="47.49884" lon="6.86982">
        <ele>415</ele>
        <time>2014-04-20T09:49:34.699Z</time>
      </trkpt>
      <trkpt lat="47.49884" lon="6.86982">
        <ele>415</ele>
        <time>2014-04-20T09:49:39.635Z</time>
      </trkpt>
      <trkpt lat="47.49883" lon="6.86982">
        <ele>415</ele>
        <time>2014-04-20T09:49:44.698Z</time>
      </trkpt>
      <trkpt lat="47.49883" lon="6.86981">
        <ele>415</ele>
        <time>2014-04-20T09:49:49.629Z</time>
      </trkpt>
      <trkpt lat="47.49883" lon="6.86981">
        <ele>415</ele>
        <time>2014-04-20T09:49:54.679Z</time>
      </trkpt>
      <trkpt lat="47.49883" lon="6.86981">
        <ele>415</ele>
        <time>2014-04-20T09:50:19.616Z</time>
      </trkpt>
      <trkpt lat="47.49883" lon="6.86982">
        <ele>415</ele>
        <time>2014-04-20T09:50:24.678Z</time>
      </trkpt>
      <trkpt lat="47.49883" lon="6.86982">
        <ele>415</ele>
        <time>2014-04-20T09:50:29.621Z</time>
      </trkpt>
      <trkpt lat="47.49883" lon="6.86982">
        <ele>415</ele>
        <time>2014-04-20T09:50:34.666Z</time>
      </trkpt>
      <trkpt lat="47.49883" lon="6.86982">
        <ele>415</ele>
        <time>2014-04-20T09:50:39.632Z</time>
      </trkpt>
      <trkpt lat="47.49883" lon="6.86981">
        <ele>415</ele>
        <time>2014-04-20T09:50:44.703Z</time>
      </trkpt>
      <trkpt lat="47.49884" lon="6.86981">
        <ele>415</ele>
        <time>2014-04-20T09:50:49.635Z</time>
      </trkpt>
      <trkpt lat="47.4988" lon="6.86977">
        <ele>415</ele>
        <time>2014-04-20T09:50:54.666Z</time>
      </trkpt>
      <trkpt lat="47.49879" lon="6.86977">
        <ele>415</ele>
        <time>2014-04-20T09:50:59.713Z</time>
      </trkpt>
      <trkpt lat="47.4988" lon="6.86976">
        <ele>415</ele>
        <time>2014-04-20T09:51:04.698Z</time>
      </trkpt>
      <trkpt lat="47.4988" lon="6.86976">
        <ele>415</ele>
        <time>2014-04-20T09:51:09.633Z</time>
      </trkpt>
      <trkpt lat="47.4988" lon="6.86976">
        <ele>415</ele>
        <time>2014-04-20T09:51:14.661Z</time>
      </trkpt>
      <trkpt lat="47.4988" lon="6.86976">
        <ele>415</ele>
        <time>2014-04-20T09:51:19.625Z</time>
      </trkpt>
      <trkpt lat="47.4988" lon="6.86976">
        <ele>415</ele>
        <time>2014-04-20T09:51:24.671Z</time>
      </trkpt>
      <trkpt lat="47.49879" lon="6.86975">
        <ele>415</ele>
        <time>2014-04-20T09:51:29.622Z</time>
      </trkpt>
      <trkpt lat="47.49879" lon="6.86973">
        <ele>414</ele>
        <time>2014-04-20T09:51:34.696Z</time>
      </trkpt>
      <trkpt lat="47.49881" lon="6.86972">
        <ele>414</ele>
        <time>2014-04-20T09:51:39.633Z</time>
      </trkpt>
      <trkpt lat="47.49881" lon="6.86973">
        <ele>414</ele>
        <time>2014-04-20T09:51:44.704Z</time>
      </trkpt>
      <trkpt lat="47.49881" lon="6.86973">
        <ele>414</ele>
        <time>2014-04-20T09:51:49.625Z</time>
      </trkpt>
      <trkpt lat="47.49881" lon="6.86973">
        <ele>414</ele>
        <time>2014-04-20T09:51:54.700Z</time>
      </trkpt>
      <trkpt lat="47.49882" lon="6.86973">
        <ele>414</ele>
        <time>2014-04-20T09:51:59.627Z</time>
      </trkpt>
      <trkpt lat="47.49882" lon="6.86973">
        <ele>414</ele>
        <time>2014-04-20T09:52:04.699Z</time>
      </trkpt>
      <trkpt lat="47.49882" lon="6.86973">
        <ele>414</ele>
        <time>2014-04-20T09:52:09.623Z</time>
      </trkpt>
      <trkpt lat="47.49882" lon="6.86973">
        <ele>414</ele>
        <time>2014-04-20T09:52:14.700Z</time>
      </trkpt>
      <trkpt lat="47.49882" lon="6.86973">
        <ele>414</ele>
        <time>2014-04-20T09:52:19.632Z</time>
      </trkpt>
      <trkpt lat="47.49882" lon="6.86973">
        <ele>414</ele>
        <time>2014-04-20T09:52:24.700Z</time>
      </trkpt>
      <trkpt lat="47.49882" lon="6.86973">
        <ele>414</ele>
        <time>2014-04-20T09:52:29.623Z</time>
      </trkpt>
      <trkpt lat="47.49882" lon="6.86973">
        <ele>414</ele>
        <time>2014-04-20T09:52:34.702Z</time>
      </trkpt>
      <trkpt lat="47.49882" lon="6.86973">
        <ele>414</ele>
        <time>2014-04-20T09:52:39.626Z</time>
      </trkpt>
      <trkpt lat="47.49882" lon="6.86973">
        <ele>414</ele>
        <time>2014-04-20T09:52:44.676Z</time>
      </trkpt>
      <trkpt lat="47.49882" lon="6.86974">
        <ele>414</ele>
        <time>2014-04-20T09:52:49.623Z</time>
      </trkpt>
      <trkpt lat="47.49882" lon="6.86974">
        <ele>414</ele>
        <time>2014-04-20T09:52:54.698Z</time>
      </trkpt>
      <trkpt lat="47.49881" lon="6.86974">
        <ele>414</ele>
        <time>2014-04-20T09:52:59.623Z</time>
      </trkpt>
      <trkpt lat="47.49881" lon="6.86974">
        <ele>414</ele>
        <time>2014-04-20T09:53:04.696Z</time>
      </trkpt>
      <trkpt lat="47.49881" lon="6.86975">
        <ele>414</ele>
        <time>2014-04-20T09:53:09.597Z</time>
      </trkpt>
      <trkpt lat="47.49881" lon="6.86975">
        <ele>414</ele>
        <time>2014-04-20T09:53:19.634Z</time>
      </trkpt>
      <trkpt lat="47.4988" lon="6.86974">
        <ele>414</ele>
        <time>2014-04-20T09:53:24.690Z</time>
      </trkpt>
      <trkpt lat="47.4988" lon="6.86974">
        <ele>414</ele>
        <time>2014-04-20T09:53:29.624Z</time>
      </trkpt>
      <trkpt lat="47.4988" lon="6.86974">
        <ele>414</ele>
        <time>2014-04-20T09:53:34.679Z</time>
      </trkpt>
      <trkpt lat="47.4988" lon="6.86974">
        <ele>414</ele>
        <time>2014-04-20T09:53:39.636Z</time>
      </trkpt>
      <trkpt lat="47.4988" lon="6.86974">
        <ele>414</ele>
        <time>2014-04-20T09:53:44.699Z</time>
      </trkpt>
      <trkpt lat="47.4988" lon="6.86974">
        <ele>414</ele>
        <time>2014-04-20T09:53:49.751Z</time>
      </trkpt>
      <trkpt lat="47.49881" lon="6.86974">
        <ele>414</ele>
        <time>2014-04-20T09:53:54.707Z</time>
      </trkpt>
      <trkpt lat="47.49881" lon="6.86974">
        <ele>414</ele>
        <time>2014-04-20T09:53:59.623Z</time>
      </trkpt>
      <trkpt lat="47.49881" lon="6.86974">
        <ele>414</ele>
        <time>2014-04-20T09:54:04.650Z</time>
      </trkpt>
      <trkpt lat="47.49881" lon="6.86974">
        <ele>414</ele>
        <time>2014-04-20T09:54:09.702Z</time>
      </trkpt>
      <trkpt lat="47.49881" lon="6.86974">
        <ele>414</ele>
        <time>2014-04-20T09:54:14.623Z</time>
      </trkpt>
      <trkpt lat="47.4988" lon="6.86973">
        <ele>415</ele>
        <time>2014-04-20T09:54:19.700Z</time>
      </trkpt>
      <trkpt lat="47.4988" lon="6.86973">
        <ele>415</ele>
        <time>2014-04-20T09:54:24.624Z</time>
      </trkpt>
      <trkpt lat="47.4988" lon="6.86973">
        <ele>415</ele>
        <time>2014-04-20T09:54:29.698Z</time>
      </trkpt>
      <trkpt lat="47.49881" lon="6.86972">
        <ele>416</ele>
        <time>2014-04-20T09:54:34.628Z</time>
      </trkpt>
      <trkpt lat="47.49883" lon="6.8697">
        <ele>418</ele>
        <time>2014-04-20T09:54:39.693Z</time>
      </trkpt>
      <trkpt lat="47.49887" lon="6.86971">
        <ele>419</ele>
        <time>2014-04-20T09:54:44.635Z</time>
      </trkpt>
      <trkpt lat="47.49902" lon="6.86956">
        <ele>419</ele>
        <time>2014-04-20T09:54:49.700Z</time>
      </trkpt>
      <trkpt lat="47.4992" lon="6.86942">
        <ele>417</ele>
        <time>2014-04-20T09:54:54.622Z</time>
      </trkpt>
      <trkpt lat="47.49938" lon="6.86927">
        <ele>416</ele>
        <time>2014-04-20T09:54:59.683Z</time>
      </trkpt>
      <trkpt lat="47.49955" lon="6.86905">
        <ele>416</ele>
        <time>2014-04-20T09:55:04.661Z</time>
      </trkpt>
      <trkpt lat="47.49973" lon="6.86885">
        <ele>415</ele>
        <time>2014-04-20T09:55:09.629Z</time>
      </trkpt>
      <trkpt lat="47.49989" lon="6.8686">
        <ele>414</ele>
        <time>2014-04-20T09:55:14.704Z</time>
      </trkpt>
      <trkpt lat="47.50007" lon="6.86832">
        <ele>413</ele>
        <time>2014-04-20T09:55:19.638Z</time>
      </trkpt>
      <trkpt lat="47.50025" lon="6.868">
        <ele>412</ele>
        <time>2014-04-20T09:55:24.708Z</time>
      </trkpt>
      <trkpt lat="47.50041" lon="6.86766">
        <ele>411</ele>
        <time>2014-04-20T09:55:29.627Z</time>
      </trkpt>
      <trkpt lat="47.50058" lon="6.86734">
        <ele>410</ele>
        <time>2014-04-20T09:55:34.701Z</time>
      </trkpt>
      <trkpt lat="47.50074" lon="6.86705">
        <ele>409</ele>
        <time>2014-04-20T09:55:39.638Z</time>
      </trkpt>
      <trkpt lat="47.5009" lon="6.86678">
        <ele>408</ele>
        <time>2014-04-20T09:55:44.670Z</time>
      </trkpt>
      <trkpt lat="47.50107" lon="6.8665">
        <ele>409</ele>
        <time>2014-04-20T09:55:49.635Z</time>
      </trkpt>
      <trkpt lat="47.50123" lon="6.86622">
        <ele>409</ele>
        <time>2014-04-20T09:55:54.675Z</time>
      </trkpt>
      <trkpt lat="47.502" lon="6.86475">
        <ele>409</ele>
        <time>2014-04-20T09:56:19.838Z</time>
      </trkpt>
      <trkpt lat="47.50225" lon="6.86453">
        <ele>408</ele>
        <time>2014-04-20T09:56:24.608Z</time>
      </trkpt>
      <trkpt lat="47.50246" lon="6.86423">
        <ele>407</ele>
        <time>2014-04-20T09:56:29.682Z</time>
      </trkpt>
      <trkpt lat="47.50258" lon="6.86387">
        <ele>406</ele>
        <time>2014-04-20T09:56:34.636Z</time>
      </trkpt>
      <trkpt lat="47.50283" lon="6.86363">
        <ele>404</ele>
        <time>2014-04-20T09:56:39.699Z</time>
      </trkpt>
      <trkpt lat="47.5031" lon="6.86353">
        <ele>403</ele>
        <time>2014-04-20T09:56:44.620Z</time>
      </trkpt>
      <trkpt lat="47.50339" lon="6.86352">
        <ele>403</ele>
        <time>2014-04-20T09:56:49.698Z</time>
      </trkpt>
      <trkpt lat="47.50368" lon="6.86354">
        <ele>403</ele>
        <time>2014-04-20T09:56:54.624Z</time>
      </trkpt>
      <trkpt lat="47.50396" lon="6.86357">
        <ele>403</ele>
        <time>2014-04-20T09:56:59.669Z</time>
      </trkpt>
      <trkpt lat="47.50421" lon="6.86359">
        <ele>404</ele>
        <time>2014-04-20T09:57:04.698Z</time>
      </trkpt>
      <trkpt lat="47.50445" lon="6.86362">
        <ele>403</ele>
        <time>2014-04-20T09:57:09.629Z</time>
      </trkpt>
      <trkpt lat="47.50468" lon="6.86372">
        <ele>404</ele>
        <time>2014-04-20T09:57:14.701Z</time>
      </trkpt>
      <trkpt lat="47.50495" lon="6.86389">
        <ele>403</ele>
        <time>2014-04-20T09:57:19.624Z</time>
      </trkpt>
      <trkpt lat="47.5052" lon="6.86404">
        <ele>403</ele>
        <time>2014-04-20T09:57:24.700Z</time>
      </trkpt>
      <trkpt lat="47.50535" lon="6.86417">
        <ele>402</ele>
        <time>2014-04-20T09:57:29.633Z</time>
      </trkpt>
      <trkpt lat="47.50549" lon="6.86397">
        <ele>401</ele>
        <time>2014-04-20T09:57:34.704Z</time>
      </trkpt>
      <trkpt lat="47.5056" lon="6.86359">
        <ele>401</ele>
        <time>2014-04-20T09:57:39.628Z</time>
      </trkpt>
      <trkpt lat="47.50569" lon="6.86316">
        <ele>400</ele>
        <time>2014-04-20T09:57:44.700Z</time>
      </trkpt>
      <trkpt lat="47.50573" lon="6.86276">
        <ele>399</ele>
        <time>2014-04-20T09:57:49.641Z</time>
      </trkpt>
      <trkpt lat="47.50573" lon="6.86233">
        <ele>399</ele>
        <time>2014-04-20T09:57:54.700Z</time>
      </trkpt>
      <trkpt lat="47.50591" lon="6.8613">
        <ele>395</ele>
        <time>2014-04-20T09:58:09.630Z</time>
      </trkpt>
      <trkpt lat="47.50606" lon="6.86135">
        <ele>396</ele>
        <time>2014-04-20T09:58:14.701Z</time>
      </trkpt>
      <trkpt lat="47.50625" lon="6.8614">
        <ele>397</ele>
        <time>2014-04-20T09:58:19.622Z</time>
      </trkpt>
      <trkpt lat="47.50647" lon="6.86136">
        <ele>398</ele>
        <time>2014-04-20T09:58:24.708Z</time>
      </trkpt>
      <trkpt lat="47.50665" lon="6.86134">
        <ele>398</ele>
        <time>2014-04-20T09:58:29.635Z</time>
      </trkpt>
      <trkpt lat="47.50674" lon="6.8612">
        <ele>398</ele>
        <time>2014-04-20T09:58:34.693Z</time>
      </trkpt>
      <trkpt lat="47.50679" lon="6.86109">
        <ele>398</ele>
        <time>2014-04-20T09:58:39.631Z</time>
      </trkpt>
      <trkpt lat="47.50686" lon="6.86107">
        <ele>398</ele>
        <time>2014-04-20T09:58:44.701Z</time>
      </trkpt>
      <trkpt lat="47.50703" lon="6.86104">
        <ele>397</ele>
        <time>2014-04-20T09:58:49.630Z</time>
      </trkpt>
      <trkpt lat="47.50717" lon="6.86087">
        <ele>397</ele>
        <time>2014-04-20T09:58:54.702Z</time>
      </trkpt>
      <trkpt lat="47.5081" lon="6.85992">
        <ele>396</ele>
        <time>2014-04-20T09:59:19.631Z</time>
      </trkpt>
      <trkpt lat="47.50837" lon="6.85986">
        <ele>396</ele>
        <time>2014-04-20T09:59:24.670Z</time>
      </trkpt>
      <trkpt lat="47.50857" lon="6.85982">
        <ele>395</ele>
        <time>2014-04-20T09:59:29.645Z</time>
      </trkpt>
      <trkpt lat="47.50867" lon="6.85973">
        <ele>395</ele>
        <time>2014-04-20T09:59:34.702Z</time>
      </trkpt>
      <trkpt lat="47.50865" lon="6.85939">
        <ele>394</ele>
        <time>2014-04-20T09:59:39.629Z</time>
      </trkpt>
      <trkpt lat="47.50864" lon="6.859">
        <ele>394</ele>
        <time>2014-04-20T09:59:44.634Z</time>
      </trkpt>
      <trkpt lat="47.50864" lon="6.85863">
        <ele>394</ele>
        <time>2014-04-20T09:59:49.702Z</time>
      </trkpt>
      <trkpt lat="47.50869" lon="6.85826">
        <ele>394</ele>
        <time>2014-04-20T09:59:54.630Z</time>
      </trkpt>
      <trkpt lat="47.50872" lon="6.85788">
        <ele>394</ele>
        <time>2014-04-20T09:59:59.699Z</time>
      </trkpt>
      <trkpt lat="47.50871" lon="6.85751">
        <ele>395</ele>
        <time>2014-04-20T10:00:04.635Z</time>
      </trkpt>
      <trkpt lat="47.50873" lon="6.85716">
        <ele>393</ele>
        <time>2014-04-20T10:00:09.704Z</time>
      </trkpt>
      <trkpt lat="47.50871" lon="6.85679">
        <ele>392</ele>
        <time>2014-04-20T10:00:14.703Z</time>
      </trkpt>
      <trkpt lat="47.50871" lon="6.85643">
        <ele>393</ele>
        <time>2014-04-20T10:00:19.632Z</time>
      </trkpt>
      <trkpt lat="47.50857" lon="6.8562">
        <ele>394</ele>
        <time>2014-04-20T10:00:24.701Z</time>
      </trkpt>
      <trkpt lat="47.50836" lon="6.85604">
        <ele>394</ele>
        <time>2014-04-20T10:00:29.637Z</time>
      </trkpt>
      <trkpt lat="47.50822" lon="6.85592">
        <ele>395</ele>
        <time>2014-04-20T10:00:34.701Z</time>
      </trkpt>
      <trkpt lat="47.50824" lon="6.85568">
        <ele>394</ele>
        <time>2014-04-20T10:00:39.640Z</time>
      </trkpt>
      <trkpt lat="47.5083" lon="6.85532">
        <ele>394</ele>
        <time>2014-04-20T10:00:44.666Z</time>
      </trkpt>
      <trkpt lat="47.50836" lon="6.85492">
        <ele>393</ele>
        <time>2014-04-20T10:00:49.631Z</time>
      </trkpt>
      <trkpt lat="47.50842" lon="6.85448">
        <ele>392</ele>
        <time>2014-04-20T10:00:54.702Z</time>
      </trkpt>
      <trkpt lat="47.50845" lon="6.85414">
        <ele>390</ele>
        <time>2014-04-20T10:00:59.632Z</time>
      </trkpt>
      <trkpt lat="47.50847" lon="6.85379">
        <ele>391</ele>
        <time>2014-04-20T10:01:04.686Z</time>
      </trkpt>
      <trkpt lat="47.50852" lon="6.8535">
        <ele>391</ele>
        <time>2014-04-20T10:01:09.602Z</time>
      </trkpt>
      <trkpt lat="47.50876" lon="6.85348">
        <ele>391</ele>
        <time>2014-04-20T10:01:14.668Z</time>
      </trkpt>
      <trkpt lat="47.50903" lon="6.85348">
        <ele>390</ele>
        <time>2014-04-20T10:01:19.633Z</time>
      </trkpt>
      <trkpt lat="47.50917" lon="6.85301">
        <ele>389</ele>
        <time>2014-04-20T10:01:29.636Z</time>
      </trkpt>
      <trkpt lat="47.50918" lon="6.85264">
        <ele>387</ele>
        <time>2014-04-20T10:01:34.688Z</time>
      </trkpt>
      <trkpt lat="47.50914" lon="6.85228">
        <ele>387</ele>
        <time>2014-04-20T10:01:39.633Z</time>
      </trkpt>
      <trkpt lat="47.50908" lon="6.85195">
        <ele>387</ele>
        <time>2014-04-20T10:01:44.709Z</time>
      </trkpt>
      <trkpt lat="47.50902" lon="6.85157">
        <ele>387</ele>
        <time>2014-04-20T10:01:49.641Z</time>
      </trkpt>
      <trkpt lat="47.50901" lon="6.85118">
        <ele>388</ele>
        <time>2014-04-20T10:01:54.704Z</time>
      </trkpt>
      <trkpt lat="47.50897" lon="6.85077">
        <ele>387</ele>
        <time>2014-04-20T10:01:59.630Z</time>
      </trkpt>
      <trkpt lat="47.50895" lon="6.85037">
        <ele>386</ele>
        <time>2014-04-20T10:02:05.473Z</time>
      </trkpt>
      <trkpt lat="47.50892" lon="6.84999">
        <ele>385</ele>
        <time>2014-04-20T10:02:09.670Z</time>
      </trkpt>
      <trkpt lat="47.50889" lon="6.8496">
        <ele>385</ele>
        <time>2014-04-20T10:02:14.630Z</time>
      </trkpt>
      <trkpt lat="47.50889" lon="6.8492">
        <ele>385</ele>
        <time>2014-04-20T10:02:19.703Z</time>
      </trkpt>
      <trkpt lat="47.50898" lon="6.84881">
        <ele>385</ele>
        <time>2014-04-20T10:02:24.645Z</time>
      </trkpt>
      <trkpt lat="47.50915" lon="6.84811">
        <ele>387</ele>
        <time>2014-04-20T10:02:34.697Z</time>
      </trkpt>
      <trkpt lat="47.50917" lon="6.84798">
        <ele>390</ele>
        <time>2014-04-20T10:02:39.643Z</time>
      </trkpt>
      <trkpt lat="47.50925" lon="6.84781">
        <ele>389</ele>
        <time>2014-04-20T10:02:44.676Z</time>
      </trkpt>
      <trkpt lat="47.5093" lon="6.84759">
        <ele>389</ele>
        <time>2014-04-20T10:02:49.673Z</time>
      </trkpt>
      <trkpt lat="47.50926" lon="6.84733">
        <ele>390</ele>
        <time>2014-04-20T10:02:54.638Z</time>
      </trkpt>
      <trkpt lat="47.50917" lon="6.847">
        <ele>390</ele>
        <time>2014-04-20T10:02:59.698Z</time>
      </trkpt>
      <trkpt lat="47.50905" lon="6.84662">
        <ele>390</ele>
        <time>2014-04-20T10:03:04.645Z</time>
      </trkpt>
      <trkpt lat="47.50889" lon="6.84626">
        <ele>389</ele>
        <time>2014-04-20T10:03:09.704Z</time>
      </trkpt>
      <trkpt lat="47.50872" lon="6.84597">
        <ele>389</ele>
        <time>2014-04-20T10:03:14.631Z</time>
      </trkpt>
      <trkpt lat="47.50854" lon="6.84567">
        <ele>388</ele>
        <time>2014-04-20T10:03:19.703Z</time>
      </trkpt>
      <trkpt lat="47.50837" lon="6.84538">
        <ele>387</ele>
        <time>2014-04-20T10:03:24.634Z</time>
      </trkpt>
      <trkpt lat="47.50821" lon="6.84505">
        <ele>388</ele>
        <time>2014-04-20T10:03:29.700Z</time>
      </trkpt>
      <trkpt lat="47.50805" lon="6.84471">
        <ele>387</ele>
        <time>2014-04-20T10:03:34.630Z</time>
      </trkpt>
      <trkpt lat="47.50787" lon="6.84437">
        <ele>386</ele>
        <time>2014-04-20T10:03:39.700Z</time>
      </trkpt>
      <trkpt lat="47.50771" lon="6.84401">
        <ele>386</ele>
        <time>2014-04-20T10:03:44.632Z</time>
      </trkpt>
      <trkpt lat="47.50755" lon="6.84364">
        <ele>386</ele>
        <time>2014-04-20T10:03:50.107Z</time>
      </trkpt>
      <trkpt lat="47.50738" lon="6.84327">
        <ele>387</ele>
        <time>2014-04-20T10:03:54.639Z</time>
      </trkpt>
      <trkpt lat="47.50689" lon="6.84133">
        <ele>383</ele>
        <time>2014-04-20T10:04:19.702Z</time>
      </trkpt>
      <trkpt lat="47.5066" lon="6.84115">
        <ele>385</ele>
        <time>2014-04-20T10:04:24.632Z</time>
      </trkpt>
      <trkpt lat="47.50646" lon="6.84086">
        <ele>386</ele>
        <time>2014-04-20T10:04:29.700Z</time>
      </trkpt>
      <trkpt lat="47.50637" lon="6.84054">
        <ele>386</ele>
        <time>2014-04-20T10:04:34.619Z</time>
      </trkpt>
      <trkpt lat="47.50628" lon="6.84013">
        <ele>386</ele>
        <time>2014-04-20T10:04:39.680Z</time>
      </trkpt>
      <trkpt lat="47.50618" lon="6.83973">
        <ele>387</ele>
        <time>2014-04-20T10:04:44.631Z</time>
      </trkpt>
      <trkpt lat="47.50606" lon="6.83941">
        <ele>389</ele>
        <time>2014-04-20T10:04:49.702Z</time>
      </trkpt>
      <trkpt lat="47.50597" lon="6.83905">
        <ele>389</ele>
        <time>2014-04-20T10:04:54.639Z</time>
      </trkpt>
      <trkpt lat="47.50588" lon="6.83863">
        <ele>387</ele>
        <time>2014-04-20T10:04:59.701Z</time>
      </trkpt>
      <trkpt lat="47.50578" lon="6.83823">
        <ele>388</ele>
        <time>2014-04-20T10:05:04.653Z</time>
      </trkpt>
      <trkpt lat="47.50569" lon="6.83783">
        <ele>388</ele>
        <time>2014-04-20T10:05:09.708Z</time>
      </trkpt>
      <trkpt lat="47.50561" lon="6.83741">
        <ele>388</ele>
        <time>2014-04-20T10:05:14.646Z</time>
      </trkpt>
      <trkpt lat="47.50552" lon="6.83698">
        <ele>387</ele>
        <time>2014-04-20T10:05:19.703Z</time>
      </trkpt>
      <trkpt lat="47.5054" lon="6.83657">
        <ele>388</ele>
        <time>2014-04-20T10:05:24.644Z</time>
      </trkpt>
      <trkpt lat="47.50527" lon="6.83616">
        <ele>387</ele>
        <time>2014-04-20T10:05:29.693Z</time>
      </trkpt>
      <trkpt lat="47.50513" lon="6.83575">
        <ele>387</ele>
        <time>2014-04-20T10:05:34.639Z</time>
      </trkpt>
      <trkpt lat="47.505" lon="6.83535">
        <ele>387</ele>
        <time>2014-04-20T10:05:39.705Z</time>
      </trkpt>
      <trkpt lat="47.50488" lon="6.83493">
        <ele>386</ele>
        <time>2014-04-20T10:05:44.630Z</time>
      </trkpt>
      <trkpt lat="47.50476" lon="6.83451">
        <ele>386</ele>
        <time>2014-04-20T10:05:49.703Z</time>
      </trkpt>
      <trkpt lat="47.50467" lon="6.83409">
        <ele>386</ele>
        <time>2014-04-20T10:05:54.599Z</time>
      </trkpt>
      <trkpt lat="47.50463" lon="6.83369">
        <ele>386</ele>
        <time>2014-04-20T10:05:59.830Z</time>
      </trkpt>
      <trkpt lat="47.5047" lon="6.83325">
        <ele>386</ele>
        <time>2014-04-20T10:06:04.676Z</time>
      </trkpt>
      <trkpt lat="47.50466" lon="6.83291">
        <ele>387</ele>
        <time>2014-04-20T10:06:09.734Z</time>
      </trkpt>
      <trkpt lat="47.50446" lon="6.83268">
        <ele>386</ele>
        <time>2014-04-20T10:06:14.804Z</time>
      </trkpt>
      <trkpt lat="47.50434" lon="6.83241">
        <ele>386</ele>
        <time>2014-04-20T10:06:19.732Z</time>
      </trkpt>
      <trkpt lat="47.50425" lon="6.83201">
        <ele>386</ele>
        <time>2014-04-20T10:06:24.736Z</time>
      </trkpt>
      <trkpt lat="47.50416" lon="6.8316">
        <ele>385</ele>
        <time>2014-04-20T10:06:29.801Z</time>
      </trkpt>
      <trkpt lat="47.50411" lon="6.83116">
        <ele>385</ele>
        <time>2014-04-20T10:06:34.734Z</time>
      </trkpt>
      <trkpt lat="47.50406" lon="6.83072">
        <ele>385</ele>
        <time>2014-04-20T10:06:39.798Z</time>
      </trkpt>
      <trkpt lat="47.50399" lon="6.83028">
        <ele>385</ele>
        <time>2014-04-20T10:06:44.803Z</time>
      </trkpt>
      <trkpt lat="47.50392" lon="6.82983">
        <ele>385</ele>
        <time>2014-04-20T10:06:49.742Z</time>
      </trkpt>
      <trkpt lat="47.50384" lon="6.82939">
        <ele>385</ele>
        <time>2014-04-20T10:06:54.786Z</time>
      </trkpt>
      <trkpt lat="47.50353" lon="6.82751">
        <ele>387</ele>
        <time>2014-04-20T10:07:19.732Z</time>
      </trkpt>
      <trkpt lat="47.5035" lon="6.82709">
        <ele>385</ele>
        <time>2014-04-20T10:07:24.806Z</time>
      </trkpt>
      <trkpt lat="47.50351" lon="6.82665">
        <ele>384</ele>
        <time>2014-04-20T10:07:29.735Z</time>
      </trkpt>
      <trkpt lat="47.50351" lon="6.8262">
        <ele>383</ele>
        <time>2014-04-20T10:07:34.805Z</time>
      </trkpt>
      <trkpt lat="47.50351" lon="6.82575">
        <ele>384</ele>
        <time>2014-04-20T10:07:39.734Z</time>
      </trkpt>
      <trkpt lat="47.5036" lon="6.82537">
        <ele>386</ele>
        <time>2014-04-20T10:07:44.804Z</time>
      </trkpt>
      <trkpt lat="47.50371" lon="6.82536">
        <ele>386</ele>
        <time>2014-04-20T10:07:49.738Z</time>
      </trkpt>
      <trkpt lat="47.50375" lon="6.82524">
        <ele>386</ele>
        <time>2014-04-20T10:07:54.800Z</time>
      </trkpt>
      <trkpt lat="47.50376" lon="6.82497">
        <ele>386</ele>
        <time>2014-04-20T10:07:59.706Z</time>
      </trkpt>
      <trkpt lat="47.5037" lon="6.82452">
        <ele>385</ele>
        <time>2014-04-20T10:08:04.801Z</time>
      </trkpt>
      <trkpt lat="47.50362" lon="6.82412">
        <ele>387</ele>
        <time>2014-04-20T10:08:09.742Z</time>
      </trkpt>
      <trkpt lat="47.50353" lon="6.82372">
        <ele>387</ele>
        <time>2014-04-20T10:08:14.805Z</time>
      </trkpt>
      <trkpt lat="47.50351" lon="6.8233">
        <ele>386</ele>
        <time>2014-04-20T10:08:19.738Z</time>
      </trkpt>
      <trkpt lat="47.50352" lon="6.82289">
        <ele>385</ele>
        <time>2014-04-20T10:08:24.797Z</time>
      </trkpt>
      <trkpt lat="47.50354" lon="6.82254">
        <ele>385</ele>
        <time>2014-04-20T10:08:29.733Z</time>
      </trkpt>
      <trkpt lat="47.50355" lon="6.8222">
        <ele>386</ele>
        <time>2014-04-20T10:08:34.801Z</time>
      </trkpt>
      <trkpt lat="47.50358" lon="6.82184">
        <ele>385</ele>
        <time>2014-04-20T10:08:39.732Z</time>
      </trkpt>
      <trkpt lat="47.5036" lon="6.8215">
        <ele>386</ele>
        <time>2014-04-20T10:08:44.803Z</time>
      </trkpt>
      <trkpt lat="47.50361" lon="6.82112">
        <ele>385</ele>
        <time>2014-04-20T10:08:49.733Z</time>
      </trkpt>
      <trkpt lat="47.50365" lon="6.82076">
        <ele>385</ele>
        <time>2014-04-20T10:08:54.802Z</time>
      </trkpt>
      <trkpt lat="47.50369" lon="6.82037">
        <ele>386</ele>
        <time>2014-04-20T10:08:59.810Z</time>
      </trkpt>
      <trkpt lat="47.50372" lon="6.81998">
        <ele>384</ele>
        <time>2014-04-20T10:09:04.705Z</time>
      </trkpt>
      <trkpt lat="47.50375" lon="6.81966">
        <ele>384</ele>
        <time>2014-04-20T10:09:09.803Z</time>
      </trkpt>
      <trkpt lat="47.50375" lon="6.8194">
        <ele>384</ele>
        <time>2014-04-20T10:09:14.734Z</time>
      </trkpt>
      <trkpt lat="47.50379" lon="6.81917">
        <ele>384</ele>
        <time>2014-04-20T10:09:19.804Z</time>
      </trkpt>
      <trkpt lat="47.50383" lon="6.81883">
        <ele>384</ele>
        <time>2014-04-20T10:09:24.733Z</time>
      </trkpt>
      <trkpt lat="47.50384" lon="6.81848">
        <ele>386</ele>
        <time>2014-04-20T10:09:29.806Z</time>
      </trkpt>
      <trkpt lat="47.50388" lon="6.81811">
        <ele>386</ele>
        <time>2014-04-20T10:09:34.733Z</time>
      </trkpt>
      <trkpt lat="47.50389" lon="6.8177">
        <ele>387</ele>
        <time>2014-04-20T10:09:39.775Z</time>
      </trkpt>
      <trkpt lat="47.50392" lon="6.8173">
        <ele>387</ele>
        <time>2014-04-20T10:09:44.745Z</time>
      </trkpt>
      <trkpt lat="47.50396" lon="6.81691">
        <ele>386</ele>
        <time>2014-04-20T10:09:49.782Z</time>
      </trkpt>
      <trkpt lat="47.504" lon="6.81654">
        <ele>386</ele>
        <time>2014-04-20T10:09:54.708Z</time>
      </trkpt>
      <trkpt lat="47.50405" lon="6.81575">
        <ele>386</ele>
        <time>2014-04-20T10:10:04.701Z</time>
      </trkpt>
      <trkpt lat="47.50405" lon="6.81575">
        <ele>386</ele>
        <time>2014-04-20T10:10:04.701Z</time>
      </trkpt>
      <trkpt lat="47.50409" lon="6.81492">
        <ele>384</ele>
        <time>2014-04-20T10:10:14.738Z</time>
      </trkpt>
      <trkpt lat="47.5041" lon="6.81453">
        <ele>385</ele>
        <time>2014-04-20T10:10:19.803Z</time>
      </trkpt>
      <trkpt lat="47.50411" lon="6.81417">
        <ele>385</ele>
        <time>2014-04-20T10:10:24.738Z</time>
      </trkpt>
      <trkpt lat="47.50414" lon="6.8138">
        <ele>385</ele>
        <time>2014-04-20T10:10:29.802Z</time>
      </trkpt>
      <trkpt lat="47.50416" lon="6.81342">
        <ele>385</ele>
        <time>2014-04-20T10:10:34.743Z</time>
      </trkpt>
      <trkpt lat="47.50418" lon="6.81304">
        <ele>386</ele>
        <time>2014-04-20T10:10:39.789Z</time>
      </trkpt>
      <trkpt lat="47.5042" lon="6.81266">
        <ele>386</ele>
        <time>2014-04-20T10:10:44.733Z</time>
      </trkpt>
      <trkpt lat="47.50428" lon="6.81228">
        <ele>386</ele>
        <time>2014-04-20T10:10:49.802Z</time>
      </trkpt>
      <trkpt lat="47.50433" lon="6.81191">
        <ele>386</ele>
        <time>2014-04-20T10:10:54.739Z</time>
      </trkpt>
      <trkpt lat="47.50437" lon="6.81153">
        <ele>385</ele>
        <time>2014-04-20T10:10:59.783Z</time>
      </trkpt>
      <trkpt lat="47.50439" lon="6.81113">
        <ele>384</ele>
        <time>2014-04-20T10:11:04.718Z</time>
      </trkpt>
      <trkpt lat="47.50442" lon="6.81072">
        <ele>385</ele>
        <time>2014-04-20T10:11:09.807Z</time>
      </trkpt>
      <trkpt lat="47.50445" lon="6.8103">
        <ele>385</ele>
        <time>2014-04-20T10:11:14.735Z</time>
      </trkpt>
      <trkpt lat="47.50446" lon="6.80986">
        <ele>385</ele>
        <time>2014-04-20T10:11:19.802Z</time>
      </trkpt>
      <trkpt lat="47.50448" lon="6.80945">
        <ele>385</ele>
        <time>2014-04-20T10:11:24.738Z</time>
      </trkpt>
      <trkpt lat="47.5045" lon="6.80911">
        <ele>385</ele>
        <time>2014-04-20T10:11:29.769Z</time>
      </trkpt>
      <trkpt lat="47.50451" lon="6.80889">
        <ele>385</ele>
        <time>2014-04-20T10:11:34.734Z</time>
      </trkpt>
      <trkpt lat="47.50449" lon="6.80885">
        <ele>385</ele>
        <time>2014-04-20T10:11:39.805Z</time>
      </trkpt>
      <trkpt lat="47.5045" lon="6.80885">
        <ele>386</ele>
        <time>2014-04-20T10:11:44.733Z</time>
      </trkpt>
      <trkpt lat="47.50452" lon="6.80869">
        <ele>387</ele>
        <time>2014-04-20T10:11:49.800Z</time>
      </trkpt>
      <trkpt lat="47.50451" lon="6.80838">
        <ele>386</ele>
        <time>2014-04-20T10:11:54.732Z</time>
      </trkpt>
      <trkpt lat="47.5045" lon="6.80805">
        <ele>386</ele>
        <time>2014-04-20T10:11:59.804Z</time>
      </trkpt>
      <trkpt lat="47.50457" lon="6.80762">
        <ele>384</ele>
        <time>2014-04-20T10:12:04.737Z</time>
      </trkpt>
      <trkpt lat="47.50459" lon="6.80719">
        <ele>384</ele>
        <time>2014-04-20T10:12:09.767Z</time>
      </trkpt>
      <trkpt lat="47.50461" lon="6.80677">
        <ele>384</ele>
        <time>2014-04-20T10:12:14.746Z</time>
      </trkpt>
      <trkpt lat="47.50463" lon="6.80637">
        <ele>384</ele>
        <time>2014-04-20T10:12:19.804Z</time>
      </trkpt>
      <trkpt lat="47.50464" lon="6.80598">
        <ele>384</ele>
        <time>2014-04-20T10:12:24.747Z</time>
      </trkpt>
      <trkpt lat="47.50467" lon="6.80563">
        <ele>384</ele>
        <time>2014-04-20T10:12:29.735Z</time>
      </trkpt>
      <trkpt lat="47.50469" lon="6.80525">
        <ele>384</ele>
        <time>2014-04-20T10:12:34.806Z</time>
      </trkpt>
      <trkpt lat="47.50472" lon="6.80491">
        <ele>384</ele>
        <time>2014-04-20T10:12:39.746Z</time>
      </trkpt>
      <trkpt lat="47.50469" lon="6.80468">
        <ele>385</ele>
        <time>2014-04-20T10:12:44.811Z</time>
      </trkpt>
      <trkpt lat="47.50462" lon="6.80473">
        <ele>387</ele>
        <time>2014-04-20T10:12:49.733Z</time>
      </trkpt>
      <trkpt lat="47.5046" lon="6.80481">
        <ele>389</ele>
        <time>2014-04-20T10:12:54.805Z</time>
      </trkpt>
      <trkpt lat="47.50469" lon="6.80483">
        <ele>390</ele>
        <time>2014-04-20T10:12:59.734Z</time>
      </trkpt>
      <trkpt lat="47.50473" lon="6.80484">
        <ele>391</ele>
        <time>2014-04-20T10:13:04.803Z</time>
      </trkpt>
      <trkpt lat="47.50489" lon="6.80484">
        <ele>391</ele>
        <time>2014-04-20T10:13:09.731Z</time>
      </trkpt>
      <trkpt lat="47.50505" lon="6.80484">
        <ele>391</ele>
        <time>2014-04-20T10:13:14.802Z</time>
      </trkpt>
      <trkpt lat="47.50517" lon="6.80485">
        <ele>389</ele>
        <time>2014-04-20T10:13:19.802Z</time>
      </trkpt>
      <trkpt lat="47.50519" lon="6.80483">
        <ele>388</ele>
        <time>2014-04-20T10:13:24.732Z</time>
      </trkpt>
      <trkpt lat="47.50503" lon="6.80478">
        <ele>388</ele>
        <time>2014-04-20T10:13:29.801Z</time>
      </trkpt>
      <trkpt lat="47.50492" lon="6.80448">
        <ele>387</ele>
        <time>2014-04-20T10:13:34.733Z</time>
      </trkpt>
      <trkpt lat="47.50499" lon="6.80414">
        <ele>388</ele>
        <time>2014-04-20T10:13:39.802Z</time>
      </trkpt>
      <trkpt lat="47.50503" lon="6.8038">
        <ele>387</ele>
        <time>2014-04-20T10:13:44.736Z</time>
      </trkpt>
      <trkpt lat="47.50503" lon="6.80347">
        <ele>386</ele>
        <time>2014-04-20T10:13:49.790Z</time>
      </trkpt>
      <trkpt lat="47.50501" lon="6.80318">
        <ele>385</ele>
        <time>2014-04-20T10:13:54.733Z</time>
      </trkpt>
      <trkpt lat="47.50501" lon="6.80289">
        <ele>385</ele>
        <time>2014-04-20T10:13:59.803Z</time>
      </trkpt>
      <trkpt lat="47.50503" lon="6.8026">
        <ele>386</ele>
        <time>2014-04-20T10:14:04.742Z</time>
      </trkpt>
      <trkpt lat="47.50504" lon="6.80229">
        <ele>386</ele>
        <time>2014-04-20T10:14:09.800Z</time>
      </trkpt>
      <trkpt lat="47.50506" lon="6.80195">
        <ele>386</ele>
        <time>2014-04-20T10:14:14.741Z</time>
      </trkpt>
      <trkpt lat="47.50508" lon="6.8016">
        <ele>386</ele>
        <time>2014-04-20T10:14:19.775Z</time>
      </trkpt>
      <trkpt lat="47.50509" lon="6.80125">
        <ele>386</ele>
        <time>2014-04-20T10:14:24.741Z</time>
      </trkpt>
      <trkpt lat="47.50511" lon="6.8009">
        <ele>387</ele>
        <time>2014-04-20T10:14:29.800Z</time>
      </trkpt>
      <trkpt lat="47.50511" lon="6.80056">
        <ele>387</ele>
        <time>2014-04-20T10:14:34.745Z</time>
      </trkpt>
      <trkpt lat="47.50513" lon="6.80022">
        <ele>387</ele>
        <time>2014-04-20T10:14:39.805Z</time>
      </trkpt>
      <trkpt lat="47.50514" lon="6.79988">
        <ele>387</ele>
        <time>2014-04-20T10:14:44.745Z</time>
      </trkpt>
      <trkpt lat="47.50517" lon="6.79953">
        <ele>387</ele>
        <time>2014-04-20T10:14:49.807Z</time>
      </trkpt>
      <trkpt lat="47.50518" lon="6.79922">
        <ele>389</ele>
        <time>2014-04-20T10:14:54.738Z</time>
      </trkpt>
      <trkpt lat="47.50519" lon="6.79894">
        <ele>389</ele>
        <time>2014-04-20T10:14:59.801Z</time>
      </trkpt>
      <trkpt lat="47.5052" lon="6.79859">
        <ele>389</ele>
        <time>2014-04-20T10:15:04.747Z</time>
      </trkpt>
      <trkpt lat="47.50523" lon="6.79823">
        <ele>388</ele>
        <time>2014-04-20T10:15:09.782Z</time>
      </trkpt>
      <trkpt lat="47.50522" lon="6.79787">
        <ele>388</ele>
        <time>2014-04-20T10:15:14.705Z</time>
      </trkpt>
      <trkpt lat="47.50518" lon="6.7975">
        <ele>387</ele>
        <time>2014-04-20T10:15:19.790Z</time>
      </trkpt>
      <trkpt lat="47.50515" lon="6.79714">
        <ele>387</ele>
        <time>2014-04-20T10:15:24.743Z</time>
      </trkpt>
      <trkpt lat="47.5051" lon="6.79676">
        <ele>386</ele>
        <time>2014-04-20T10:15:29.805Z</time>
      </trkpt>
      <trkpt lat="47.50505" lon="6.7964">
        <ele>386</ele>
        <time>2014-04-20T10:15:34.740Z</time>
      </trkpt>
      <trkpt lat="47.50507" lon="6.79607">
        <ele>385</ele>
        <time>2014-04-20T10:15:39.806Z</time>
      </trkpt>
      <trkpt lat="47.50531" lon="6.79603">
        <ele>385</ele>
        <time>2014-04-20T10:15:44.745Z</time>
      </trkpt>
      <trkpt lat="47.50555" lon="6.79611">
        <ele>384</ele>
        <time>2014-04-20T10:15:49.766Z</time>
      </trkpt>
      <trkpt lat="47.50566" lon="6.79593">
        <ele>384</ele>
        <time>2014-04-20T10:15:54.735Z</time>
      </trkpt>
      <trkpt lat="47.50575" lon="6.79564">
        <ele>384</ele>
        <time>2014-04-20T10:15:59.802Z</time>
      </trkpt>
      <trkpt lat="47.5057" lon="6.79533">
        <ele>384</ele>
        <time>2014-04-20T10:16:04.727Z</time>
      </trkpt>
      <trkpt lat="47.50582" lon="6.79508">
        <ele>385</ele>
        <time>2014-04-20T10:16:09.804Z</time>
      </trkpt>
      <trkpt lat="47.50587" lon="6.79478">
        <ele>385</ele>
        <time>2014-04-20T10:16:14.733Z</time>
      </trkpt>
      <trkpt lat="47.50601" lon="6.79452">
        <ele>384</ele>
        <time>2014-04-20T10:16:19.962Z</time>
      </trkpt>
      <trkpt lat="47.50618" lon="6.7943">
        <ele>384</ele>
        <time>2014-04-20T10:16:24.740Z</time>
      </trkpt>
      <trkpt lat="47.50638" lon="6.79408">
        <ele>384</ele>
        <time>2014-04-20T10:16:29.805Z</time>
      </trkpt>
      <trkpt lat="47.50657" lon="6.79388">
        <ele>383</ele>
        <time>2014-04-20T10:16:34.738Z</time>
      </trkpt>
      <trkpt lat="47.50677" lon="6.7937">
        <ele>383</ele>
        <time>2014-04-20T10:16:39.798Z</time>
      </trkpt>
      <trkpt lat="47.50697" lon="6.79355">
        <ele>383</ele>
        <time>2014-04-20T10:16:44.733Z</time>
      </trkpt>
      <trkpt lat="47.5072" lon="6.79338">
        <ele>382</ele>
        <time>2014-04-20T10:16:49.802Z</time>
      </trkpt>
      <trkpt lat="47.50737" lon="6.79322">
        <ele>383</ele>
        <time>2014-04-20T10:16:54.729Z</time>
      </trkpt>
      <trkpt lat="47.5075" lon="6.79303">
        <ele>382</ele>
        <time>2014-04-20T10:16:59.789Z</time>
      </trkpt>
      <trkpt lat="47.50761" lon="6.79284">
        <ele>382</ele>
        <time>2014-04-20T10:17:04.796Z</time>
      </trkpt>
      <trkpt lat="47.50763" lon="6.79253">
        <ele>382</ele>
        <time>2014-04-20T10:17:09.794Z</time>
      </trkpt>
      <trkpt lat="47.50768" lon="6.79217">
        <ele>381</ele>
        <time>2014-04-20T10:17:14.727Z</time>
      </trkpt>
      <trkpt lat="47.50774" lon="6.79178">
        <ele>383</ele>
        <time>2014-04-20T10:17:19.802Z</time>
      </trkpt>
      <trkpt lat="47.50779" lon="6.79141">
        <ele>384</ele>
        <time>2014-04-20T10:17:24.738Z</time>
      </trkpt>
      <trkpt lat="47.50784" lon="6.79101">
        <ele>382</ele>
        <time>2014-04-20T10:17:29.775Z</time>
      </trkpt>
      <trkpt lat="47.50779" lon="6.79062">
        <ele>381</ele>
        <time>2014-04-20T10:17:34.702Z</time>
      </trkpt>
      <trkpt lat="47.50782" lon="6.79025">
        <ele>381</ele>
        <time>2014-04-20T10:17:39.801Z</time>
      </trkpt>
      <trkpt lat="47.50789" lon="6.78951">
        <ele>381</ele>
        <time>2014-04-20T10:17:49.801Z</time>
      </trkpt>
      <trkpt lat="47.50787" lon="6.78916">
        <ele>382</ele>
        <time>2014-04-20T10:17:54.734Z</time>
      </trkpt>
      <trkpt lat="47.50792" lon="6.78881">
        <ele>382</ele>
        <time>2014-04-20T10:17:59.810Z</time>
      </trkpt>
      <trkpt lat="47.50794" lon="6.78841">
        <ele>383</ele>
        <time>2014-04-20T10:18:04.767Z</time>
      </trkpt>
      <trkpt lat="47.50796" lon="6.78809">
        <ele>384</ele>
        <time>2014-04-20T10:18:09.804Z</time>
      </trkpt>
      <trkpt lat="47.50799" lon="6.78778">
        <ele>385</ele>
        <time>2014-04-20T10:18:14.735Z</time>
      </trkpt>
      <trkpt lat="47.50804" lon="6.78743">
        <ele>384</ele>
        <time>2014-04-20T10:18:19.802Z</time>
      </trkpt>
      <trkpt lat="47.50804" lon="6.78711">
        <ele>383</ele>
        <time>2014-04-20T10:18:24.743Z</time>
      </trkpt>
      <trkpt lat="47.50808" lon="6.78694">
        <ele>384</ele>
        <time>2014-04-20T10:18:29.789Z</time>
      </trkpt>
      <trkpt lat="47.50821" lon="6.78693">
        <ele>384</ele>
        <time>2014-04-20T10:18:34.731Z</time>
      </trkpt>
      <trkpt lat="47.50839" lon="6.787">
        <ele>384</ele>
        <time>2014-04-20T10:18:39.807Z</time>
      </trkpt>
      <trkpt lat="47.50858" lon="6.78706">
        <ele>384</ele>
        <time>2014-04-20T10:18:44.733Z</time>
      </trkpt>
      <trkpt lat="47.50879" lon="6.78713">
        <ele>384</ele>
        <time>2014-04-20T10:18:49.802Z</time>
      </trkpt>
      <trkpt lat="47.509" lon="6.78723">
        <ele>383</ele>
        <time>2014-04-20T10:18:54.745Z</time>
      </trkpt>
      <trkpt lat="47.50912" lon="6.7873">
        <ele>384</ele>
        <time>2014-04-20T10:18:59.803Z</time>
      </trkpt>
      <trkpt lat="47.50917" lon="6.78731">
        <ele>386</ele>
        <time>2014-04-20T10:19:04.732Z</time>
      </trkpt>
      <trkpt lat="47.5092" lon="6.7871">
        <ele>387</ele>
        <time>2014-04-20T10:19:09.800Z</time>
      </trkpt>
      <trkpt lat="47.50925" lon="6.7868">
        <ele>388</ele>
        <time>2014-04-20T10:19:14.736Z</time>
      </trkpt>
      <trkpt lat="47.50928" lon="6.78648">
        <ele>387</ele>
        <time>2014-04-20T10:19:19.803Z</time>
      </trkpt>
      <trkpt lat="47.5093" lon="6.78616">
        <ele>386</ele>
        <time>2014-04-20T10:19:24.738Z</time>
      </trkpt>
      <trkpt lat="47.50937" lon="6.78586">
        <ele>386</ele>
        <time>2014-04-20T10:19:29.929Z</time>
      </trkpt>
      <trkpt lat="47.50942" lon="6.78554">
        <ele>386</ele>
        <time>2014-04-20T10:19:34.732Z</time>
      </trkpt>
      <trkpt lat="47.50948" lon="6.78522">
        <ele>387</ele>
        <time>2014-04-20T10:19:39.805Z</time>
      </trkpt>
      <trkpt lat="47.50953" lon="6.78493">
        <ele>388</ele>
        <time>2014-04-20T10:19:44.735Z</time>
      </trkpt>
      <trkpt lat="47.50954" lon="6.78462">
        <ele>388</ele>
        <time>2014-04-20T10:19:49.775Z</time>
      </trkpt>
      <trkpt lat="47.50957" lon="6.78432">
        <ele>388</ele>
        <time>2014-04-20T10:19:54.735Z</time>
      </trkpt>
      <trkpt lat="47.50964" lon="6.78401">
        <ele>388</ele>
        <time>2014-04-20T10:19:59.803Z</time>
      </trkpt>
      <trkpt lat="47.50963" lon="6.78371">
        <ele>383</ele>
        <time>2014-04-20T10:20:04.738Z</time>
      </trkpt>
      <trkpt lat="47.50969" lon="6.78349">
        <ele>383</ele>
        <time>2014-04-20T10:20:09.803Z</time>
      </trkpt>
      <trkpt lat="47.50975" lon="6.78318">
        <ele>384</ele>
        <time>2014-04-20T10:20:14.734Z</time>
      </trkpt>
      <trkpt lat="47.50977" lon="6.78284">
        <ele>384</ele>
        <time>2014-04-20T10:20:19.782Z</time>
      </trkpt>
      <trkpt lat="47.50981" lon="6.7825">
        <ele>384</ele>
        <time>2014-04-20T10:20:24.727Z</time>
      </trkpt>
      <trkpt lat="47.50981" lon="6.78218">
        <ele>385</ele>
        <time>2014-04-20T10:20:29.804Z</time>
      </trkpt>
      <trkpt lat="47.50984" lon="6.78185">
        <ele>384</ele>
        <time>2014-04-20T10:20:34.732Z</time>
      </trkpt>
      <trkpt lat="47.50989" lon="6.78157">
        <ele>384</ele>
        <time>2014-04-20T10:20:39.777Z</time>
      </trkpt>
      <trkpt lat="47.50999" lon="6.78139">
        <ele>384</ele>
        <time>2014-04-20T10:20:44.735Z</time>
      </trkpt>
      <trkpt lat="47.51016" lon="6.78145">
        <ele>384</ele>
        <time>2014-04-20T10:20:49.806Z</time>
      </trkpt>
      <trkpt lat="47.51033" lon="6.7815">
        <ele>384</ele>
        <time>2014-04-20T10:20:54.737Z</time>
      </trkpt>
      <trkpt lat="47.5105" lon="6.78155">
        <ele>385</ele>
        <time>2014-04-20T10:20:59.804Z</time>
      </trkpt>
      <trkpt lat="47.51063" lon="6.78159">
        <ele>387</ele>
        <time>2014-04-20T10:21:04.737Z</time>
      </trkpt>
      <trkpt lat="47.51079" lon="6.78164">
        <ele>388</ele>
        <time>2014-04-20T10:21:09.799Z</time>
      </trkpt>
      <trkpt lat="47.51094" lon="6.78169">
        <ele>389</ele>
        <time>2014-04-20T10:21:14.742Z</time>
      </trkpt>
      <trkpt lat="47.51109" lon="6.78172">
        <ele>389</ele>
        <time>2014-04-20T10:21:19.804Z</time>
      </trkpt>
      <trkpt lat="47.51121" lon="6.78176">
        <ele>391</ele>
        <time>2014-04-20T10:21:24.736Z</time>
      </trkpt>
      <trkpt lat="47.51132" lon="6.78177">
        <ele>391</ele>
        <time>2014-04-20T10:21:29.802Z</time>
      </trkpt>
      <trkpt lat="47.51137" lon="6.7817">
        <ele>391</ele>
        <time>2014-04-20T10:21:34.729Z</time>
      </trkpt>
      <trkpt lat="47.51141" lon="6.78159">
        <ele>392</ele>
        <time>2014-04-20T10:21:39.779Z</time>
      </trkpt>
      <trkpt lat="47.51147" lon="6.78149">
        <ele>393</ele>
        <time>2014-04-20T10:21:44.769Z</time>
      </trkpt>
      <trkpt lat="47.51151" lon="6.78137">
        <ele>393</ele>
        <time>2014-04-20T10:21:49.732Z</time>
      </trkpt>
      <trkpt lat="47.51157" lon="6.78123">
        <ele>392</ele>
        <time>2014-04-20T10:21:54.802Z</time>
      </trkpt>
      <trkpt lat="47.51163" lon="6.7811">
        <ele>393</ele>
        <time>2014-04-20T10:21:59.738Z</time>
      </trkpt>
      <trkpt lat="47.51171" lon="6.78096">
        <ele>393</ele>
        <time>2014-04-20T10:22:04.800Z</time>
      </trkpt>
      <trkpt lat="47.51178" lon="6.7808">
        <ele>393</ele>
        <time>2014-04-20T10:22:09.727Z</time>
      </trkpt>
      <trkpt lat="47.51184" lon="6.78062">
        <ele>393</ele>
        <time>2014-04-20T10:22:14.774Z</time>
      </trkpt>
      <trkpt lat="47.51189" lon="6.78042">
        <ele>394</ele>
        <time>2014-04-20T10:22:19.726Z</time>
      </trkpt>
      <trkpt lat="47.51195" lon="6.78021">
        <ele>397</ele>
        <time>2014-04-20T10:22:24.802Z</time>
      </trkpt>
      <trkpt lat="47.51202" lon="6.78001">
        <ele>397</ele>
        <time>2014-04-20T10:22:29.738Z</time>
      </trkpt>
      <trkpt lat="47.51208" lon="6.77978">
        <ele>397</ele>
        <time>2014-04-20T10:22:34.792Z</time>
      </trkpt>
      <trkpt lat="47.51214" lon="6.77954">
        <ele>398</ele>
        <time>2014-04-20T10:22:39.728Z</time>
      </trkpt>
      <trkpt lat="47.51219" lon="6.7793">
        <ele>399</ele>
        <time>2014-04-20T10:22:44.799Z</time>
      </trkpt>
      <trkpt lat="47.51224" lon="6.77904">
        <ele>399</ele>
        <time>2014-04-20T10:22:49.734Z</time>
      </trkpt>
      <trkpt lat="47.5123" lon="6.77877">
        <ele>400</ele>
        <time>2014-04-20T10:22:54.738Z</time>
      </trkpt>
      <trkpt lat="47.51236" lon="6.7785">
        <ele>400</ele>
        <time>2014-04-20T10:22:59.784Z</time>
      </trkpt>
      <trkpt lat="47.51241" lon="6.77822">
        <ele>401</ele>
        <time>2014-04-20T10:23:04.734Z</time>
      </trkpt>
      <trkpt lat="47.51246" lon="6.77797">
        <ele>400</ele>
        <time>2014-04-20T10:23:09.812Z</time>
      </trkpt>
      <trkpt lat="47.51255" lon="6.77777">
        <ele>399</ele>
        <time>2014-04-20T10:23:14.737Z</time>
      </trkpt>
      <trkpt lat="47.51268" lon="6.77777">
        <ele>399</ele>
        <time>2014-04-20T10:23:19.782Z</time>
      </trkpt>
      <trkpt lat="47.51281" lon="6.77777">
        <ele>399</ele>
        <time>2014-04-20T10:23:24.731Z</time>
      </trkpt>
      <trkpt lat="47.51293" lon="6.77776">
        <ele>400</ele>
        <time>2014-04-20T10:23:29.800Z</time>
      </trkpt>
      <trkpt lat="47.51305" lon="6.77774">
        <ele>402</ele>
        <time>2014-04-20T10:23:34.868Z</time>
      </trkpt>
      <trkpt lat="47.51316" lon="6.77772">
        <ele>402</ele>
        <time>2014-04-20T10:23:39.803Z</time>
      </trkpt>
      <trkpt lat="47.51327" lon="6.77771">
        <ele>404</ele>
        <time>2014-04-20T10:23:44.725Z</time>
      </trkpt>
      <trkpt lat="47.51335" lon="6.77776">
        <ele>405</ele>
        <time>2014-04-20T10:23:49.773Z</time>
      </trkpt>
      <trkpt lat="47.51345" lon="6.77774">
        <ele>405</ele>
        <time>2014-04-20T10:23:54.725Z</time>
      </trkpt>
      <trkpt lat="47.51354" lon="6.77769">
        <ele>406</ele>
        <time>2014-04-20T10:23:59.800Z</time>
      </trkpt>
      <trkpt lat="47.51363" lon="6.77765">
        <ele>407</ele>
        <time>2014-04-20T10:24:04.735Z</time>
      </trkpt>
      <trkpt lat="47.51372" lon="6.7776">
        <ele>407</ele>
        <time>2014-04-20T10:24:09.802Z</time>
      </trkpt>
      <trkpt lat="47.5138" lon="6.77755">
        <ele>408</ele>
        <time>2014-04-20T10:24:14.725Z</time>
      </trkpt>
      <trkpt lat="47.51389" lon="6.77751">
        <ele>409</ele>
        <time>2014-04-20T10:24:19.757Z</time>
      </trkpt>
      <trkpt lat="47.51398" lon="6.77747">
        <ele>410</ele>
        <time>2014-04-20T10:24:24.725Z</time>
      </trkpt>
      <trkpt lat="47.51407" lon="6.77743">
        <ele>411</ele>
        <time>2014-04-20T10:24:29.801Z</time>
      </trkpt>
      <trkpt lat="47.51415" lon="6.77739">
        <ele>412</ele>
        <time>2014-04-20T10:24:34.734Z</time>
      </trkpt>
      <trkpt lat="47.51423" lon="6.77736">
        <ele>412</ele>
        <time>2014-04-20T10:24:39.801Z</time>
      </trkpt>
      <trkpt lat="47.51432" lon="6.77734">
        <ele>413</ele>
        <time>2014-04-20T10:24:44.738Z</time>
      </trkpt>
      <trkpt lat="47.51442" lon="6.7773">
        <ele>415</ele>
        <time>2014-04-20T10:24:49.801Z</time>
      </trkpt>
      <trkpt lat="47.51451" lon="6.77729">
        <ele>416</ele>
        <time>2014-04-20T10:24:54.727Z</time>
      </trkpt>
      <trkpt lat="47.51478" lon="6.77724">
        <ele>418</ele>
        <time>2014-04-20T10:25:09.802Z</time>
      </trkpt>
      <trkpt lat="47.51487" lon="6.77723">
        <ele>420</ele>
        <time>2014-04-20T10:25:14.734Z</time>
      </trkpt>
      <trkpt lat="47.51497" lon="6.7772">
        <ele>420</ele>
        <time>2014-04-20T10:25:19.800Z</time>
      </trkpt>
      <trkpt lat="47.51506" lon="6.7772">
        <ele>421</ele>
        <time>2014-04-20T10:25:24.699Z</time>
      </trkpt>
      <trkpt lat="47.51515" lon="6.7772">
        <ele>422</ele>
        <time>2014-04-20T10:25:29.798Z</time>
      </trkpt>
      <trkpt lat="47.51523" lon="6.77722">
        <ele>423</ele>
        <time>2014-04-20T10:25:34.728Z</time>
      </trkpt>
      <trkpt lat="47.51532" lon="6.77723">
        <ele>426</ele>
        <time>2014-04-20T10:25:39.819Z</time>
      </trkpt>
      <trkpt lat="47.51543" lon="6.77721">
        <ele>426</ele>
        <time>2014-04-20T10:25:44.801Z</time>
      </trkpt>
      <trkpt lat="47.51553" lon="6.77721">
        <ele>425</ele>
        <time>2014-04-20T10:25:49.732Z</time>
      </trkpt>
      <trkpt lat="47.51561" lon="6.77725">
        <ele>428</ele>
        <time>2014-04-20T10:25:54.801Z</time>
      </trkpt>
      <trkpt lat="47.51598" lon="6.77742">
        <ele>438</ele>
        <time>2014-04-20T10:26:19.802Z</time>
      </trkpt>
      <trkpt lat="47.51604" lon="6.77746">
        <ele>439</ele>
        <time>2014-04-20T10:26:24.739Z</time>
      </trkpt>
      <trkpt lat="47.51609" lon="6.77751">
        <ele>442</ele>
        <time>2014-04-20T10:26:29.791Z</time>
      </trkpt>
      <trkpt lat="47.5162" lon="6.77754">
        <ele>442</ele>
        <time>2014-04-20T10:26:34.737Z</time>
      </trkpt>
      <trkpt lat="47.51629" lon="6.77757">
        <ele>444</ele>
        <time>2014-04-20T10:26:39.800Z</time>
      </trkpt>
      <trkpt lat="47.51637" lon="6.77758">
        <ele>446</ele>
        <time>2014-04-20T10:26:44.741Z</time>
      </trkpt>
      <trkpt lat="47.51648" lon="6.77758">
        <ele>447</ele>
        <time>2014-04-20T10:26:49.803Z</time>
      </trkpt>
      <trkpt lat="47.51657" lon="6.77757">
        <ele>449</ele>
        <time>2014-04-20T10:26:54.742Z</time>
      </trkpt>
      <trkpt lat="47.51667" lon="6.77761">
        <ele>450</ele>
        <time>2014-04-20T10:26:59.776Z</time>
      </trkpt>
      <trkpt lat="47.51678" lon="6.77765">
        <ele>450</ele>
        <time>2014-04-20T10:27:04.732Z</time>
      </trkpt>
      <trkpt lat="47.51688" lon="6.77766">
        <ele>452</ele>
        <time>2014-04-20T10:27:09.783Z</time>
      </trkpt>
      <trkpt lat="47.51696" lon="6.7776">
        <ele>455</ele>
        <time>2014-04-20T10:27:14.733Z</time>
      </trkpt>
      <trkpt lat="47.51698" lon="6.77758">
        <ele>458</ele>
        <time>2014-04-20T10:27:19.801Z</time>
      </trkpt>
      <trkpt lat="47.51701" lon="6.77758">
        <ele>457</ele>
        <time>2014-04-20T10:27:24.741Z</time>
      </trkpt>
      <trkpt lat="47.517" lon="6.77754">
        <ele>456</ele>
        <time>2014-04-20T10:27:29.804Z</time>
      </trkpt>
      <trkpt lat="47.517" lon="6.77753">
        <ele>455</ele>
        <time>2014-04-20T10:27:34.739Z</time>
      </trkpt>
      <trkpt lat="47.51699" lon="6.77753">
        <ele>455</ele>
        <time>2014-04-20T10:27:39.803Z</time>
      </trkpt>
      <trkpt lat="47.51697" lon="6.77762">
        <ele>456</ele>
        <time>2014-04-20T10:27:44.735Z</time>
      </trkpt>
      <trkpt lat="47.5169" lon="6.77759">
        <ele>455</ele>
        <time>2014-04-20T10:27:49.775Z</time>
      </trkpt>
      <trkpt lat="47.51668" lon="6.77753">
        <ele>455</ele>
        <time>2014-04-20T10:27:54.733Z</time>
      </trkpt>
      <trkpt lat="47.51565" lon="6.77728">
        <ele>448</ele>
        <time>2014-04-20T10:28:19.731Z</time>
      </trkpt>
      <trkpt lat="47.51565" lon="6.77732">
        <ele>447</ele>
        <time>2014-04-20T10:28:24.811Z</time>
      </trkpt>
      <trkpt lat="47.51573" lon="6.77731">
        <ele>444</ele>
        <time>2014-04-20T10:28:29.724Z</time>
      </trkpt>
      <trkpt lat="47.5158" lon="6.77732">
        <ele>443</ele>
        <time>2014-04-20T10:28:34.773Z</time>
      </trkpt>
      <trkpt lat="47.51586" lon="6.77735">
        <ele>443</ele>
        <time>2014-04-20T10:28:39.737Z</time>
      </trkpt>
      <trkpt lat="47.51591" lon="6.77738">
        <ele>443</ele>
        <time>2014-04-20T10:28:44.790Z</time>
      </trkpt>
      <trkpt lat="47.51596" lon="6.77743">
        <ele>445</ele>
        <time>2014-04-20T10:28:49.739Z</time>
      </trkpt>
      <trkpt lat="47.516" lon="6.77748">
        <ele>447</ele>
        <time>2014-04-20T10:28:54.806Z</time>
      </trkpt>
      <trkpt lat="47.51605" lon="6.77752">
        <ele>449</ele>
        <time>2014-04-20T10:28:59.729Z</time>
      </trkpt>
      <trkpt lat="47.51611" lon="6.77755">
        <ele>451</ele>
        <time>2014-04-20T10:29:04.803Z</time>
      </trkpt>
      <trkpt lat="47.51619" lon="6.77752">
        <ele>451</ele>
        <time>2014-04-20T10:29:09.735Z</time>
      </trkpt>
      <trkpt lat="47.51627" lon="6.77755">
        <ele>452</ele>
        <time>2014-04-20T10:29:14.803Z</time>
      </trkpt>
      <trkpt lat="47.51636" lon="6.77753">
        <ele>453</ele>
        <time>2014-04-20T10:29:19.741Z</time>
      </trkpt>
      <trkpt lat="47.51643" lon="6.77754">
        <ele>454</ele>
        <time>2014-04-20T10:29:24.785Z</time>
      </trkpt>
      <trkpt lat="47.51651" lon="6.77757">
        <ele>453</ele>
        <time>2014-04-20T10:29:29.742Z</time>
      </trkpt>
      <trkpt lat="47.51659" lon="6.7776">
        <ele>454</ele>
        <time>2014-04-20T10:29:34.804Z</time>
      </trkpt>
      <trkpt lat="47.5167" lon="6.77764">
        <ele>454</ele>
        <time>2014-04-20T10:29:39.742Z</time>
      </trkpt>
      <trkpt lat="47.51679" lon="6.77766">
        <ele>455</ele>
        <time>2014-04-20T10:29:44.738Z</time>
      </trkpt>
      <trkpt lat="47.51687" lon="6.77767">
        <ele>456</ele>
        <time>2014-04-20T10:29:49.804Z</time>
      </trkpt>
      <trkpt lat="47.51696" lon="6.77766">
        <ele>457</ele>
        <time>2014-04-20T10:29:54.727Z</time>
      </trkpt>
      <trkpt lat="47.51699" lon="6.77756">
        <ele>457</ele>
        <time>2014-04-20T10:29:59.800Z</time>
      </trkpt>
      <trkpt lat="47.51702" lon="6.77748">
        <ele>458</ele>
        <time>2014-04-20T10:30:04.742Z</time>
      </trkpt>
      <trkpt lat="47.51706" lon="6.77736">
        <ele>458</ele>
        <time>2014-04-20T10:30:09.775Z</time>
      </trkpt>
      <trkpt lat="47.51707" lon="6.77727">
        <ele>458</ele>
        <time>2014-04-20T10:30:14.739Z</time>
      </trkpt>
      <trkpt lat="47.51706" lon="6.77714">
        <ele>458</ele>
        <time>2014-04-20T10:30:19.803Z</time>
      </trkpt>
      <trkpt lat="47.51706" lon="6.77701">
        <ele>458</ele>
        <time>2014-04-20T10:30:24.747Z</time>
      </trkpt>
      <trkpt lat="47.51707" lon="6.77688">
        <ele>458</ele>
        <time>2014-04-20T10:30:29.801Z</time>
      </trkpt>
      <trkpt lat="47.51707" lon="6.77679">
        <ele>458</ele>
        <time>2014-04-20T10:30:34.734Z</time>
      </trkpt>
      <trkpt lat="47.5171" lon="6.77669">
        <ele>458</ele>
        <time>2014-04-20T10:30:39.807Z</time>
      </trkpt>
      <trkpt lat="47.51711" lon="6.77657">
        <ele>458</ele>
        <time>2014-04-20T10:30:44.731Z</time>
      </trkpt>
      <trkpt lat="47.51711" lon="6.77644">
        <ele>459</ele>
        <time>2014-04-20T10:30:49.799Z</time>
      </trkpt>
      <trkpt lat="47.51712" lon="6.77631">
        <ele>459</ele>
        <time>2014-04-20T10:30:54.737Z</time>
      </trkpt>
      <trkpt lat="47.51712" lon="6.77618">
        <ele>458</ele>
        <time>2014-04-20T10:30:59.779Z</time>
      </trkpt>
      <trkpt lat="47.51712" lon="6.77606">
        <ele>458</ele>
        <time>2014-04-20T10:31:04.739Z</time>
      </trkpt>
      <trkpt lat="47.51714" lon="6.77599">
        <ele>458</ele>
        <time>2014-04-20T10:31:09.804Z</time>
      </trkpt>
      <trkpt lat="47.51717" lon="6.77592">
        <ele>459</ele>
        <time>2014-04-20T10:31:14.785Z</time>
      </trkpt>
      <trkpt lat="47.5172" lon="6.77584">
        <ele>459</ele>
        <time>2014-04-20T10:31:19.714Z</time>
      </trkpt>
      <trkpt lat="47.5172" lon="6.77584">
        <ele>459</ele>
        <time>2014-04-20T10:31:24.802Z</time>
      </trkpt>
      <trkpt lat="47.51723" lon="6.77575">
        <ele>459</ele>
        <time>2014-04-20T10:31:34.806Z</time>
      </trkpt>
      <trkpt lat="47.51719" lon="6.77562">
        <ele>459</ele>
        <time>2014-04-20T10:31:39.749Z</time>
      </trkpt>
      <trkpt lat="47.51722" lon="6.77543">
        <ele>459</ele>
        <time>2014-04-20T10:31:44.805Z</time>
      </trkpt>
      <trkpt lat="47.51725" lon="6.77521">
        <ele>460</ele>
        <time>2014-04-20T10:31:49.743Z</time>
      </trkpt>
      <trkpt lat="47.51729" lon="6.77501">
        <ele>461</ele>
        <time>2014-04-20T10:31:54.783Z</time>
      </trkpt>
      <trkpt lat="47.51736" lon="6.7748">
        <ele>459</ele>
        <time>2014-04-20T10:31:59.749Z</time>
      </trkpt>
      <trkpt lat="47.51752" lon="6.77479">
        <ele>457</ele>
        <time>2014-04-20T10:32:04.807Z</time>
      </trkpt>
      <trkpt lat="47.51768" lon="6.77482">
        <ele>457</ele>
        <time>2014-04-20T10:32:09.737Z</time>
      </trkpt>
      <trkpt lat="47.51786" lon="6.77487">
        <ele>456</ele>
        <time>2014-04-20T10:32:14.806Z</time>
      </trkpt>
      <trkpt lat="47.51808" lon="6.77494">
        <ele>454</ele>
        <time>2014-04-20T10:32:19.744Z</time>
      </trkpt>
      <trkpt lat="47.5183" lon="6.77499">
        <ele>452</ele>
        <time>2014-04-20T10:32:24.804Z</time>
      </trkpt>
      <trkpt lat="47.51848" lon="6.77502">
        <ele>451</ele>
        <time>2014-04-20T10:32:29.737Z</time>
      </trkpt>
      <trkpt lat="47.51858" lon="6.77502">
        <ele>452</ele>
        <time>2014-04-20T10:32:34.800Z</time>
      </trkpt>
      <trkpt lat="47.5186" lon="6.77496">
        <ele>452</ele>
        <time>2014-04-20T10:32:39.737Z</time>
      </trkpt>
      <trkpt lat="47.5186" lon="6.77496">
        <ele>452</ele>
        <time>2014-04-20T10:32:44.804Z</time>
      </trkpt>
      <trkpt lat="47.51858" lon="6.77494">
        <ele>453</ele>
        <time>2014-04-20T10:32:49.733Z</time>
      </trkpt>
      <trkpt lat="47.51857" lon="6.77495">
        <ele>454</ele>
        <time>2014-04-20T10:32:54.803Z</time>
      </trkpt>
      <trkpt lat="47.51855" lon="6.775">
        <ele>455</ele>
        <time>2014-04-20T10:32:59.733Z</time>
      </trkpt>
      <trkpt lat="47.51842" lon="6.77502">
        <ele>456</ele>
        <time>2014-04-20T10:33:04.803Z</time>
      </trkpt>
      <trkpt lat="47.51825" lon="6.77499">
        <ele>457</ele>
        <time>2014-04-20T10:33:09.732Z</time>
      </trkpt>
      <trkpt lat="47.51812" lon="6.77492">
        <ele>458</ele>
        <time>2014-04-20T10:33:14.805Z</time>
      </trkpt>
      <trkpt lat="47.51809" lon="6.77486">
        <ele>456</ele>
        <time>2014-04-20T10:33:19.774Z</time>
      </trkpt>
      <trkpt lat="47.51808" lon="6.77484">
        <ele>456</ele>
        <time>2014-04-20T10:33:24.740Z</time>
      </trkpt>
      <trkpt lat="47.51808" lon="6.77483">
        <ele>456</ele>
        <time>2014-04-20T10:33:29.801Z</time>
      </trkpt>
      <trkpt lat="47.51808" lon="6.77483">
        <ele>456</ele>
        <time>2014-04-20T10:33:34.732Z</time>
      </trkpt>
      <trkpt lat="47.51808" lon="6.77482">
        <ele>455</ele>
        <time>2014-04-20T10:33:39.806Z</time>
      </trkpt>
      <trkpt lat="47.51808" lon="6.77482">
        <ele>455</ele>
        <time>2014-04-20T10:33:44.739Z</time>
      </trkpt>
      <trkpt lat="47.51808" lon="6.77482">
        <ele>455</ele>
        <time>2014-04-20T10:33:49.796Z</time>
      </trkpt>
      <trkpt lat="47.51809" lon="6.77482">
        <ele>454</ele>
        <time>2014-04-20T10:33:54.736Z</time>
      </trkpt>
      <trkpt lat="47.51809" lon="6.77482">
        <ele>454</ele>
        <time>2014-04-20T10:33:59.803Z</time>
      </trkpt>
      <trkpt lat="47.51809" lon="6.77482">
        <ele>454</ele>
        <time>2014-04-20T10:34:04.750Z</time>
      </trkpt>
      <trkpt lat="47.51809" lon="6.77482">
        <ele>454</ele>
        <time>2014-04-20T10:34:09.807Z</time>
      </trkpt>
      <trkpt lat="47.51809" lon="6.77482">
        <ele>454</ele>
        <time>2014-04-20T10:34:14.734Z</time>
      </trkpt>
      <trkpt lat="47.51809" lon="6.77482">
        <ele>454</ele>
        <time>2014-04-20T10:34:19.787Z</time>
      </trkpt>
      <trkpt lat="47.51809" lon="6.77482">
        <ele>454</ele>
        <time>2014-04-20T10:34:24.732Z</time>
      </trkpt>
      <trkpt lat="47.51809" lon="6.77482">
        <ele>454</ele>
        <time>2014-04-20T10:34:29.804Z</time>
      </trkpt>
      <trkpt lat="47.51809" lon="6.77482">
        <ele>454</ele>
        <time>2014-04-20T10:34:34.734Z</time>
      </trkpt>
      <trkpt lat="47.51809" lon="6.77481">
        <ele>453</ele>
        <time>2014-04-20T10:34:39.805Z</time>
      </trkpt>
      <trkpt lat="47.51808" lon="6.77481">
        <ele>453</ele>
        <time>2014-04-20T10:34:44.740Z</time>
      </trkpt>
      <trkpt lat="47.51807" lon="6.77481">
        <ele>453</ele>
        <time>2014-04-20T10:34:49.805Z</time>
      </trkpt>
      <trkpt lat="47.51806" lon="6.77483">
        <ele>453</ele>
        <time>2014-04-20T10:34:54.733Z</time>
      </trkpt>
      <trkpt lat="47.51805" lon="6.77483">
        <ele>453</ele>
        <time>2014-04-20T10:34:59.805Z</time>
      </trkpt>
      <trkpt lat="47.51805" lon="6.77483">
        <ele>453</ele>
        <time>2014-04-20T10:35:04.734Z</time>
      </trkpt>
      <trkpt lat="47.51804" lon="6.77484">
        <ele>453</ele>
        <time>2014-04-20T10:35:09.808Z</time>
      </trkpt>
      <trkpt lat="47.51805" lon="6.77485">
        <ele>454</ele>
        <time>2014-04-20T10:35:14.725Z</time>
      </trkpt>
      <trkpt lat="47.51805" lon="6.77485">
        <ele>454</ele>
        <time>2014-04-20T10:35:19.799Z</time>
      </trkpt>
      <trkpt lat="47.51804" lon="6.77487">
        <ele>454</ele>
        <time>2014-04-20T10:35:24.731Z</time>
      </trkpt>
      <trkpt lat="47.51804" lon="6.77486">
        <ele>454</ele>
        <time>2014-04-20T10:35:29.802Z</time>
      </trkpt>
      <trkpt lat="47.51804" lon="6.77486">
        <ele>455</ele>
        <time>2014-04-20T10:35:34.739Z</time>
      </trkpt>
      <trkpt lat="47.51803" lon="6.77487">
        <ele>455</ele>
        <time>2014-04-20T10:35:39.800Z</time>
      </trkpt>
      <trkpt lat="47.51802" lon="6.77487">
        <ele>455</ele>
        <time>2014-04-20T10:35:44.724Z</time>
      </trkpt>
      <trkpt lat="47.51802" lon="6.77482">
        <ele>455</ele>
        <time>2014-04-20T10:35:49.800Z</time>
      </trkpt>
      <trkpt lat="47.51804" lon="6.77483">
        <ele>455</ele>
        <time>2014-04-20T10:35:54.714Z</time>
      </trkpt>
      <trkpt lat="47.51803" lon="6.77491">
        <ele>455</ele>
        <time>2014-04-20T10:35:59.784Z</time>
      </trkpt>
      <trkpt lat="47.51803" lon="6.77491">
        <ele>454</ele>
        <time>2014-04-20T10:36:04.712Z</time>
      </trkpt>
      <trkpt lat="47.51804" lon="6.77479">
        <ele>454</ele>
        <time>2014-04-20T10:36:09.900Z</time>
      </trkpt>
      <trkpt lat="47.51807" lon="6.77476">
        <ele>454</ele>
        <time>2014-04-20T10:36:14.715Z</time>
      </trkpt>
      <trkpt lat="47.51807" lon="6.77471">
        <ele>454</ele>
        <time>2014-04-20T10:36:19.796Z</time>
      </trkpt>
      <trkpt lat="47.51807" lon="6.77471">
        <ele>454</ele>
        <time>2014-04-20T10:36:24.706Z</time>
      </trkpt>
      <trkpt lat="47.51807" lon="6.77478">
        <ele>454</ele>
        <time>2014-04-20T10:36:29.770Z</time>
      </trkpt>
      <trkpt lat="47.51808" lon="6.77487">
        <ele>455</ele>
        <time>2014-04-20T10:36:34.725Z</time>
      </trkpt>
      <trkpt lat="47.51808" lon="6.77488">
        <ele>456</ele>
        <time>2014-04-20T10:36:39.798Z</time>
      </trkpt>
      <trkpt lat="47.51808" lon="6.77488">
        <ele>456</ele>
        <time>2014-04-20T10:36:44.727Z</time>
      </trkpt>
      <trkpt lat="47.51808" lon="6.77488">
        <ele>456</ele>
        <time>2014-04-20T10:36:49.801Z</time>
      </trkpt>
      <trkpt lat="47.51808" lon="6.77489">
        <ele>456</ele>
        <time>2014-04-20T10:36:54.732Z</time>
      </trkpt>
      <trkpt lat="47.51807" lon="6.77489">
        <ele>456</ele>
        <time>2014-04-20T10:36:59.919Z</time>
      </trkpt>
      <trkpt lat="47.51807" lon="6.77489">
        <ele>456</ele>
        <time>2014-04-20T10:37:04.803Z</time>
      </trkpt>
      <trkpt lat="47.51808" lon="6.77488">
        <ele>456</ele>
        <time>2014-04-20T10:37:09.735Z</time>
      </trkpt>
      <trkpt lat="47.51807" lon="6.77488">
        <ele>456</ele>
        <time>2014-04-20T10:37:14.817Z</time>
      </trkpt>
      <trkpt lat="47.51807" lon="6.77488">
        <ele>456</ele>
        <time>2014-04-20T10:37:19.710Z</time>
      </trkpt>
      <trkpt lat="47.51807" lon="6.77488">
        <ele>456</ele>
        <time>2014-04-20T10:37:24.741Z</time>
      </trkpt>
      <trkpt lat="47.51807" lon="6.77488">
        <ele>456</ele>
        <time>2014-04-20T10:37:29.706Z</time>
      </trkpt>
      <trkpt lat="47.51807" lon="6.77487">
        <ele>456</ele>
        <time>2014-04-20T10:37:34.760Z</time>
      </trkpt>
      <trkpt lat="47.51807" lon="6.77487">
        <ele>456</ele>
        <time>2014-04-20T10:37:39.837Z</time>
      </trkpt>
    </trkseg>
  </trk>
</gpx>